[[{"header":{"parameterUnit":"m.s-1","parameterCategory":1,"la1":30.6,"la2":29.2853,"lo1":-89.7004,"lo2":-87.6739,"dy":0.0162,"dx":0.0183,"nx":112,"ny":82,"refTime":"2023-11-06T06:00:00:Z","depth":0,"parameterNumber":2,"parameterNumberName":"U-component_of_WINDS"},"data":[0.0,0.0,0.0,0.0,0.0,0.0,0.0,0.0,0.0,0.0,0.0,0.0,0.0,0.0,0.0,0.0,0.0,0.0,0.0,0.0,0.0,0.0,0.0,0.0,0.0,0.0,0.0,0.0,0.0,0.0,0.0,0.0,0.0,0.0,0.0,0.0,0.0,0.0,0.0,0.0,0.0,0.0,0.0,0.0,0.0,0.0,0.0,0.0,0.0,0.0,0.0,0.0,0.0,0.0,0.0,0.0,0.0,0.0,0.0,0.0,0.0,0.0,0.0,0.0,0.0,0.0,0.0,0.0,0.0,0.0,0.0,0.0,0.0,0.0,0.0,0.0,0.0,0.0,0.0,0.0,0.0,0.0,0.0,0.0,0.0,0.0,0.0,0.0,0.0,0.0,-0.4139,-0.4149,-0.5196,-0.6153,-0.6744,-0.6871,-0.6856,-0.6758,0.0,0.0,0.0,0.0,0.0,0.0,0.0,0.0,0.0,0.0,0.0,0.0,0.0,0.0,0.0,0.0,0.0,0.0,0.0,0.0,0.0,0.0,0.0,0.0,0.0,0.0,0.0,0.0,0.0,0.0,0.0,0.0,0.0,0.0,0.0,0.0,0.0,0.0,0.0,0.0,0.0,0.0,0.0,0.0,0.0,0.0,0.0,0.0,0.0,0.0,0.0,0.0,0.0,0.0,0.0,0.0,0.0,0.0,0.0,0.0,0.0,0.0,0.0,0.0,0.0,0.0,0.0,0.0,0.0,0.0,0.0,0.0,0.0,0.0,0.0,0.0,0.0,0.0,0.0,0.0,0.0,0.0,0.0,0.0,0.0,0.0,0.0,0.0,0.0,0.0,0.0,0.0,0.0,0.0,0.0,0.0,0.0,0.0,0.0,0.0,0.0,0.0,0.0,0.0,-0.4529,-0.5182,-0.5646,-0.6009,-0.6289,-0.6157,-0.6072,-0.6065,0.0,0.0,0.0,0.0,0.0,0.0,0.0,0.0,0.0,0.0,0.0,0.0,0.0,0.0,0.0,0.0,0.0,0.0,0.0,0.0,0.0,0.0,0.0,0.0,0.0,0.0,0.0,0.0,0.0,0.0,0.0,0.0,0.0,0.0,0.0,0.0,0.0,0.0,0.0,0.0,0.0,0.0,0.0,0.0,0.0,0.0,0.0,0.0,0.0,0.0,0.0,0.0,0.0,0.0,0.0,0.0,0.0,0.0,0.0,0.0,0.0,0.0,0.0,0.0,0.0,0.0,0.0,0.0,0.0,0.0,0.0,0.0,0.0,0.0,0.0,0.0,0.0,0.0,0.0,0.0,0.0,0.0,0.0,0.0,0.0,0.0,0.0,0.0,0.0,0.0,0.0,0.0,0.0,0.0,0.0,0.0,0.0,0.0,0.0,0.0,0.0,0.0,0.0,-0.3843,-0.3982,-0.4705,-0.5137,-0.5495,-0.5852,-0.576,-0.5735,-0.5896,-0.5428,0.0,0.0,0.0,0.0,0.0,0.0,0.0,0.0,0.0,0.0,0.0,0.0,0.0,0.0,0.0,0.0,0.0,0.0,0.0,0.0,0.0,0.0,0.0,0.0,0.0,0.0,0.0,0.0,0.0,0.0,0.0,0.0,0.0,0.0,0.0,0.0,0.0,0.0,0.0,0.0,0.0,0.0,0.0,0.0,0.0,0.0,0.0,0.0,0.0,0.0,0.0,0.0,0.0,0.0,0.0,0.0,0.0,0.0,0.0,0.0,0.0,0.0,0.0,0.0,0.0,0.0,0.0,0.0,0.0,0.0,0.0,0.0,0.0,0.0,0.0,0.0,0.0,0.0,0.0,0.0,0.0,0.0,0.0,0.0,0.0,0.0,0.0,0.0,0.0,0.0,0.0,0.0,0.0,0.0,0.0,0.0,0.0,0.0,0.0,0.0,0.0,0.0,-0.3541,-0.341,-0.4068,-0.4564,-0.5002,-0.5399,-0.5496,-0.5602,-0.5823,-0.5142,0.0,0.0,0.0,0.0,0.0,0.0,0.0,0.0,0.0,0.0,0.0,0.0,0.0,0.0,0.0,0.0,0.0,0.0,0.0,0.0,0.0,0.0,0.0,0.0,0.0,0.0,0.0,0.0,0.0,0.0,0.0,0.0,0.0,0.0,0.0,0.0,0.0,0.0,0.0,0.0,0.0,0.0,0.0,0.0,0.0,0.0,0.0,0.0,0.0,0.0,0.0,0.0,0.0,0.0,0.0,0.0,0.0,0.0,0.0,0.0,0.0,0.0,0.0,0.0,0.0,0.0,0.0,0.0,0.0,0.0,0.0,0.0,0.0,0.0,0.0,0.0,0.0,0.0,0.0,0.0,0.0,0.0,0.0,0.0,0.0,0.0,0.0,0.0,0.0,0.0,0.0,0.0,0.0,0.0,0.0,0.0,0.0,0.0,0.0,0.0,0.0,0.0,-0.3462,-0.3237,-0.3853,-0.4403,-0.4773,-0.4948,-0.5354,-0.5592,-0.5621,-0.5333,0.0,0.0,0.0,0.0,0.0,0.0,0.0,0.0,0.0,0.0,0.0,0.0,0.0,0.0,0.0,0.0,0.0,0.0,0.0,0.0,0.0,0.0,0.0,0.0,0.0,0.0,0.0,0.0,0.0,0.0,0.0,0.0,0.0,0.0,0.0,0.0,0.0,0.0,0.0,0.0,0.0,0.0,0.0,0.0,0.0,0.0,0.0,0.0,0.0,0.0,0.0,0.0,0.0,0.0,0.0,0.0,0.0,0.0,0.0,0.0,0.0,0.0,0.0,0.0,0.0,0.0,0.0,0.0,0.0,0.0,0.0,0.0,0.0,0.0,0.0,0.0,0.0,0.0,0.0,0.0,0.0,0.0,0.0,0.0,0.0,0.0,0.0,0.0,0.0,0.0,0.0,0.0,0.0,0.0,0.0,0.0,0.0,0.0,0.0,0.0,0.0,0.0,-0.3362,-0.3099,-0.2871,-0.3577,-0.4082,-0.4097,-0.4528,-0.4944,-0.5324,0.0,0.0,0.0,0.0,0.0,0.0,0.0,0.0,0.0,0.0,0.0,0.0,0.0,0.0,0.0,0.0,0.0,0.0,0.0,0.0,0.0,0.0,0.0,0.0,0.0,0.0,0.0,0.0,0.0,0.0,0.0,0.0,0.0,0.0,0.0,0.0,0.0,0.0,0.0,0.0,0.0,0.0,0.0,0.0,0.0,0.0,0.0,0.0,0.0,0.0,0.0,0.0,0.0,0.0,0.0,0.0,0.0,0.0,0.0,0.0,0.0,0.0,0.0,0.0,0.0,0.0,0.0,0.0,0.0,0.0,0.0,0.0,0.0,0.0,0.0,0.0,0.0,0.0,0.0,0.0,0.0,0.0,0.0,0.0,0.0,0.0,0.0,0.0,0.0,0.0,0.0,0.0,0.0,0.0,0.0,0.0,0.0,0.0,0.0,0.0,0.0,0.0,-0.3372,-0.3194,-0.2922,-0.2499,-0.3162,-0.3638,-0.3632,-0.4044,-0.4478,-0.4854,0.0,0.0,0.0,0.0,0.0,0.0,0.0,0.0,0.0,0.0,0.0,0.0,0.0,0.0,0.0,0.0,0.0,0.0,0.0,0.0,0.0,0.0,0.0,0.0,0.0,0.0,0.0,0.0,0.0,0.0,0.0,0.0,0.0,0.0,0.0,0.0,0.0,0.0,0.0,0.0,0.0,0.0,0.0,0.0,0.0,0.0,0.0,0.0,0.0,0.0,0.0,0.0,0.0,0.0,0.0,0.0,0.0,0.0,0.0,0.0,0.0,0.0,0.0,0.0,0.0,0.0,0.0,0.0,0.0,0.0,0.0,0.0,0.0,0.0,0.0,0.0,0.0,0.0,0.0,0.0,0.0,0.0,0.0,0.0,0.0,0.0,0.0,0.0,0.0,0.0,0.0,0.0,0.0,0.0,0.0,0.0,0.0,0.0,0.0,0.0,0.0,0.0,-0.3423,-0.2982,-0.27,-0.2968,-0.3286,-0.3536,-0.3672,-0.405,-0.4259,0.0,0.0,0.0,0.0,0.0,0.0,0.0,0.0,0.0,0.0,0.0,0.0,0.0,0.0,0.0,0.0,0.0,0.0,0.0,0.0,0.0,0.0,0.0,0.0,0.0,0.0,0.0,0.0,0.0,0.0,0.0,0.0,0.0,0.0,0.0,0.0,0.0,0.0,0.0,0.0,0.0,0.0,0.0,0.0,0.0,0.0,0.0,0.0,0.0,0.0,0.0,0.0,0.0,0.0,0.0,0.0,0.0,0.0,0.0,0.0,0.0,0.0,0.0,0.0,0.0,0.0,0.0,0.0,0.0,0.0,0.0,0.0,0.0,0.0,0.0,0.0,0.0,0.0,0.0,0.0,0.0,0.0,0.0,0.0,0.0,0.0,0.0,0.0,0.0,0.0,0.0,0.0,0.0,0.0,0.0,0.0,0.0,0.0,0.0,0.0,0.0,0.0,0.0,-0.333,-0.3119,-0.2819,-0.2469,-0.2726,-0.2892,-0.2788,-0.3109,-0.3141,-0.2749,0.0,0.0,0.0,0.0,0.0,0.0,0.0,0.0,0.0,0.0,0.0,0.0,0.0,0.0,0.0,0.0,0.0,0.0,0.0,0.0,0.0,0.0,0.0,0.0,0.0,0.0,0.0,0.0,0.0,0.0,0.0,0.0,0.0,0.0,0.0,0.0,0.0,0.0,0.0,0.0,0.0,0.0,0.0,0.0,0.0,0.0,0.0,0.0,0.0,0.0,0.0,0.0,0.0,0.0,0.0,0.0,0.0,0.0,0.0,0.0,0.0,0.0,0.0,0.0,0.0,0.0,0.0,0.0,0.0,0.0,0.0,0.0,0.0,0.0,0.0,0.0,0.0,0.0,0.0,0.0,0.0,0.0,0.0,0.0,0.0,0.0,0.0,0.0,0.0,0.0,0.0,0.0,0.0,0.0,0.0,0.0,0.0,0.0,0.0,0.0,0.0,0.0,-0.3047,-0.2985,-0.2807,-0.2439,-0.2578,-0.2646,-0.2524,-0.2495,-0.2427,-0.2344,0.0,0.0,0.0,0.0,0.0,0.0,0.0,0.0,0.0,0.0,0.0,0.0,0.0,0.0,0.0,0.0,0.0,0.0,0.0,0.0,0.0,0.0,0.0,0.0,0.0,0.0,0.0,0.0,0.0,0.0,0.0,0.0,0.0,0.0,0.0,0.0,0.0,0.0,0.0,0.0,0.0,0.0,0.0,0.0,0.0,0.0,0.0,0.0,0.0,0.0,0.0,0.0,0.0,0.0,0.0,0.0,0.0,0.0,0.0,0.0,0.0,0.0,0.0,0.0,0.0,0.0,0.0,0.0,0.0,0.0,0.0,0.0,0.0,0.0,0.0,0.0,0.0,0.0,0.0,0.0,0.0,0.0,0.0,0.0,0.0,0.0,0.0,0.0,0.0,0.0,0.0,0.0,0.0,0.0,0.0,0.0,0.0,0.0,0.0,0.0,0.0,0.0,-0.2708,-0.2664,-0.2654,-0.2654,-0.2632,-0.2611,-0.2611,-0.2112,-0.2051,-0.2608,0.0,0.0,0.0,0.0,0.0,0.0,0.0,0.0,0.0,0.0,0.0,0.0,0.0,0.0,0.0,0.0,0.0,0.0,0.0,0.0,0.0,0.0,0.0,0.0,0.0,0.0,0.0,0.0,0.0,0.0,0.0,0.0,0.0,0.0,0.0,0.0,0.0,0.0,0.0,0.0,0.0,0.0,0.0,0.0,0.0,0.0,0.0,0.0,0.0,0.0,0.0,0.0,0.0,0.0,0.0,0.0,0.0,0.0,0.0,0.0,-0.7482,0.0,0.0,0.0,0.0,0.0,0.0,0.0,0.0,0.0,0.0,0.0,0.0,0.0,0.0,0.0,0.0,0.0,0.0,0.0,0.0,0.0,0.0,0.0,0.0,0.0,0.0,0.0,0.0,0.0,0.0,0.0,0.0,0.0,0.0,0.0,0.0,0.0,0.0,0.0,0.0,0.0,-0.2691,-0.2467,-0.2302,-0.2302,-0.211,-0.2,-0.2,-0.1867,-0.1938,-0.2289,-0.2314,0.0,0.0,0.0,0.0,0.0,0.0,0.0,0.0,0.0,0.0,0.0,0.0,0.0,0.0,0.0,0.0,0.0,0.0,0.0,0.0,0.0,0.0,0.0,0.0,0.0,0.0,0.0,0.0,0.0,0.0,0.0,0.0,0.0,0.0,0.0,0.0,0.0,0.0,0.0,0.0,0.0,0.0,0.0,0.0,0.0,0.0,0.0,0.0,0.0,0.0,0.0,0.0,0.0,0.0,0.0,0.0,0.0,0.0,0.0,0.0,-0.7532,0.0,0.0,0.0,0.0,0.0,0.0,0.0,0.0,0.0,0.0,0.0,0.0,0.0,0.0,0.0,0.0,0.0,0.0,0.0,0.0,0.0,0.0,0.0,0.0,0.0,0.0,0.0,0.0,0.0,0.0,0.0,0.0,0.0,0.0,0.0,0.0,0.0,0.0,0.0,0.0,-0.26,-0.2256,-0.2,-0.2,-0.1891,-0.1803,-0.1803,-0.1803,-0.1848,-0.2008,-0.1453,0.0,0.0,0.0,0.0,0.0,0.0,0.0,0.0,0.0,0.0,0.0,0.0,0.0,0.0,0.0,0.0,0.0,0.0,0.0,0.0,0.0,0.0,0.0,0.0,0.0,0.0,0.0,0.0,0.0,0.0,0.0,0.0,0.0,0.0,0.0,0.0,0.0,0.0,0.0,0.0,0.0,0.0,0.0,0.0,0.0,0.0,0.0,0.0,0.0,0.0,0.0,0.0,0.0,-1.0907,-1.1468,-1.1159,-1.136,-1.1504,-1.142,-0.8935,-0.7968,-0.8175,-0.7766,0.0,0.0,0.0,0.0,0.0,0.0,0.0,0.0,0.0,0.0,0.0,0.0,0.0,0.0,0.0,0.0,0.0,0.0,0.0,0.0,0.0,0.0,0.0,0.0,-0.6039,-0.5756,-0.4109,0.0,0.0,0.0,0.0,0.0,0.0,0.0,0.0,0.0,0.0,0.0,-0.2469,-0.2094,-0.1833,-0.1806,-0.1803,-0.1803,-0.1803,-0.1803,-0.1803,-0.1803,-0.0766,-0.0105,0.0,0.0,0.0,0.0,0.0,0.0,0.0,0.0,0.0,0.0,0.0,0.0,0.0,0.0,0.0,0.0,0.0,0.0,0.0,0.0,0.0,0.0,0.0,0.0,0.0,0.0,0.0,0.0,0.0,0.0,0.0,0.0,-0.7225,-0.6878,0.0,0.0,0.0,0.0,0.0,0.0,0.0,0.0,0.0,0.0,0.0,0.0,0.0,-0.9504,-1.0476,-1.0602,-1.0397,-1.0022,-1.108,-1.1128,-1.027,-1.0701,-1.1121,-1.1342,-0.9827,0.0,-0.8602,-0.8198,0.0,0.0,0.0,0.0,0.0,0.0,0.0,0.0,0.0,0.0,0.0,0.0,0.0,0.0,0.0,0.0,0.0,0.0,0.0,0.0,0.0,0.0,-0.6884,-0.6699,-0.6415,-0.6081,0.0,-0.5185,-0.4521,-0.3739,-0.3595,-0.3602,0.0,0.0,0.0,0.0,0.0,0.0,-0.2274,-0.2073,-0.193,-0.1816,-0.1803,-0.1803,-0.1803,-0.1803,-0.1803,-0.1803,-0.1151,-0.0545,-0.0022,-0.0111,0.0,0.0,0.0,0.0,0.0,0.0,0.0,0.0,0.0,0.0,0.0,0.0,0.0,0.0,0.0,0.0,0.0,0.0,0.0,0.0,0.0,0.0,0.0,0.0,0.0,0.0,0.0,0.0,0.0,-0.8276,-0.7993,-0.7889,-0.8846,-0.936,0.0,0.0,0.0,0.0,0.0,0.0,0.0,0.0,0.0,-1.0526,-1.0013,-1.0103,-1.0842,-1.1122,-1.1274,-1.1296,-1.1998,-1.2105,-1.1693,-1.1883,-1.2187,-1.2508,-1.1737,-1.0863,-0.991,-0.8721,-0.8124,-0.7895,0.0,0.0,0.0,0.0,-0.8076,-0.7868,-0.7816,-0.7782,-0.7829,-0.8123,0.0,0.0,0.0,0.0,0.0,0.0,0.0,-0.7682,0.0,0.0,-0.7794,-0.7714,-0.7697,-0.7514,-0.695,-0.6601,-0.5952,-0.4608,-0.4044,-0.3775,-0.3609,-0.3453,0.0,0.0,0.0,-0.2632,-0.2503,-0.2254,-0.2053,-0.1926,-0.1909,-0.1876,-0.1809,-0.1803,-0.1803,-0.1803,-0.1333,-0.0751,-0.0032,-0.0,-0.0,0.0,0.0,0.0,0.0,0.0,0.0,0.0,0.0,0.0,0.0,0.0,0.0,0.0,0.0,0.0,0.0,0.0,0.0,0.0,0.0,0.0,0.0,0.0,0.0,0.0,0.0,0.0,0.0,-0.8781,-0.8814,-0.8776,-0.9684,-1.0193,0.0,0.0,0.0,0.0,0.0,0.0,-1.1207,-1.1296,-1.1429,-1.1582,-1.1063,-1.111,-1.1728,-1.1846,-1.2119,-1.2559,-1.2773,-1.2939,-1.3037,-1.3037,-1.3271,-1.3652,-1.3179,-1.2411,-1.1413,-0.9638,-0.8623,-0.8176,-0.8397,-0.8444,-0.839,-0.8457,-0.839,-0.8227,-0.835,-0.8427,-0.8424,-0.8711,-0.8804,-0.8791,-0.8717,0.0,0.0,0.0,0.0,-0.7902,-0.8023,-0.821,-0.839,-0.847,-0.8651,-0.8639,-0.7992,-0.7692,-0.7019,-0.5282,-0.4574,-0.4127,-0.3715,-0.3554,0.0,-0.3259,-0.3005,-0.2751,-0.2668,-0.2428,-0.2218,-0.2032,-0.2011,-0.1964,-0.1848,-0.1827,-0.1803,-0.1803,-0.1528,-0.1085,-0.049,-0.0154,-0.0,-0.0,0.0,0.0,0.0,0.0,0.0,0.0,0.0,0.0,0.0,0.0,0.0,0.0,0.0,0.0,0.0,0.0,0.0,0.0,0.0,0.0,0.0,0.0,0.0,0.0,0.0,0.0,0.0,0.0,0.0,-0.903,-1.0814,0.0,0.0,0.0,0.0,-1.2037,-1.2102,-1.2122,-1.2122,-1.2531,-1.2988,-1.3359,-1.2988,-1.3114,-1.3912,-1.3203,-1.3027,-1.3437,-1.3066,-1.3096,-1.3477,-1.3477,-1.3711,-1.4048,-1.3366,-1.3023,-1.2824,-1.1022,-0.97,-0.8764,-0.8778,-0.9118,-0.9532,-0.8985,-0.8951,-0.9044,-0.8564,-0.8427,-0.8424,-0.8711,-0.8804,-0.8758,-0.8477,-0.8434,0.0,0.0,-0.7882,-0.7996,-0.8277,-0.8363,-0.8444,-0.8717,-0.8798,-0.8804,-0.8738,-0.819,-0.7175,0.0,-0.4983,-0.4629,-0.3922,0.0,-0.347,-0.3174,-0.3075,-0.2944,-0.2551,-0.2482,-0.2359,-0.2038,-0.2011,-0.2008,-0.1998,-0.1865,-0.1803,-0.1803,-0.1785,-0.1747,-0.1715,-0.0603,-0.0,-0.0,-0.0,0.0,0.0,0.0,0.0,0.0,0.0,0.0,0.0,0.0,0.0,0.0,0.0,0.0,0.0,0.0,0.0,0.0,0.0,0.0,0.0,0.0,0.0,0.0,0.0,0.0,0.0,0.0,0.0,-1.1023,-1.2241,0.0,-1.2498,-1.2559,-1.2646,-1.2646,-1.29,-1.3057,-1.3057,-1.3457,-1.376,-1.3906,-1.3769,-1.3828,-1.4077,-1.3838,-1.376,-1.3906,-1.376,-1.3769,-1.3916,-1.3916,-1.415,-1.4541,-1.3978,-1.368,-1.3477,-1.2511,-1.1682,-1.0895,-1.0339,-1.0263,-1.0379,-0.9665,-0.9439,-0.9499,-0.9292,-0.9092,-0.8918,-0.8838,-0.8931,-0.9031,-0.8744,-0.8784,-0.8871,-0.8577,-0.849,-0.8517,-0.8624,-0.8651,-0.8677,-0.8784,-0.8804,-0.8804,-0.8804,-0.8593,-0.8094,-0.7004,-0.5913,-0.4997,-0.4568,-0.3987,-0.351,-0.3256,-0.3068,-0.2927,-0.2768,-0.2692,-0.2551,-0.2345,-0.2324,-0.2259,-0.2137,-0.208,-0.2032,-0.1933,-0.193,-0.1886,-0.1798,-0.1385,-0.0784,-0.0017,-0.0,0.0583,0.0,0.0,0.0,0.0,0.0,0.0,0.0,0.0,0.0,0.0,0.0,0.0,0.0,0.0,0.0,0.0,0.0,0.0,0.0,0.0,0.0,0.0,0.0,0.0,0.0,0.0,-1.1836,-1.2754,-1.3506,-1.3887,-1.375,-1.373,-1.373,-1.373,-1.4131,-1.4365,-1.4365,-1.4639,-1.4785,-1.4785,-1.4502,-1.4424,-1.4561,-1.4223,-1.4209,-1.4355,-1.4209,-1.4155,-1.4355,-1.4355,-1.459,-1.498,-1.4687,-1.4447,-1.4325,-1.3998,-1.3597,-1.3072,-1.1922,-1.1545,-1.1515,-1.0901,-1.0587,-1.037,-0.9978,-0.9699,-0.9429,-0.9198,-0.9232,-0.9352,-0.9158,-0.9239,-0.9332,-0.9038,-0.8951,-0.8931,-0.8831,-0.8804,-0.8804,-0.8804,-0.8804,-0.8804,-0.8804,-0.8804,-0.8646,-0.8156,-0.6775,-0.5553,-0.5088,-0.4287,-0.3615,-0.347,-0.3249,-0.3039,-0.2988,-0.2849,-0.2712,-0.2503,-0.2513,-0.2445,-0.232,-0.231,-0.2269,-0.2167,-0.2157,-0.2096,-0.1929,-0.1839,-0.1328,-0.0316,-0.011,0.0898,0.271,0.0,0.0,0.0,0.0,0.0,0.0,0.0,0.0,0.0,0.0,0.0,0.0,0.0,0.0,0.0,0.0,0.0,0.0,0.0,0.0,0.0,0.0,0.0,-1.165,-1.2457,-1.3282,-1.4145,-1.4625,-1.5113,-1.5468,-1.5508,-1.5508,-1.5508,-1.59,-1.6145,-1.6145,-1.6145,-1.6145,-1.6145,-1.5264,-1.5019,-1.543,-1.459,-1.4385,-1.4805,-1.4375,-1.4394,-1.4805,-1.4805,-1.5029,-1.541,-1.541,-1.541,-1.541,-1.541,-1.541,-1.5196,-1.3383,-1.2822,-1.3028,-1.2739,-1.2286,-1.1665,-1.0512,-1.0114,-1.0067,-0.978,-0.9693,-0.9693,-0.9686,-0.9693,-0.9633,-0.9339,-0.9196,-0.913,-0.8898,-0.8824,-0.8818,-0.8811,-0.8804,-0.8804,-0.8804,-0.8804,-0.8804,-0.8804,-0.7518,-0.6206,-0.5483,-0.4534,-0.3842,-0.3839,-0.3585,0.0,-0.3147,-0.2998,-0.2798,-0.2537,-0.25,-0.2496,-0.2496,-0.2496,-0.2523,-0.2513,-0.2513,-0.2417,-0.2217,-0.1964,-0.1512,-0.0883,-0.0306,0.0869,0.2612,0.0,0.0,0.0,0.0,0.0,0.0,0.0,0.0,0.0,0.0,0.0,0.0,0.0,0.0,0.0,0.0,0.0,0.0,0.0,0.0,0.0,-1.3265,-1.3758,-1.3884,-1.4359,-1.5394,-1.7136,-1.7805,-1.8108,-1.8228,-1.825,-1.7954,-1.7305,-1.7429,-1.7205,-1.6553,-1.6553,-1.6553,-1.6553,-1.6006,-1.5831,-1.5889,-1.5332,-1.5127,-1.5234,-1.5117,-1.5127,-1.5244,-1.5244,-1.5303,-1.541,-1.541,-1.541,-1.541,-1.541,-1.541,-1.5284,-1.4214,-1.3817,-1.3777,-1.3134,-1.2432,-1.172,-1.1158,-1.0583,-1.0067,-0.978,-0.9826,-0.996,-0.9746,-0.9833,-0.9933,-0.9646,-0.9559,-0.9492,-0.9198,-0.9064,-0.9065,-0.8858,-0.8804,-0.8804,-0.8804,-0.8804,-0.8804,-0.8804,-0.7988,-0.7239,-0.6951,-0.572,-0.4726,-0.4595,-0.3927,0.0,-0.3334,-0.3066,-0.2917,-0.2934,-0.2846,-0.2784,-0.2784,-0.2784,-0.2723,-0.2496,-0.2513,-0.2417,-0.2217,-0.2141,-0.151,-0.0265,-0.0096,0.0233,0.0,0.0,0.0,0.0,0.0,0.0,0.0,0.0,0.0,0.0,0.0,0.0,0.0,0.0,0.0,0.0,0.0,0.0,0.0,0.0,0.0,0.0,-1.5163,-1.6114,-1.7115,-1.6933,-1.7324,-1.8938,-1.9607,-1.9934,-1.9862,-2.0053,-1.9901,-1.9141,-1.8754,-1.8321,-1.7829,-1.7283,-1.712,-1.7483,-1.7112,-1.6961,-1.7113,-1.703,-1.6894,-1.6707,-1.6707,-1.6646,-1.6476,-1.6236,-1.6078,-1.5957,-1.5771,-1.5791,-1.5947,-1.5762,-1.5791,0.0,0.0,0.0,0.0,0.0,-1.2696,-1.2235,-1.1669,-1.0948,-1.0335,-1.0509,-1.0457,-1.0274,-1.01,-1.0167,-1.0241,-0.9947,-0.9866,-0.9766,-0.9296,-0.9276,-0.9352,-0.9058,-0.9085,-0.9138,-0.9018,-0.8985,-0.8951,-0.8831,-0.848,0.0,-0.8049,-0.6716,-0.5521,-0.5109,-0.4496,-0.39,-0.3541,-0.3282,-0.3103,-0.312,-0.3046,-0.2998,-0.2998,-0.2998,0.0,0.0,0.0,-0.2581,-0.2405,-0.24,0.0,0.0,0.0,-0.0,-0.0,0.1055,0.0,0.0,0.2846,0.2707,0.0,0.0,0.0,0.0,0.0,0.0,0.0,0.0,0.0,0.0,0.0,0.0,0.0,0.0,0.0,0.0,-1.7122,-1.8491,-2.0595,-1.9946,-1.9459,-2.0198,-2.0711,-2.0985,-2.091,-2.1308,-2.1388,-2.0816,-2.0009,-1.9562,-1.9431,0.0,0.0,0.0,0.0,-1.8343,-1.8678,-1.905,-1.9086,-1.8588,-1.8588,-1.8357,-1.7975,-1.7504,-1.7073,-1.6709,-1.6309,-1.6367,-1.6699,-1.6299,-1.6377,-1.6587,-1.5869,-1.5566,-1.538,-1.3917,-1.3378,-1.3186,-1.2313,0.0,0.0,-1.1519,-1.1254,-1.0744,-1.0624,-1.0624,-1.0571,-1.0241,-1.0167,-1.004,-0.9422,-0.9532,-0.9659,-0.9359,-0.9492,-0.9599,-0.925,-0.9183,-0.9097,-0.8864,-0.8804,-0.8804,-0.8804,-0.7454,-0.6196,-0.5504,-0.5039,-0.4513,-0.3687,-0.3488,-0.3348,-0.3185,0.0,0.0,-0.3108,-0.3108,-0.3098,-0.3085,-0.3002,-0.2805,-0.2543,-0.2528,-0.173,-0.0037,-0.0,-0.0,-0.0,-0.0,0.0651,0.1874,0.2331,0.233,0.0,0.0,0.0,0.0,0.0,0.0,0.0,0.0,0.0,0.0,0.0,0.0,0.0,0.0,0.0,-1.9376,-2.0531,-2.1559,-2.2464,-2.2798,-2.2861,-2.2493,-2.2567,-2.2628,-2.2628,-2.2727,-2.2481,-2.169,-2.1491,-2.1101,-2.0398,-2.0116,-2.0061,-2.0189,-1.9776,-1.9538,-1.9632,-1.9388,-1.9256,-1.9166,0.0,0.0,-1.7996,-1.7901,-1.7431,-1.6728,-1.6641,-1.665,-1.6665,-1.6641,-1.665,-1.6655,-1.648,-1.6475,-1.6412,-1.609,-1.5558,-1.4897,-1.3997,-1.3365,-1.2798,-1.1539,-1.1369,-1.1469,-1.0807,-1.0624,0.0,-1.0488,-1.0474,-1.0394,-1.004,-0.9987,-0.996,-0.9666,-0.9646,-0.9599,-0.925,-0.9183,-0.9097,-0.8864,-0.8804,-0.8804,-0.8804,-0.7454,-0.6294,-0.6061,-0.4857,-0.3922,-0.3643,-0.3446,-0.3385,-0.348,-0.3336,-0.3262,-0.3262,-0.3262,-0.3212,-0.3088,-0.3093,-0.2607,-0.1599,-0.1581,-0.1062,-0.0037,-0.0,-0.0,-0.0,-0.0,0.0122,0.0445,0.2447,0.3319,0.0,0.0,0.0,0.0,0.0,0.0,0.0,0.0,0.0,0.0,0.0,-1.7471,0.0,0.0,-2.0563,-2.1657,-2.2578,-2.3331,-2.3879,-2.3991,-2.3791,-2.314,-2.3389,-2.3565,-2.3565,-2.3565,-2.338,-2.2996,-2.2294,-2.169,-2.129,-2.0846,-2.0782,-2.1239,-2.1047,-2.0976,-2.1081,-2.1153,-2.1081,-2.0818,-2.0818,-2.0534,-1.9913,-1.9164,-1.8511,-1.7985,-1.7333,-1.7178,-1.7373,-1.7373,-1.7373,-1.7373,-1.7373,-1.7109,-1.6665,-1.6265,-1.5854,-1.545,-1.4932,-1.4422,-1.3874,-1.3413,-1.3171,-1.2869,-1.1831,-1.1475,-1.1376,-1.0792,-1.0624,-1.0488,-1.0194,-1.0227,-1.0267,-0.9967,-1.0013,-1.004,-0.974,-0.9566,-0.9372,-0.9085,-0.8911,-0.8804,-0.8804,-0.7506,-0.6447,-0.6318,-0.5304,-0.4323,-0.376,-0.3619,-0.3571,-0.3581,-0.351,-0.3463,-0.3463,-0.3463,-0.3364,-0.3095,-0.3241,-0.3053,-0.2314,-0.18,-0.1365,-0.0909,-0.0295,-0.0,-0.0,-0.0,-0.0,0.0045,0.1256,0.2424,0.0,0.0,0.0,0.0,0.0,0.0,0.0,0.0,-1.7488,-1.8053,-1.897,-1.9962,-2.0966,-2.2046,-2.2975,-2.3527,-2.4004,-2.4431,-2.477,-2.4343,-2.3791,-2.314,-2.3552,-2.3841,-2.3841,-2.3841,-2.3841,-2.3841,-2.2763,-2.2137,-2.2137,-2.1491,-2.1428,-2.2125,-2.2137,-2.2238,-2.2472,-2.2852,-2.2852,-2.2472,-2.2472,-2.227,-2.1865,-2.0664,-1.9946,-1.9475,-1.8289,-1.7886,-1.8008,-1.8008,-1.8008,-1.8008,-1.8008,-1.7588,-1.6844,-1.6225,-1.6021,-1.5956,-1.5751,-1.537,-1.4915,-1.5242,-1.4994,-1.4286,-1.3097,-1.2584,-1.2228,-1.1397,-1.0911,-1.0564,-1.0445,-1.0498,-1.0501,-1.0261,-1.0388,-1.0481,-1.018,-0.9933,-0.9666,-0.9256,-0.9051,-0.8818,-0.8599,-0.7509,-0.6567,-0.6442,-0.5634,-0.4801,-0.3965,-0.3836,-0.3782,-0.3636,-0.3622,-0.3609,-0.3581,-0.3581,-0.3473,-0.3225,-0.3461,-0.3524,-0.3352,-0.2571,-0.2163,-0.216,-0.1188,-0.0604,-0.0358,-0.0358,-0.0224,-0.0,-0.0,0.1033,-1.9435,-1.8829,-1.7961,-1.7843,-1.7901,-1.8229,0.0,0.0,-2.0351,-2.0916,-2.1518,-2.2133,-2.2749,-2.3778,-2.4707,-2.5234,-2.5372,-2.5285,-2.487,-2.4343,-2.3791,-2.314,-2.3128,-2.3226,-2.3226,-2.3226,-2.3226,-2.3226,-2.3042,-2.2944,-2.2944,-2.2884,-2.2884,-2.2944,-2.2944,-2.298,-2.2977,-2.304,-2.304,-2.2977,-2.2977,-2.264,-2.1877,-2.1756,-2.1244,-2.0398,-1.9509,-1.868,-1.8008,-1.8008,-1.8008,-1.8008,-1.8008,-1.7949,-1.7861,-1.7726,-1.7726,-1.7581,-1.6793,-1.6708,-1.6826,-1.5306,-1.5071,-1.5183,-1.436,-1.329,-1.2531,-1.3108,-1.2011,-1.0737,-1.1425,-1.1142,-1.0618,-1.0521,-1.0598,-1.0481,-1.018,-1.0094,-0.9907,-0.9289,-0.9157,-0.8886,-0.7979,-0.7128,-0.6567,-0.6442,-0.5224,-0.4237,-0.4016,-0.3992,-0.3934,-0.3785,-0.3768,-0.3717,-0.3592,-0.3581,-0.3565,-0.3531,-0.3591,-0.3591,-0.3574,-0.344,-0.3406,-0.3388,-0.3255,-0.2674,-0.1606,-0.1607,-0.1027,-0.0,-0.0,0.0134,-1.9156,-1.9425,-1.9558,-1.9203,-2.004,-2.093,-2.0803,-2.1629,-2.2415,-2.2438,-2.3543,-2.4416,-2.4129,-2.5116,-2.5807,0.0,-2.5146,-2.5176,-2.5421,-2.4622,-2.3837,-2.3315,-2.291,-2.2943,-2.354,-2.3339,-2.3276,-2.3615,-2.3326,-2.3078,-2.3078,-2.3078,-2.3078,-2.3078,-2.3078,-2.3078,-2.3078,-2.3078,-2.3078,-2.3078,-2.3078,-2.2944,-2.2567,-2.2125,-2.1175,-1.9814,-1.9431,-1.893,-1.8379,-1.8379,-1.8525,-1.875,-1.875,-1.8603,-1.835,-1.8105,-1.8008,-1.794,-1.7569,-1.7532,-1.761,-1.6896,-1.6775,-1.6655,-1.5,-1.4547,-1.4378,-1.3467,-1.2598,-1.2043,-1.2355,-1.1781,-1.1022,-1.0855,-1.0815,-1.0735,-1.0434,-1.0241,-1.0047,-0.98,-0.9613,-0.9168,-0.8294,-0.7426,-0.6688,-0.6156,-0.5074,-0.4321,-0.412,-0.4103,-0.4043,-0.3941,-0.3924,-0.3866,-0.3717,-0.3704,-0.367,-0.3585,-0.3581,-0.3581,-0.3581,-0.3581,-0.3581,-0.3588,-0.3588,-0.3357,-0.286,-0.2847,-0.2573,-0.2105,-0.2115,-0.133,-1.9566,-2.0338,-2.1012,-2.0912,-2.2289,-2.351,-2.2994,-2.3917,-2.4798,-2.4481,-2.5458,-2.6126,-2.5265,-2.5795,-2.6122,-2.5277,-2.4985,-2.5169,-2.59,-2.4771,-2.3784,-2.3464,-2.2789,-2.2635,-2.3223,-2.3062,-2.3138,-2.3715,-2.3376,-2.3078,-2.3078,-2.3078,-2.3078,-2.3078,-2.3288,-2.3301,-2.3078,-2.3378,-2.3378,-2.3078,-2.3301,-2.3288,-2.3065,-2.2506,-2.1371,-1.9809,-1.9809,-1.9411,-1.8828,-1.8936,-1.9102,-1.9297,-1.9414,-1.9121,-1.8533,-1.8291,-1.8105,-1.8027,-1.8144,-1.8184,-1.8184,-1.8184,-1.8184,-1.7812,-1.6133,-1.5657,-1.544,-1.4104,-1.3111,-1.2571,-1.2781,-1.2105,-1.1369,-1.1162,-1.1109,-1.1035,-1.0742,-1.0575,-1.0408,-1.0167,-1.0013,-0.9623,-0.8622,-0.7744,-0.687,-0.6006,-0.5099,-0.4473,-0.4328,-0.422,-0.4153,-0.4043,-0.4043,-0.3975,-0.3863,-0.3856,-0.3812,-0.3707,-0.37,-0.37,-0.37,-0.37,-0.37,-0.37,-0.37,-0.37,-0.37,-0.3731,-0.3589,-0.3343,-0.3598,-0.2706,-2.1276,-2.173,-2.2164,-2.3363,-2.4646,-2.5743,-2.6273,-2.7228,-2.7994,-2.7899,-2.7371,-2.6795,-2.6103,-2.5472,-2.5281,-2.584,-2.5502,-2.5394,-2.6125,-2.4586,-2.3404,-2.3427,-2.2788,-2.2177,0.0,-2.2033,-2.2573,-2.3065,-2.3078,-2.3078,-2.3078,-2.3078,-2.3078,-2.3078,-2.3678,-2.3703,-2.3078,-2.423,-2.4217,-2.3078,-2.3703,-2.3678,-2.3078,-2.3078,-2.239,-2.1152,-2.1152,-2.0419,-1.9297,-1.9707,-1.9648,-1.9326,-1.9736,-1.9385,-1.8562,-1.8623,-1.8359,-1.8066,-1.8477,-1.8553,-1.8553,-1.8553,-1.8553,-1.8465,-1.8047,-1.6433,-1.4883,-1.561,-1.3731,-1.1628,-1.2511,-1.2037,-1.1423,-1.1416,-1.141,-1.1329,-1.1042,-1.1196,-1.1136,-1.0281,-1.0341,-1.0161,-0.8818,-0.7881,-0.6973,-0.6134,-0.5254,-0.4629,-0.4532,-0.4334,-0.4194,-0.4187,-0.4056,-0.4019,-0.4012,-0.4012,-0.4012,-0.4009,-0.4005,-0.4005,-0.4005,-0.4005,-0.4005,-0.4005,-0.4005,-0.4005,-0.4005,-0.4012,-0.3559,-0.2752,-0.3518,-0.3752,-2.1979,-2.3316,-2.4646,-2.5821,-2.7224,-2.826,-2.8158,-2.8577,-2.8471,-2.6982,-2.6621,-2.5909,-2.3916,-2.3802,-2.3937,-2.3667,-2.382,-2.4238,-2.4972,-2.4921,-2.4346,-2.3231,-2.3568,0.0,0.0,0.0,0.0,-2.2548,-2.2585,-2.2749,-2.3053,-2.3078,-2.3314,-2.369,-2.3891,-2.4079,-2.4255,-2.4632,-2.4632,-2.4255,-2.4456,-2.4255,-2.3703,-2.3703,-2.3142,-2.2185,-2.1506,-2.1025,-2.0647,-2.0143,-2.0,-2.0146,-2.0293,-1.9824,-1.9072,-1.9072,-1.8613,-1.8037,-1.8164,-1.8223,-1.8223,-1.8223,-1.8223,-1.8046,-1.7323,-1.6546,-1.5878,-1.5531,-1.419,-1.2991,-1.3282,-1.2714,-1.1957,-1.1764,-1.1724,-1.1643,-1.1343,-1.1356,-1.1283,-1.0788,-1.0782,-1.0458,-0.9256,-0.8236,-0.7024,-0.5358,-0.4826,-0.4577,-0.4525,-0.4419,-0.4392,-0.4392,-0.4345,-0.4273,-0.4127,-0.412,-0.4076,-0.4026,-0.4019,-0.4019,-0.4019,-0.4019,-0.4019,-0.4019,-0.4019,-0.4019,-0.4019,-0.408,-0.392,-0.3568,-0.3926,-0.4056,-2.3295,-2.5166,-2.6981,-2.8184,-2.9345,-3.0122,-2.966,-2.9261,-2.8463,-2.6307,-2.5586,-2.4693,-2.2508,-2.2314,-2.2494,-2.2512,-2.2677,-2.3307,-2.4709,-2.483,-2.4597,-2.3916,-2.4334,-2.3812,0.0,0.0,0.0,-2.2317,-2.2686,-2.3075,-2.3427,-2.3627,-2.3904,-2.428,-2.4469,-2.4657,-2.482,-2.5209,-2.531,-2.5096,-2.4908,-2.4632,-2.4293,-2.4293,-2.3922,-2.3155,-2.2184,-2.1664,-2.1533,-2.0581,-2.0312,-2.0566,-2.0566,-2.0137,-1.9512,-1.9512,-1.9072,-1.8467,-1.8467,-1.8359,-1.8262,-1.8418,-1.8359,-1.8065,-1.7332,-1.6853,-1.6419,-1.5446,-1.4458,-1.36,-1.3317,-1.2732,-1.2258,-1.2064,-1.2024,-1.1944,-1.165,-1.1663,-1.1623,-1.1223,-1.1149,-1.0856,-1.0043,-0.8908,-0.7527,-0.5592,-0.5358,-0.5187,-0.4577,-0.4736,-0.4787,-0.4515,-0.4519,-0.4426,-0.4331,-0.4324,-0.4284,-0.4185,-0.4178,-0.4178,-0.4178,-0.4178,-0.4178,-0.4178,-0.4178,-0.4178,-0.4178,-0.4284,-0.428,-0.4182,-0.4287,-0.4256,-2.5226,-2.72,-2.8996,-3.0238,-3.1016,-3.13,-3.0567,-2.9385,-2.7874,-2.5824,-2.4358,-2.3056,0.0,0.0,-2.1096,-2.2413,-2.2158,-2.2682,-2.5196,-2.4537,-2.4237,0.0,0.0,0.0,0.0,0.0,0.0,-2.2559,0.0,-2.3979,-2.4042,-2.4531,-2.4833,-2.4858,-2.5335,-2.5385,-2.4946,-2.5988,-2.6214,-2.5636,-2.5146,-2.4895,-2.4858,-2.4858,-2.4661,-2.4232,-2.3222,-2.2477,-2.2027,-2.1078,-2.0644,-2.0566,-2.0566,-2.0303,-1.9912,-1.9912,-1.9648,-1.9287,-1.9307,-1.9023,-1.863,-1.9121,-1.8955,-1.8525,-1.8135,-1.7354,-1.6419,-1.5517,-1.4522,-1.3455,-1.2592,-1.2372,-1.2305,-1.2305,-1.2305,-1.2225,-1.1951,-1.2104,-1.2131,-1.1563,-1.1423,-1.1248,-1.0976,-0.9869,-0.8449,-0.6697,-0.6849,-0.6516,-0.4768,-0.5171,-0.5273,-0.4625,-0.457,-0.4519,-0.4519,-0.4519,-0.4519,-0.4519,-0.4519,-0.4519,-0.4519,-0.4519,-0.4519,-0.4519,-0.4519,-0.4519,-0.4519,-0.4519,-0.4519,-0.4519,-0.4519,-0.4389,-2.729,-2.8906,-3.0223,-3.1061,-3.1016,-3.0477,-2.934,-2.7679,-2.5674,-2.3206,-2.2039,-2.1036,-1.9705,-1.9735,-2.0378,-2.1724,-2.2607,0.0,-2.4717,-2.5854,0.0,-2.6362,0.0,-2.7056,-2.573,-2.6557,0.0,0.0,-2.4007,-2.3728,-2.4569,-2.4745,-2.4996,-2.5385,-2.5523,-2.5937,-2.6653,-2.6929,-2.6791,-2.6239,-2.6101,-2.5812,-2.5398,-2.5398,-2.534,-2.5185,-2.4208,-2.3578,-2.3073,-2.2038,-2.1221,-2.0566,-2.0566,-2.0303,-1.9912,-1.9912,-1.9648,-1.9336,-1.9648,-1.9268,-1.8652,-1.8769,-1.8516,-1.8154,-1.8047,-1.7354,-1.6558,-1.628,-1.5013,-1.3673,-1.3382,-1.2806,-1.2305,-1.2305,-1.2305,-1.2278,-1.2204,-1.2251,-1.2191,-1.183,-1.1403,-1.0876,-1.0134,-0.958,-0.8782,-0.7586,-0.7746,-0.7417,-0.5669,-0.5967,-0.6036,-0.5328,-0.5218,-0.5058,-0.4519,-0.4519,-0.4519,-0.4519,-0.4519,-0.4519,-0.4519,-0.4519,-0.4519,-0.4519,-0.4519,-0.4519,-0.4519,-0.4519,-0.4519,-0.4519,-0.4519,-0.4498,-2.9056,-3.0387,-3.1405,-3.1509,-3.0945,-2.9962,-2.812,-2.6243,-2.4223,-2.1972,-2.0712,-1.9834,-1.9144,-1.914,-1.96,0.0,0.0,0.0,-2.3999,-2.5644,-2.6901,0.0,-2.8143,0.0,-2.7465,-2.8293,-2.845,0.0,-2.6148,-2.5389,-2.5564,-2.6123,-2.6391,-2.6327,-2.6565,-2.6892,-2.7281,-2.7281,-2.7005,-2.6533,-2.6533,-2.6289,-2.5975,-2.5975,-2.5975,-2.5975,-2.4993,-2.4378,-2.4047,-2.2627,-2.1659,-2.1155,-2.0789,-2.042,-2.0195,-2.0195,-2.0049,-1.9853,-1.9902,-1.96,-1.917,-1.8984,-1.8633,-1.8252,-1.8066,-1.7647,-1.7139,-1.6706,-1.579,-1.484,-1.4064,-1.3418,-1.284,-1.2614,-1.2398,-1.2305,-1.2305,-1.2305,-1.2218,-1.1924,-1.1603,-1.12,-1.059,-1.0205,-0.9709,-0.8709,-0.8886,-0.8616,-0.7133,-0.7001,-0.6686,-0.5597,-0.5487,-0.5218,-0.457,-0.4519,-0.4519,-0.4519,-0.4519,-0.4519,-0.4519,-0.4519,-0.4519,-0.4519,-0.4519,-0.4519,-0.4519,-0.4519,-0.4519,-0.4519,-0.4519,-0.4519,-3.0679,-3.1672,-3.2347,-3.1747,-3.0782,-2.9419,-2.6995,-2.5002,-2.3149,-2.1424,-2.0033,-1.9229,-1.9435,-1.9157,-1.908,-1.9797,0.0,-2.1554,-2.346,-2.4822,-2.6393,-2.8487,-2.8727,-2.8812,-2.8941,-2.9464,-2.9763,-2.9659,-2.9156,-2.832,-2.6972,-2.8014,-2.8287,-2.7452,-2.7921,-2.7946,-2.7394,-2.7469,-2.7218,-2.6747,-2.6603,-2.6634,-2.6634,-2.6634,-2.6596,-2.6465,-2.5667,-2.5218,-2.4862,-2.2999,-2.2103,-2.1886,-2.0934,-2.0566,-2.0566,-2.0566,-2.0566,-2.0508,-2.0127,-2.0,-1.9912,-1.9375,-1.8945,-1.8494,-1.8203,-1.8057,-1.7872,-1.7056,-1.6742,-1.6289,-1.4893,-1.4101,-1.3601,-1.3071,-1.256,-1.2305,-1.2305,-1.2305,-1.2225,-1.1977,-1.1897,-1.179,-1.153,-1.1243,-1.0764,-0.9995,-1.0015,-0.9806,-0.8693,-0.8181,-0.7317,-0.5819,-0.5651,-0.5328,-0.457,-0.4519,-0.4519,-0.4519,-0.4519,-0.4519,-0.4519,-0.4519,-0.4519,-0.4519,-0.4519,-0.4519,-0.4519,-0.4519,-0.4519,-0.4519,-0.4519,-0.4519,-3.2492,-3.274,-3.2465,-3.2313,-3.037,-2.8056,-2.6116,-2.3936,0.0,-2.0073,-1.9311,-1.9158,-1.9778,-1.9782,-1.997,-2.0895,-2.1572,-2.2598,-2.4207,-2.5121,-2.6557,0.0,-2.9415,-3.0033,-3.1633,-3.1901,0.0,0.0,-3.2499,-3.1503,-2.9092,-2.9171,-2.8898,-2.7959,-2.8499,-2.8511,-2.7971,-2.8411,-2.836,-2.7821,-2.7356,-2.7143,-2.7143,-2.7143,-2.6892,-2.649,-2.6789,0.0,-2.4933,-2.3745,-2.2776,-2.1886,-2.0934,-2.0566,-2.0566,-2.0566,-2.0566,-2.0557,-2.0478,-2.0449,-2.0264,-1.9121,-1.8701,-1.8623,-1.8555,-1.8281,-1.8008,-1.8209,-1.7469,-1.6507,-1.6298,-1.4919,-1.3688,-1.3601,-1.2921,-1.2305,-1.2305,-1.2305,-1.2285,-1.2238,-1.2031,-1.1857,-1.1804,-1.1543,-1.1202,-1.0824,-1.0637,-1.0287,-0.9571,-0.9147,-0.8288,-0.6603,-0.6421,-0.5878,-0.4625,-0.4519,-0.4519,-0.4519,-0.4519,-0.4519,-0.4519,-0.4519,-0.4519,-0.4519,-0.4519,-0.4519,-0.4519,-0.4519,-0.4519,-0.4519,-0.4519,-0.4519,-3.2616,-3.331,-3.333,-3.2168,-3.0219,-2.8037,-2.5835,0.0,0.0,-2.0201,-1.9522,-1.939,-2.0134,-2.0042,-2.0083,-2.0674,-2.1034,-2.1751,-2.3368,-2.4477,-2.6078,-2.8757,-2.937,-3.0357,-3.2317,-3.2826,-3.324,-3.3794,-3.4248,-3.3412,-3.0813,-3.0268,-2.9928,-2.9718,-2.9517,-2.9101,-2.8536,-2.88,-2.8649,-2.8109,-2.7833,-2.7708,-2.7708,-2.7708,-2.7406,-2.6904,-2.7168,-2.6744,-2.5734,-2.4707,-2.3661,-2.2702,-2.1745,-2.1001,-2.0566,-2.0566,-2.0566,-2.0537,-2.0303,-2.0381,-2.0391,-1.9326,-1.9121,-1.9258,-1.9043,-1.8682,-1.8379,-1.8584,-1.8117,-1.7582,-1.7216,-1.6538,-1.5634,-1.4774,-1.3506,-1.2492,-1.2338,-1.2425,-1.2485,-1.2331,-1.2318,-1.2278,-1.2124,-1.185,-1.1557,-1.1263,-1.0969,-1.0575,-0.9987,-0.9786,-0.8884,-0.6797,-0.6588,-0.6046,-0.4625,-0.4519,-0.4519,-0.4519,-0.4519,-0.4519,-0.4519,-0.4519,-0.4519,-0.4519,-0.4519,-0.4519,-0.4519,-0.4519,-0.4519,-0.4519,-0.4519,-0.4519,-3.2348,-3.3403,-3.3921,-3.2029,-3.0046,-2.7931,-2.5675,-2.3109,-2.113,-2.0796,-2.0091,-1.9816,-2.0721,-2.0424,-2.016,0.0,-2.0398,-2.0763,-2.239,-2.3623,-2.539,-2.8068,-2.9205,0.0,-3.2527,-3.332,0.0,-3.4637,-3.519,-3.4552,-3.2414,-3.1355,-3.0937,-3.1167,-3.0482,-2.9783,-2.9114,-2.9114,-2.89,-2.8461,-2.8335,-2.8285,-2.8285,-2.8285,-2.7921,-2.7293,-2.7406,-2.708,-2.6383,-2.5441,-2.442,-2.3368,-2.2403,-2.1451,-2.0566,-2.0566,-2.0566,-2.0518,-2.0176,-2.0283,-2.0459,-1.9785,-1.9658,-1.9717,-1.9394,-1.8916,-1.8545,-1.873,-1.8711,-1.8518,-1.8128,-1.8008,-1.7455,-1.5584,-1.3924,-1.2761,-1.2445,-1.2579,-1.2755,-1.2445,-1.2585,-1.2728,-1.2351,-1.2118,-1.1864,-1.1563,-1.1269,-1.081,-1.0034,-1.0032,-0.9204,-0.6884,-0.6713,-0.6092,-0.4629,-0.4519,-0.4519,-0.4519,-0.4519,-0.4519,-0.4519,-0.4519,-0.4519,-0.4519,-0.4519,-0.4519,-0.4519,-0.4519,-0.4519,-0.4519,-0.4519,-0.4519,-3.231,-3.3112,-3.3374,-3.243,-2.9597,-2.6651,-2.5318,0.0,-2.1265,-2.1457,-2.065,-2.0389,-2.1866,-2.1221,-2.0668,-2.1376,0.0,-2.0756,-2.2132,-2.3111,-2.4687,-2.735,0.0,0.0,-3.32,-3.3993,-3.4666,-3.5355,-3.5474,-3.5037,-3.3873,-3.2877,-3.2051,-3.1254,-3.1106,-3.067,-2.9716,-2.9716,-2.9691,-2.9628,-2.9101,-2.885,-2.885,-2.885,-2.8285,-2.7306,-2.7808,-2.7431,0.0,-2.5441,-2.442,-2.3368,-2.2403,-2.1451,-2.0566,-2.0566,-2.0566,-2.0557,-2.0518,-2.0527,-2.0557,-2.0469,-1.9951,-1.9336,-1.9297,-1.8721,-1.8232,-1.9004,-1.8945,-1.8669,-1.9025,-1.8535,-1.7314,-1.5059,-1.3611,-1.2815,-1.2788,-1.2802,-1.2815,-1.2788,-1.2802,-1.2728,-1.2351,-1.2278,-1.2164,-1.187,-1.1577,-1.0901,-0.956,-0.978,-0.9273,-0.7095,-0.6997,-0.6356,-0.4639,-0.4519,-0.4519,-0.4519,-0.4519,-0.4519,-0.4519,-0.4519,-0.4519,-0.4519,-0.4519,-0.4519,-0.4519,-0.4519,-0.4519,-0.4519,-0.4519,-0.4519,-3.0067,-3.1645,-3.259,-3.1352,-2.9194,-2.6916,-2.5112,0.0,-2.0516,-2.0609,-2.0303,-2.0322,-2.1431,-2.1255,-2.1061,-2.1526,0.0,0.0,-2.1897,-2.2183,-2.3488,-2.6959,-2.8523,-3.0447,0.0,0.0,-3.4756,-3.5444,-3.5504,-3.5359,-3.4905,-3.3959,-3.3241,-3.289,-3.2321,-3.1609,-3.062,-3.062,-3.0343,-2.9792,-2.9566,-2.9453,-2.9453,-2.9453,-2.9013,-2.8273,-2.816,-2.7858,0.0,-2.6367,-2.5171,-2.3929,-2.3183,-2.1962,-2.0566,-2.0566,-2.0566,-2.0566,-2.0566,-2.0566,-2.0566,-2.0566,-2.0156,-1.9668,-1.9668,-1.9248,-1.8848,-1.9189,-1.9346,-1.9443,-1.9619,-1.8506,-1.7073,-1.6154,-1.4285,-1.2876,-1.2986,-1.3026,-1.3026,-1.3026,-1.3026,-1.2926,-1.2625,-1.2418,-1.2204,-1.1911,-1.1617,-1.1141,-1.0405,-1.0371,-0.9846,-0.83,-0.7942,-0.7221,-0.5896,-0.5773,-0.5773,-0.5773,-0.5328,-0.5109,-0.5109,-0.4736,-0.4519,-0.4519,-0.4519,-0.4519,-0.4519,-0.4519,-0.4519,-0.4519,-0.4519,-0.4519,-2.774,-2.9793,-3.1157,-2.9831,-2.8139,-2.6302,-2.4289,0.0,-1.9799,-2.0264,-2.0154,-2.0264,-2.1042,-2.108,-2.1094,0.0,0.0,-2.0147,-2.165,-2.184,-2.2985,-2.62,0.0,-2.9902,-3.2824,-3.4162,-3.4981,-3.5474,-3.5504,-3.5504,-3.5504,-3.4839,-3.4312,-3.4027,-3.3101,-3.2177,-3.118,-3.0895,-3.0419,-2.9792,-2.9792,-2.9792,-2.9792,-2.9792,-2.9478,-2.89,-2.8511,-2.826,0.0,-2.7092,-2.6045,-2.4853,-2.3909,-2.2574,-2.1191,-2.0761,-2.0566,-2.0566,-2.0566,-2.0566,-2.0566,-2.0566,-2.0273,-1.9893,-1.9766,-1.9434,-1.9121,-1.9248,-1.9687,-2.0078,-1.9951,-1.8742,-1.7386,-1.7033,-1.5156,-1.3528,-1.3366,-1.334,-1.334,-1.334,-1.3267,-1.3113,-1.2876,-1.2498,-1.2231,-1.2031,-1.167,-1.1213,-1.0808,-1.0659,-1.0184,-0.9082,-0.878,-0.8123,-0.6869,-0.6683,-0.6588,-0.6588,-0.5928,-0.5487,-0.5487,-0.4838,-0.4519,-0.4519,-0.4519,-0.4519,-0.4519,-0.4519,-0.4519,-0.4519,-0.4519,-0.4519,-2.5773,-2.752,-2.8839,-2.8026,-2.6167,-2.4137,-2.2665,-2.0551,-1.9333,-2.0856,-2.0551,-2.0264,-2.1042,-2.0811,-2.0655,-2.1123,-2.0459,0.0,-2.1439,-2.2391,-2.3501,0.0,-2.7465,-2.9925,-3.2081,-3.4227,-3.5489,-3.5504,-3.5504,0.0,-3.5504,-3.5504,-3.5052,-3.4027,-3.3101,-3.2177,-3.118,-3.0279,-2.9792,-2.9792,-2.9792,-2.9792,-2.9792,-2.9792,-2.9478,-2.8925,-2.8925,-2.8612,0.0,-2.7507,-2.7052,-2.6407,-2.434,-2.322,-2.2678,-2.1171,-2.0566,-2.0566,-2.0566,-2.0566,-2.0566,-2.0566,-2.0273,-1.9834,-1.9424,-1.8994,-1.873,-1.916,-1.9902,-2.0459,-2.0029,-1.9446,-1.8602,-1.7257,-1.6071,-1.4977,-1.3872,-1.3641,-1.3641,-1.3641,-1.3407,-1.3113,-1.2876,-1.2498,-1.2305,-1.2298,-1.1804,-1.1073,-1.0239,-1.0384,-1.0121,-0.8948,-0.936,-0.8971,-0.7219,-0.6769,-0.6588,-0.6588,-0.5928,-0.5487,-0.5487,-0.4838,-0.4519,-0.4519,-0.4519,-0.4519,-0.4519,-0.4519,-0.4519,-0.4519,-0.4519,-0.4519,-2.314,-2.4363,-2.5246,-2.4871,-2.39,-2.2598,-2.1066,-1.979,-1.9181,-2.0196,-1.979,-1.9655,-2.0967,-2.108,-2.1009,-2.1177,-2.1407,0.0,0.0,0.0,0.0,-2.7436,-3.1693,-3.4603,0.0,0.0,-3.6054,-3.5569,-3.5504,-3.5504,-3.5504,-3.5504,-3.5359,-3.5052,-3.4773,-3.3837,-3.2177,-3.1829,-3.1057,-2.9792,-2.9792,-2.9792,-2.9792,-2.9792,-2.9691,-2.9503,-2.9101,-2.8825,-2.8599,-2.767,-2.7052,-2.6407,-2.434,-2.323,-2.2688,-2.1181,-2.0566,-2.0566,-2.0566,-2.0566,-2.0566,-2.0566,-2.0273,-1.9834,-1.9414,-1.9394,-1.9541,-1.9678,-1.9707,-1.9727,-1.9873,-1.9108,-1.8253,-1.8346,-1.6624,-1.5001,-1.5049,-1.4262,-1.3701,-1.3908,-1.3707,-1.3414,-1.3113,-1.2806,-1.2532,-1.2331,-1.1804,-1.1286,-1.1011,-1.0784,-1.0378,-0.9768,-0.9676,-0.9387,-0.8583,-0.8256,-0.8103,-0.8103,-0.6961,-0.6253,-0.6253,-0.5117,-0.4519,-0.4519,-0.4519,-0.4519,-0.4519,-0.4519,-0.4519,-0.4519,-0.4519,-0.4519,-2.0642,-2.1848,-2.2587,-2.2209,-2.1786,0.0,-1.9875,-1.9012,-1.8691,-1.9435,-1.9215,-1.9181,-2.0171,-2.0551,-2.0737,-2.0737,-2.1397,0.0,0.0,0.0,0.0,-2.9795,0.0,0.0,0.0,-3.6591,-3.6384,-3.5943,-3.5683,-3.5504,-3.5504,-3.5504,-3.5385,-3.513,-3.4999,-3.4192,-3.2607,-3.2249,-3.1341,-2.9792,-2.9792,-2.9792,-2.9792,-2.9792,-2.9792,-2.9767,-2.9176,-2.8925,0.0,-2.7733,-2.7103,-2.6617,-2.442,-2.3449,-2.316,-2.1301,-2.0674,-2.0791,-2.0625,-2.0566,-2.0566,-2.0566,-2.0273,-1.9863,-1.96,-1.9482,-1.9434,-1.9434,-1.9365,-1.9346,-1.9609,-1.9144,-1.8694,-1.8961,-1.7518,-1.6062,-1.5748,-1.4885,-1.4131,-1.4112,-1.3848,-1.3547,-1.326,-1.2953,-1.2721,-1.2345,-1.1897,-1.155,-1.1443,-1.1015,-1.0608,-1.0314,-0.9927,-0.9613,-0.9426,-0.9038,-0.8804,-0.8804,-0.767,-0.6912,-0.6588,-0.5496,-0.4732,-0.4519,-0.4519,-0.4519,-0.4519,-0.4519,-0.4519,-0.4519,-0.4519,-0.4519,0.0,-1.9773,-2.0771,-2.0018,-1.9833,-1.9647,-1.8978,0.0,0.0,-1.8741,-1.886,-1.8843,-1.8961,-1.9529,-2.0018,-2.0069,-2.0805,0.0,0.0,-2.4949,0.0,0.0,-3.4522,0.0,-3.665,-3.6667,-3.6614,-3.66,-3.5804,-3.54,-3.5504,-3.5459,-3.516,-3.4562,-3.4288,-3.3628,-3.254,-3.1621,-3.0742,-2.9806,-2.9768,-2.9691,-2.9729,-2.9691,-2.9679,0.0,-2.9101,-2.885,-2.8737,-2.7708,-2.7262,-2.7049,-2.4585,-2.3853,-2.3935,-2.1549,-2.0899,-2.1123,-2.0713,-2.0566,-2.0557,-2.0527,-2.0225,-1.9873,-1.9902,-1.9336,-1.8691,-1.865,-1.8994,-1.9297,-1.9326,-1.9619,-1.9792,-1.9261,-1.865,-1.7752,-1.6246,-1.5434,-1.4837,-1.4246,-1.3828,-1.3547,-1.326,-1.2953,-1.2721,-1.2345,-1.2058,-1.1764,-1.1463,-1.1176,-1.0875,-1.0624,-1.004,-0.9699,-0.9653,-0.9132,-0.8804,-0.8804,-0.8049,-0.7295,-0.6642,-0.5832,-0.512,-0.4519,-0.4519,-0.4519,-0.4519,-0.4519,-0.4519,-0.4519,-0.4519,-0.4519,-1.6272,0.0,-1.8555,-1.8346,-1.8312,-1.8262,0.0,0.0,0.0,0.0,0.0,0.0,0.0,-1.9883,-2.0187,-2.0822,-2.2006,-2.3004,-2.3342,-2.7621,0.0,-3.3711,-3.6969,-3.8421,-3.6849,-3.6738,-3.6738,-3.663,-3.4987,-3.4412,-3.5444,-3.4996,-3.4891,-3.525,-3.5204,-3.4222,-3.2259,-3.1362,-3.064,-3.0108,-2.8971,-2.8725,-2.9114,-2.8699,-2.8499,-2.8499,-2.836,-2.8059,-2.7657,-2.7394,-2.7288,-2.7125,-2.5373,-2.4494,-2.4051,-2.2289,-2.1292,-2.0703,-2.0605,-2.0566,-2.0508,-2.0176,-1.9775,-1.9492,-1.9814,-1.9551,-1.9199,-1.9521,-1.9453,-1.9365,-1.9687,-1.9844,-1.9944,-2.0139,-1.871,-1.7276,-1.7605,-1.5743,-1.4137,-1.477,-1.4165,-1.3547,-1.326,-1.2953,-1.2721,-1.2345,-1.2058,-1.1764,-1.1463,-1.1176,-1.0795,-1.0274,-1.0094,-0.9833,-0.9385,-0.9011,-0.8804,-0.8804,-0.7563,-0.6804,-0.6588,-0.5526,-0.4748,-0.4519,-0.4519,-0.4519,-0.4519,-0.4519,-0.4519,-0.4519,-0.4519,-0.4519,-1.6001,-1.7185,-1.8217,-1.7873,-1.8065,-1.8302,-1.8302,0.0,0.0,0.0,0.0,0.0,0.0,0.0,0.0,-2.1085,-2.2429,0.0,0.0,0.0,-3.2713,-3.525,-3.733,-3.8351,0.0,-3.689,-3.6246,-3.6169,-3.479,-3.4128,-3.4562,-3.4517,-3.4367,-3.4143,-3.4128,-3.3731,-3.3005,-3.2525,-3.1585,-3.0263,-2.9541,-2.8928,-2.8536,-2.8247,-2.8109,-2.8097,-2.7833,-2.7557,-2.7268,-2.7005,-2.6748,-2.6395,-2.5433,-2.4788,-2.4347,-2.2659,-2.1793,-2.1504,-2.0858,-2.0439,-2.0225,-1.999,-1.9756,-1.9619,-1.9844,-1.9893,-1.9883,-1.9902,-1.9609,-1.9385,-1.9805,-1.9912,-1.9971,-2.0215,-1.9146,-1.7845,-1.7456,-1.5862,-1.4474,-1.4458,-1.3851,-1.3394,-1.324,-1.2953,-1.2721,-1.2345,-1.2171,-1.1911,-1.1483,-1.1289,-1.0969,-1.0381,-1.02,-0.9933,-0.9486,-0.9172,-0.8784,-0.8328,-0.7235,-0.6421,-0.6091,-0.5506,-0.4991,-0.4625,-0.4553,-0.4519,-0.4519,-0.4519,-0.4519,-0.4519,-0.4519,-0.4519,-1.6557,-1.789,-1.886,-1.8014,-1.8352,-1.8894,-1.8894,0.0,0.0,0.0,0.0,0.0,0.0,-1.9773,0.0,0.0,0.0,0.0,-2.9127,-3.0835,-3.2865,-3.6062,-3.6738,0.0,-3.8379,-3.6692,-3.5582,-3.5694,-3.4662,-3.3873,-3.3514,-3.3918,-3.3709,-3.2706,-3.2662,-3.3055,-3.3941,-3.3619,-3.2481,-3.0499,-3.0135,-2.9327,-2.8176,-2.7956,-2.7858,-2.7821,-2.7356,0.0,-2.7118,-2.6722,-2.6214,-2.5683,-2.5326,-2.509,-2.4657,-2.3069,-2.2507,-2.2408,-2.0994,-2.0252,-2.0039,-1.9968,-1.9824,-1.9756,-1.9951,-2.0225,-2.041,-2.0098,-1.9756,-1.957,-1.9922,-1.9961,-1.9912,-1.9912,-1.9393,-1.8505,-1.6897,-1.5906,-1.5142,-1.4266,-1.3618,-1.3218,-1.329,-1.3033,-1.2592,-1.2338,-1.2305,-1.2091,-1.1503,-1.1423,-1.1202,-1.0685,-1.0334,-1.0047,-0.9713,-0.9332,-0.8711,-0.7741,-0.702,-0.6232,-0.546,-0.5531,-0.5331,-0.4724,-0.4575,-0.4539,-0.4519,-0.4519,-0.4519,-0.4519,-0.4519,-0.4519,-1.6818,-1.8398,-1.9495,-1.8126,-1.8352,-1.8894,0.0,0.0,0.0,0.0,0.0,0.0,0.0,-2.0923,-2.1448,0.0,0.0,-2.845,0.0,0.0,-3.4201,-3.4776,0.0,-3.7313,-3.6248,-3.5349,-3.5107,-3.5662,-3.3356,-3.2422,-3.344,-3.3066,-3.2976,-3.3335,-3.335,-3.3423,-3.3583,-3.1766,-3.0936,-3.097,-2.9025,-2.8195,-2.8412,-2.724,-2.6716,-2.6703,0.0,-2.6647,-2.6647,-2.6559,-2.6433,-2.6357,-2.627,-2.5761,-2.4931,-2.4622,-2.3497,-2.1928,-2.0526,-2.031,-2.0576,-2.0083,-1.9424,-1.9033,-2.0137,-2.0254,-2.0078,-2.0381,-2.042,-2.0381,-2.0449,-2.0195,-1.9912,-1.9912,-1.8701,-1.7641,-1.8142,-1.6255,-1.4785,-1.6226,-1.4494,-1.3119,-1.3943,-1.3084,-1.2351,-1.2311,-1.2305,-1.2091,-1.1503,-1.1423,-1.1202,-1.0685,-1.0521,-1.0274,-0.9733,-0.9105,-0.8405,-0.7753,-0.702,-0.609,-0.5012,-0.4921,-0.4869,-0.488,-0.4731,-0.4592,-0.4519,-0.4519,-0.4519,-0.4519,-0.4519,-0.4519,-1.6232,-1.7616,-1.8633,-1.798,-1.8978,-2.0027,0.0,0.0,0.0,0.0,0.0,0.0,0.0,0.0,-2.2665,-2.5355,0.0,-2.9465,-3.2391,-3.3085,-3.3744,0.0,0.0,-3.6113,-3.6231,-3.4939,-3.4206,-3.4526,-3.3003,-3.2168,-3.2422,-3.2482,-3.2317,-3.1884,-3.1884,-3.1719,-3.139,-3.0406,-3.0102,-3.0481,-2.9416,-2.8425,-2.74,-2.6759,-2.6533,-2.6533,0.0,-2.6533,-2.6533,-2.6533,-2.6533,-2.6533,-2.6533,-2.6245,-2.5697,-2.4835,-2.3807,-2.2594,-2.0875,-2.0504,-2.0655,-1.9869,-1.915,-1.8789,-1.9619,-1.9736,-1.9619,-1.9824,-2.0215,-2.0566,-2.0566,-2.0244,-1.9853,-1.9629,-1.872,-1.7849,-1.7614,-1.6484,-1.5605,-1.6178,-1.4673,-1.3518,-1.4059,-1.3163,-1.2305,-1.2305,-1.2171,-1.1911,-1.1483,-1.1289,-1.1029,-1.0672,-1.0624,-1.0383,-0.9733,-0.9382,-0.8441,-0.6603,-0.6199,-0.5617,-0.4845,-0.465,-0.464,-0.4792,-0.4646,-0.4587,-0.4519,-0.4519,-0.4519,-0.4519,-0.4519,-0.4519,-1.5992,-1.7024,-1.7811,-1.7811,0.0,0.0,0.0,0.0,0.0,0.0,0.0,0.0,0.0,-2.276,0.0,-2.7809,-2.9244,-3.0704,-3.2934,-3.3134,-3.3694,-3.5419,-3.5115,-3.5216,-3.6383,-3.4741,-3.3544,-3.3393,-3.2554,-3.1772,-3.1106,-3.1554,-3.1345,-3.0313,-3.0283,-3.0058,-2.9579,-2.9579,-2.9721,-2.991,-2.9519,-2.8471,-2.6835,-2.6455,-2.6395,-2.6533,-2.6533,-2.6533,-2.6533,-2.6533,-2.6533,-2.6533,-2.6533,-2.6533,-2.6333,-2.4912,-2.4073,-2.344,-2.1375,-2.061,-2.0456,-1.9481,-1.8838,-1.8584,-1.9121,-1.9219,-1.916,-1.9258,-1.9756,-2.0264,-2.0264,-1.9941,-1.9531,-1.9209,-1.8809,-1.818,-1.7135,-1.6775,-1.6438,-1.5944,-1.4704,-1.3755,-1.4007,-1.3107,-1.2305,-1.2305,-1.2058,-1.1764,-1.1463,-1.1176,-1.0855,-1.0494,-1.0454,-1.0221,-0.9633,-0.9519,-0.8477,-0.6159,-0.5706,-0.5242,-0.4742,-0.4579,-0.4572,-0.4687,-0.4575,-0.4553,-0.4519,-0.4519,-0.4519,-0.4519,-0.4519,-0.4519,-1.687,-1.7544,-1.7811,-1.7811,-1.8437,0.0,-2.1684,-2.2113,0.0,-2.5346,0.0,0.0,0.0,-2.5501,-2.6894,-2.9598,-3.1533,-3.3498,-3.5762,0.0,-3.5436,-3.5605,-3.5571,-3.5571,-3.569,-3.4376,-3.3257,-3.2721,-3.1428,-3.0409,-2.9768,-2.9759,-2.9744,-2.9654,-2.9639,-2.9624,-2.9579,-2.9579,-2.9585,-2.961,-2.8108,-2.7542,-2.7851,-2.6349,-2.595,-2.6533,-2.6533,-2.6533,-2.6533,-2.6533,-2.6533,-2.6533,-2.6533,-2.6533,-2.6371,-2.5322,-2.4648,-2.3942,-2.1609,-2.054,-1.9965,-1.8953,-1.8398,-1.8203,-1.9033,-1.9004,-1.8769,-1.918,-1.9336,-1.9375,-1.9375,-1.9053,-1.8721,-1.8691,-1.8359,-1.8047,-1.794,-1.7217,-1.6576,-1.6533,-1.5029,-1.368,-1.3702,-1.2966,-1.2305,-1.2305,-1.2058,-1.1764,-1.1463,-1.1176,-1.0775,-1.0207,-1.0147,-0.9907,-0.9263,-0.9025,-0.8472,-0.7616,-0.6249,-0.5242,-0.4742,-0.468,-0.468,-0.4691,-0.468,-0.4606,-0.4519,-0.4519,-0.4519,-0.4519,-0.4519,-0.4519,-1.574,-1.6816,-1.7912,-1.8369,-1.9046,0.0,0.0,-2.2665,-2.3867,-2.4648,-2.5959,0.0,0.0,0.0,-2.8071,-3.0504,-3.2297,-3.3735,-3.4822,-3.5225,-3.5095,-3.4346,-3.4235,-3.4235,-3.4235,-3.3361,-3.2725,-3.2476,-3.1614,-3.0592,-2.9613,-2.9929,-2.9438,-2.7805,-2.8113,-2.8143,-2.7724,-2.7724,-2.7713,-2.7691,-2.737,-2.7209,-2.7157,-2.6089,-2.5912,-2.6533,-2.6533,-2.6533,-2.6533,-2.6533,-2.6533,-2.6496,-2.6063,-2.5925,-2.5837,-2.4752,-2.4105,-2.3589,-2.2027,-2.1229,-2.0673,-1.9453,-1.892,-1.8782,-1.8527,-1.8379,-1.8281,-1.8447,-1.8496,-1.8613,-1.915,-1.8965,-1.8562,-1.8562,-1.832,-1.8008,-1.8008,-1.7285,-1.6636,-1.6636,-1.5013,-1.389,-1.4522,-1.331,-1.2458,-1.2835,-1.2129,-1.1483,-1.1196,-1.0902,-1.0568,-1.016,-0.9786,-0.9552,-0.9519,-0.9078,-0.8558,-0.8062,-0.6877,-0.5905,-0.5206,-0.4769,-0.4548,-0.4548,-0.4548,-0.4577,-0.4519,-0.4519,-0.4519,-0.4519,-0.4519,-0.4519,-1.5247,-1.6384,-1.7693,-1.8657,0.0,0.0,-2.1848,-2.3625,-2.5261,-2.5971,-2.6979,-2.7862,-2.8246,0.0,0.0,0.0,-3.2741,-3.3933,-3.4274,-3.4658,-3.4536,-3.3499,-3.3406,-3.3406,-3.3406,-3.257,-3.1924,-3.1748,-3.0706,-2.9642,-2.8589,-2.8812,-2.8149,-2.6318,-2.6722,-2.6737,-2.6288,-2.6273,-2.6243,-2.6208,-2.6274,-2.6267,-2.6185,-2.5447,-2.5485,-2.6189,-2.6189,-2.6289,-2.6508,-2.6264,-2.6088,-2.59,-2.5511,-2.536,-2.5259,-2.4186,-2.3575,-2.309,-2.211,-2.1274,-2.0643,-1.9921,-1.9365,-1.8854,-1.8529,-1.8202,-1.8008,-1.8008,-1.8008,-1.8144,-1.873,-1.8662,-1.8437,-1.8437,-1.8223,-1.8008,-1.8008,-1.7501,-1.6922,-1.6636,-1.5508,-1.4728,-1.5163,-1.381,-1.2846,-1.3242,-1.2234,-1.1323,-1.1029,-1.0661,-1.0274,-0.988,-0.9399,-0.9185,-0.9392,-0.9038,-0.8564,-0.8086,-0.7111,-0.6258,-0.5538,-0.4838,-0.4519,-0.4519,-0.4519,-0.4519,-0.4519,-0.4519,-0.4519,-0.4519,-0.4519,-0.4519,-1.5779,-1.6454,-1.7071,0.0,0.0,0.0,-2.3658,-2.5216,-2.7174,-3.0268,-2.961,-2.8608,-2.8947,-2.8725,0.0,-3.1084,-3.3009,-3.4401,-3.4729,-3.4381,-3.3911,-3.3414,-3.3372,-3.3372,-3.3372,-3.2036,-3.0942,-3.0318,-2.8417,-2.7042,-2.6406,-2.5909,-2.56,-2.5585,-2.56,-2.56,-2.56,-2.56,-2.5564,-2.5466,-2.4777,-2.4666,-2.509,-2.4351,-2.4582,-2.5586,-2.5586,-2.5912,-2.6471,-2.5824,-2.5285,-2.482,-2.4808,-2.4808,-2.4678,-2.3833,-2.3168,-2.2586,-2.1715,-2.0467,-1.9497,-2.0333,-1.9431,-1.8202,-1.9044,-1.8654,-1.8008,-1.8008,-1.8008,-1.8008,-1.7998,-1.7998,-1.7998,-1.8008,-1.8008,-1.8008,-1.8008,-1.8008,-1.7716,-1.6775,-1.6558,-1.628,-1.5367,-1.4378,-1.3626,-1.3304,-1.2227,-1.1316,-1.1022,-1.0474,-0.9886,-0.9243,-0.8978,-0.8804,-0.8811,-0.8804,-0.848,-0.7729,-0.702,-0.6258,-0.5538,-0.4838,-0.4519,-0.4519,-0.4519,-0.4519,-0.4519,-0.4519,-0.4519,-0.4519,-0.4519,-0.4519,-1.6415,-1.7315,0.0,-1.9965,0.0,0.0,0.0,-2.5604,0.0,0.0,-2.9359,-2.907,-2.9709,-2.9295,0.0,-3.1127,-3.2363,-3.3237,-3.362,-3.3308,-3.2669,-3.1627,-3.0793,-3.0294,-3.0294,-2.9905,-2.9597,-2.9374,-2.8841,-2.7865,-2.6427,-2.6619,-2.6001,-2.4267,-2.4672,-2.4881,-2.4881,-2.4881,-2.482,-2.471,-2.4498,-2.4666,-2.509,-2.4351,-2.4381,-2.5059,-2.5059,-2.5146,-2.5297,-2.5121,-2.4958,-2.4782,-2.4393,-2.4243,-2.4129,-2.3455,-2.2748,-2.2178,-2.249,-2.1934,-2.1037,-2.0719,-2.0268,-1.9628,-1.8654,-1.8202,-1.7949,-1.7656,-1.7568,-1.75,-1.7187,-1.7109,-1.7266,-1.7861,-1.8008,-1.8008,-1.8008,-1.7501,-1.6922,-1.6636,-1.5782,-1.5051,-1.4844,-1.3956,-1.3152,-1.2728,-1.1952,-1.1169,-1.0468,-1.0047,-0.9666,-0.9223,-0.8978,-0.8891,-0.9044,-0.8925,-0.8571,-0.8098,-0.7111,-0.6258,-0.5538,-0.4838,-0.4519,-0.4519,-0.4519,-0.4519,-0.4519,-0.4519,-0.4519,-0.4519,-0.4519,-0.4519,-1.642,-1.7609,0.0,-2.0559,-2.2286,-2.4106,-2.5901,0.0,0.0,0.0,-2.9582,-2.9255,-3.0063,-2.9549,0.0,-3.0705,-3.1604,-3.2153,-3.2249,-3.1898,-3.1291,-3.0352,-2.952,-2.9011,-2.9011,-2.8704,-2.8518,-2.8518,-2.7765,-2.68,-2.5538,-2.5354,-2.4574,-2.2903,-2.3505,-2.3849,-2.3849,-2.4103,-2.4151,-2.4049,-2.4287,-2.4395,-2.4347,-2.3905,-2.3966,-2.4506,-2.472,-2.4695,-2.4494,-2.4494,-2.4356,-2.4117,-2.3791,-2.3653,-2.3553,-2.2886,-2.2506,-2.2384,-2.2567,-2.2177,-2.1434,-2.0989,-2.0362,-1.9565,-1.8373,-1.7873,-1.7676,-1.7246,-1.7119,-1.7061,-1.6743,-1.6665,-1.6855,-1.7383,-1.75,-1.75,-1.75,-1.7016,-1.6654,-1.6654,-1.5918,-1.5283,-1.5074,-1.4142,-1.3351,-1.293,-1.213,-1.1182,-1.01,-0.9793,-0.9526,-0.9112,-0.8911,-0.8878,-0.9051,-0.8631,-0.8117,-0.7616,-0.6708,-0.5819,-0.5109,-0.4736,-0.4519,-0.4519,-0.4519,-0.4519,-0.4519,-0.4519,-0.4519,-0.4519,-0.4519,-0.4519,-1.6243,-1.761,0.0,-2.067,-2.3095,0.0,-2.6457,-2.8411,-3.0191,-3.0907,0.0,-2.9329,-2.9971,-2.9494,-2.925,-3.0081,-3.0797,-3.1166,-3.0838,-3.0404,-2.9937,-2.9451,-2.904,-2.8738,-2.8687,-2.8044,-2.7553,-2.7485,-2.5796,-2.4568,-2.4104,-2.3001,-2.2179,-2.1695,-2.2278,-2.2634,-2.2634,-2.3206,-2.3481,-2.3416,-2.4046,-2.3937,-2.3218,-2.3191,-2.3487,-2.3954,-2.4443,-2.4381,-2.3916,-2.3916,-2.3602,-2.3078,-2.3078,-2.3078,-2.3017,-2.2261,-2.2445,-2.3017,-2.2261,-2.1582,-2.1009,-2.1081,-1.9879,-1.8406,-1.7998,-1.762,-1.7227,-1.6797,-1.667,-1.667,-1.6558,-1.6548,-1.6548,-1.6548,-1.6607,-1.6665,-1.6665,-1.6665,-1.6665,-1.6665,-1.6699,-1.6408,-1.5597,-1.475,-1.3973,-1.3482,-1.243,-1.1138,-0.9829,-0.9646,-0.9426,-0.8864,-0.8804,-0.8752,-0.8699,-0.8103,-0.7343,-0.6529,-0.5869,-0.5218,-0.4515,-0.4519,-0.4519,-0.4519,-0.4519,-0.4519,-0.4519,-0.4519,-0.4519,-0.4519,-0.4519,-0.4519,-1.745,-1.8175,0.0,0.0,-2.4419,-2.6454,-2.7325,-2.7934,-2.8356,-2.8539,-2.9292,-2.9806,-2.9347,-2.9104,-2.925,-3.0081,-3.0356,-3.0545,-3.0839,-2.9998,-2.9158,-2.8769,-2.7827,-2.6962,-2.6387,-2.6184,-2.5845,-2.5236,-2.4818,-2.4199,-2.3362,-2.3092,-2.254,-2.1734,-2.1829,-2.1904,-2.1904,-2.2547,-2.2833,-2.2712,-2.2895,-2.2855,-2.264,-2.3576,-2.3785,-2.3326,-2.3452,-2.3366,-2.3265,-2.3265,-2.3251,-2.3078,-2.3078,-2.3078,-2.3078,-2.2884,-2.2944,-2.3078,-2.2884,-2.2092,-2.1021,-2.0404,-1.9225,-1.7998,-1.7179,-1.6914,-1.6777,-1.6338,-1.6211,-1.6123,-1.5781,-1.5693,-1.5693,-1.5693,-1.623,-1.6665,-1.6665,-1.6665,-1.6665,-1.6665,-1.6445,-1.5946,-1.5184,-1.4738,-1.4042,-1.2422,-1.1178,-1.0173,-0.9406,-0.9339,-0.9198,-0.8844,-0.8804,-0.8586,-0.799,-0.7777,-0.7122,-0.5814,-0.5597,-0.5218,-0.4515,-0.4519,-0.4519,-0.4519,-0.4519,-0.4519,-0.4519,-0.4519,-0.4519,-0.4519,-0.4519,-0.4519,-1.7266,0.0,0.0,-2.3363,0.0,-2.6245,-2.7034,-2.7236,-2.7236,-2.7236,-2.7897,-2.8356,-2.7934,-2.8172,-2.8558,-2.898,-2.9053,-2.9153,-2.9387,-2.8246,-2.7293,-2.7093,-2.6241,-2.549,-2.5101,-2.5067,-2.4898,-2.454,-2.4154,-2.3579,-2.2659,-2.2287,-2.1698,-2.0775,-2.1051,-2.1231,-2.1231,-2.1874,-2.2352,-2.2586,-2.2913,-2.3021,-2.2976,-2.2949,-2.2738,-2.2347,-2.2347,-2.2498,-2.2723,-2.2447,-2.2661,-2.3053,-2.2849,-2.284,-2.3078,-2.3078,-2.3078,-2.3027,-2.2836,-2.1991,-2.0878,-1.9661,-1.8654,-1.7667,-1.6455,-1.625,-1.6318,-1.5879,-1.5752,-1.5693,-1.5469,-1.541,-1.541,-1.541,-1.5762,-1.6103,-1.6103,-1.6103,-1.6103,-1.6103,-1.5908,-1.5504,-1.4702,-1.4065,-1.3201,-1.1798,-1.0966,-1.0198,-0.9292,-0.9183,-0.907,-0.8838,-0.8804,-0.848,-0.7777,-0.7396,-0.6691,-0.5592,-0.5218,-0.4842,-0.4519,-0.4519,-0.4519,-0.4519,-0.4519,-0.4519,-0.4519,-0.4519,-0.4519,-0.4519,-0.4519,-0.4519,-1.7109,0.0,-2.1418,-2.4263,-2.509,0.0,-2.6209,-2.6392,-2.6355,-2.6209,-2.641,-2.6612,-2.6612,-2.7145,-2.7585,-2.7585,-2.7585,-2.7563,-2.75,-2.6339,-2.5482,-2.5429,-2.4873,-2.4455,-2.4337,-2.432,-2.4269,-2.412,-2.3545,-2.2859,-2.207,-2.1376,-2.0632,-1.9854,-2.0265,-2.0543,-2.0543,-2.1201,-2.1799,-2.2338,-2.2844,-2.3069,-2.293,-2.1727,-2.1305,-2.1493,-2.1493,-2.1744,-2.2133,-2.1681,-2.202,-2.2811,-2.2347,-2.251,-2.2975,-2.2887,-2.2852,-2.2912,-2.2359,-2.155,-2.0535,-1.8999,-1.8082,-1.7295,-1.5861,-1.5664,-1.5879,-1.5508,-1.541,-1.541,-1.541,-1.541,-1.541,-1.541,-1.541,-1.541,-1.541,-1.541,-1.5391,-1.5312,-1.5244,-1.4975,-1.4273,-1.32,-1.2175,-1.129,-1.0825,-1.0263,-0.9254,-0.911,-0.9017,-0.8831,-0.8699,-0.8315,-0.7557,-0.6858,-0.6095,-0.5378,-0.4787,-0.4519,-0.4519,-0.4519,-0.4519,-0.4519,-0.4519,-0.4519,-0.4519,-0.4519,-0.4519,-0.4519,-0.4519,-0.4522,0.0,0.0,-2.1896,0.0,-2.3841,-2.4557,0.0,0.0,-2.5346,0.0,-2.564,-2.6612,-2.6612,-2.6686,-2.6759,-2.6759,-2.6759,-2.6633,-2.6289,-2.5808,-2.5376,-2.5101,-2.4731,-2.4269,-2.3596,-2.3545,-2.3274,-2.2649,-2.2513,-2.2212,-2.1699,-2.123,-2.0764,-2.0261,-1.9965,-1.9824,-1.9824,-2.0498,-2.0887,-2.0953,-2.1098,-2.0877,-2.0307,-2.0105,-2.0564,-2.1493,-2.1493,-2.1531,-2.1594,-2.1518,-2.1581,-2.1707,-2.1631,-2.1933,-2.2359,-2.1882,-2.2008,-2.2347,-2.1794,-2.0822,-1.9657,-1.8783,-1.7693,-1.6535,-1.5672,-1.5449,-1.5488,-1.543,-1.541,-1.541,-1.541,-1.541,-1.541,-1.541,-1.541,-1.541,-1.541,-1.541,-1.5303,-1.4941,-1.4561,-1.4196,-1.3882,-1.2794,-1.1703,-1.0747,-0.9916,-0.9302,-0.8905,-0.8864,-0.8851,-0.8811,-0.8209,-0.7563,-0.6804,-0.6091,-0.5382,-0.468,-0.4574,-0.4519,-0.4519,-0.4519,-0.4519,-0.4519,-0.4519,-0.4519,-0.4519,-0.4519,-0.4519,-0.4519,-0.4473,-0.4477,-1.9156,-1.9586,-2.0023,0.0,-2.1877,-2.2483,-2.3768,-2.4061,-2.408,-2.4171,-2.4759,-2.5254,-2.5254,-2.5621,-2.5933,-2.5933,-2.5933,-2.5873,-2.5688,-2.4987,-2.4379,-2.4032,-2.369,-2.33,-2.2846,-2.2784,-2.2649,-2.2327,-2.231,-2.2106,-2.1628,-2.143,-2.1007,-2.0314,-2.0124,-1.9945,-1.969,-1.9989,-2.0333,-2.0684,-2.0737,-2.0448,-1.9836,-1.9525,-1.9787,-2.0539,-2.0539,-2.0727,-2.1004,-2.0677,-2.0916,-2.1455,-2.1154,-2.1368,-2.182,-2.1581,-2.1644,-2.1769,-2.1217,-2.0545,-1.98,-1.8876,-1.8115,-1.7334,-1.6337,-1.6036,-1.5921,-1.5526,-1.541,-1.541,-1.541,-1.541,-1.541,-1.541,-1.5234,-1.5059,-1.5059,-1.5059,-1.4932,-1.4502,-1.3933,-1.3532,-1.3433,-1.2121,-1.0958,-1.0539,-0.9627,-0.8951,-0.8824,-0.8804,-0.8646,-0.8209,-0.7883,-0.723,-0.6091,-0.5706,-0.5218,-0.4519,-0.4519,-0.4519,-0.4519,-0.4519,-0.4519,-0.4519,-0.4519,-0.4519,-0.4519,-0.4519,-0.4522,-0.4473,-0.4477,-0.4027,0.0,0.0,-1.8647,-1.9641,-2.0026,-2.0592,0.0,0.0,-2.2923,0.0,-2.41,-2.4247,-2.4209,-2.4685,-2.5109,-2.5109,-2.5109,-2.5109,-2.5109,-2.4281,-2.3566,-2.3236,-2.2898,-2.2599,-2.2338,-2.231,-2.231,-2.231,-2.231,-2.2152,-2.1794,-2.1568,-2.1134,-2.0516,-2.0246,-2.0,-1.969,-1.969,-1.9944,-2.0415,-2.0327,-2.0007,-1.9637,-1.9046,-1.899,-1.9397,-1.9397,-1.9723,-2.0213,-1.9786,-2.0175,-2.1016,-2.0602,-2.079,-2.1267,-2.1104,-2.1154,-2.1204,-2.0639,-2.0311,-1.9929,-1.903,-1.8542,-1.8171,-1.6871,-1.6492,-1.6379,-1.5584,-1.541,-1.5391,-1.5283,-1.5254,-1.5225,-1.5117,-1.4844,-1.4619,-1.4619,-1.4531,-1.4394,-1.418,-1.3522,-1.2984,-1.2744,-1.1527,-1.0447,-1.0134,-0.9358,-0.8804,-0.8804,-0.8804,-0.8593,-0.8049,-0.783,-0.7176,-0.5869,-0.5597,-0.5218,-0.4519,-0.4519,-0.4519,-0.4519,-0.4519,-0.4519,-0.4519,-0.4519,-0.4519,-0.4519,-0.4519,-0.4522,-0.448,-0.4082,-0.3522,0.0,-1.8684,0.0,-1.839,-1.8794,0.0,0.0,0.0,-2.2079,-2.2905,-2.3821,-2.4428,-2.4247,-2.4226,-2.4263,-2.4263,-2.4263,-2.4263,-2.4263,-2.3953,-2.3566,-2.3236,-2.2898,-2.2599,-2.2338,-2.231,-2.231,-2.231,-2.231,-2.2282,-2.2254,-2.1493,-2.0991,-2.0959,-2.0139,-1.9711,-1.969,-1.969,-1.9705,-1.975,-1.9254,-1.8962,-1.8947,-1.8468,-1.8276,-1.8292,-1.8292,-1.8606,-1.912,-1.9033,-1.9397,-1.9886,-1.9861,-2.02,-2.0639,-2.0087,-2.0238,-2.068,-2.0037,-1.9809,-1.9718,-1.8951,-1.8673,-1.8429,-1.6933,-1.6492,-1.6379,-1.5584,-1.541,-1.5322,-1.4922,-1.4814,-1.4717,-1.4243,-1.4136,-1.4116,-1.4116,-1.3857,-1.3682,-1.4009,-1.3435,-1.265,-1.1756,-1.1137,-1.0344,-0.9088,-0.8818,-0.8804,-0.8804,-0.8804,-0.8804,-0.8752,-0.8103,-0.7396,-0.6588,-0.5928,-0.5218,-0.4519,-0.4519,-0.4519,-0.4519,-0.4519,-0.4519,-0.4519,-0.4519,-0.4519,-0.4519,-0.4519,-0.4522,-0.4477,-0.3014,-0.3077,0.0,0.0,0.0,-1.8363,-1.8122,-1.8308,-1.9615,-2.0152,-2.0615,-2.143,-2.2349,-2.2997,-2.294,-2.3737,-2.4339,-2.4228,-2.419,-2.419,-2.419,-2.4094,-2.3896,-2.3566,-2.281,-2.2373,-2.2538,-2.1513,-2.1218,-2.2243,-2.1854,-2.1583,-2.1583,-2.1752,-2.1341,-2.0336,-2.0445,-2.0277,-1.9726,-1.969,-1.969,-1.969,-1.9515,-1.9224,-1.8874,-1.8371,-1.7945,-1.7614,-1.7245,-1.7639,-1.8505,-1.8505,-1.8819,-1.9309,-1.9309,-1.9635,-2.0087,-1.9874,-1.9936,-2.0075,-1.9874,-1.9798,-1.9697,-1.9092,-1.9152,-1.9141,-1.7785,-1.7321,-1.7135,-1.6912,-1.5925,-1.5084,-1.5395,-1.4934,-1.4258,-1.3838,-1.373,-1.3652,-1.3389,-1.3418,-1.3477,-1.335,-1.2351,-1.1427,-1.1089,-1.0192,-0.9361,-0.8857,-0.8804,-0.8804,-0.8804,-0.8804,-0.8646,-0.8156,-0.783,-0.7396,-0.6642,-0.5923,-0.5378,-0.5164,-0.4732,-0.4519,-0.4519,-0.4519,-0.4519,-0.4519,-0.4519,-0.4522,-0.4473,-0.4473,-0.4484,-0.4501,-0.3934,-0.2916,-1.8647,0.0,0.0,0.0,-1.8029,-1.794,-1.897,-1.9186,-1.9503,-2.0569,-2.1344,-2.1902,-2.2139,-2.3088,-2.3749,-2.3558,-2.349,-2.3455,-2.3455,-2.3419,-2.327,-2.2919,-2.2264,-2.1861,-2.1923,-2.0847,-2.0637,-2.1837,-2.1228,-2.1025,-2.1532,-2.1312,-2.0659,-1.9531,-1.9969,-2.0045,-1.9711,-1.969,-1.969,-1.969,-1.953,-1.9169,-1.8612,-1.8066,-1.7544,-1.6993,-1.6637,-1.7049,-1.7928,-1.7928,-1.8254,-1.8769,-1.8908,-1.9233,-1.956,-1.9736,-1.9798,-1.9773,-1.9597,-1.9547,-1.9484,-1.9145,-1.9133,-1.9108,-1.841,-1.7827,-1.7429,-1.7342,-1.6288,-1.5262,-1.5616,-1.4821,-1.388,-1.341,-1.3301,-1.3223,-1.2939,-1.3096,-1.3153,-1.2616,-1.1783,-1.1015,-1.0517,-0.9718,-0.9061,-0.8857,-0.8804,-0.8804,-0.8804,-0.8804,-0.8593,-0.8103,-0.8049,-0.767,-0.6696,-0.6145,-0.5651,-0.5218,-0.4732,-0.4519,-0.4519,-0.4519,-0.4519,-0.4519,-0.4519,-0.4522,-0.448,-0.448,-0.449,-0.4514,-0.4514,-0.2865,0.0,0.0,0.0,0.0,-1.8523,-1.8572,-1.8441,-1.8416,-1.8852,-2.0392,-2.0872,-2.1249,-2.1958,-2.223,-2.2308,-2.2173,-2.2054,-2.2009,-2.2009,-2.1867,-2.1679,-2.1348,-2.1291,-2.1036,-2.046,-2.0373,-2.0563,-2.1102,-2.0433,-2.061,-2.2124,-2.0115,-1.8856,-1.874,-1.8717,-1.9031,-1.9675,-1.969,-1.969,-1.969,-1.9169,-1.865,-1.8145,-1.7585,-1.7034,-1.6552,-1.6522,-1.6835,-1.735,-1.735,-1.7689,-1.8242,-1.8769,-1.8933,-1.907,-1.9572,-1.9748,-1.9685,-1.9183,-1.8958,-1.8945,-1.8933,-1.8631,-1.8248,-1.8566,-1.7954,-1.7055,-1.6893,-1.6421,-1.5881,-1.5381,-1.4525,-1.3637,-1.3065,-1.2881,-1.2881,-1.2881,-1.2881,-1.2666,-1.1922,-1.1765,-1.1366,-1.0012,-0.9762,-0.9562,-0.891,-0.8804,-0.8804,-0.8804,-0.8804,-0.8804,-0.8804,-0.8804,-0.8209,-0.6804,-0.6642,-0.6046,-0.4625,-0.4515,-0.4519,-0.4519,-0.4519,-0.4519,-0.4519,-0.4519,-0.4522,-0.448,-0.4477,-0.4432,-0.4343,-0.4396,-0.2805,-1.9657,0.0,0.0,0.0,0.0,0.0,-1.8697,-1.8688,-1.865,-1.8506,-1.9068,-1.9645,-1.9858,-1.9424,-1.9413,-2.0623,-2.15,-2.2009,-2.2009,-2.1867,-2.1768,-2.1661,-2.0971,-2.0564,-2.0749,-1.9582,-1.923,0.0,-1.9638,-1.9384,-1.9824,-1.9214,-1.9053,-1.9547,-1.9463,-1.9495,-1.969,-1.969,-1.969,-1.969,-1.9566,-1.9406,-1.9244,-1.8302,-1.7787,-1.7626,-1.6837,-1.6609,-1.676,-1.676,-1.7087,-1.7626,-1.7777,-1.8078,-1.8455,-1.8593,-1.8643,-1.8631,-1.848,-1.843,-1.8367,-1.7965,-1.8003,-1.8131,-1.783,-1.7448,-1.7193,-1.7666,-1.6711,-1.5322,-1.4456,-1.4005,-1.3637,-1.3065,-1.2881,-1.2881,-1.2881,-1.2881,-1.2666,-1.1922,-1.1416,-1.0813,-0.9969,-0.9413,-0.9008,-0.8804,-0.8804,-0.8804,-0.8804,-0.8804,-0.8804,-0.8804,-0.8804,-0.8646,-0.8209,-0.7235,-0.6426,-0.6041,-0.5066,-0.4519,-0.4519,-0.4519,-0.4519,-0.4519,-0.4519,-0.4522,-0.448,-0.3405,-0.2289,-0.1229,-0.1256,-0.0821,0.0,0.0,0.0,-1.9993,0.0,0.0,-1.9315,-1.9038,-1.8675,-1.8209,-1.8278,-1.8409,-1.8446,-1.8049,-1.8138,-1.9523,-1.996,-2.037,-2.1072,-2.0997,-2.0886,-2.0886,-2.0268,-1.9884,-2.0075,-1.9056,-1.8753,-1.9645,-1.8931,-1.839,-1.8255,-1.8335,-1.854,-1.8821,-1.8842,-1.9001,-1.9271,-1.9555,-1.969,-1.969,-1.969,-1.9479,-1.9006,-1.838,-1.7867,-1.7394,-1.6752,-1.6522,-1.6522,-1.6522,-1.6722,-1.7049,-1.7287,-1.7576,-1.789,-1.8129,-1.8204,-1.8179,-1.794,-1.7865,-1.7802,-1.7488,-1.7438,-1.7526,-1.7677,-1.7313,-1.6995,-1.7684,-1.6713,-1.5232,-1.4395,-1.4003,-1.3637,-1.3065,-1.2881,-1.2881,-1.2881,-1.2881,-1.2666,-1.1922,-1.1466,-1.0914,-0.9969,-0.9458,-0.9106,-0.8857,-0.8804,-0.8804,-0.8804,-0.8804,-0.8804,-0.8804,-0.8804,-0.8699,-0.8374,-0.7289,-0.6475,-0.6145,-0.5117,-0.4519,-0.4519,-0.4519,-0.4519,-0.4519,-0.4519,-0.4522,-0.448,-0.358,-0.2066,-0.0,-0.0,-0.0,0.0,0.0,0.0,-2.0031,-2.0218,0.0,-2.0088,-1.9544,-1.9056,-1.8857,-1.8179,-1.7627,-1.7689,-1.7542,-1.7779,-1.8838,-1.8094,-1.7981,-1.9621,-1.9635,-1.9479,-1.9452,-1.9368,-1.9261,-1.9018,-1.8789,-1.879,-1.9143,-1.8324,-1.7681,-1.7368,-1.7692,-1.7745,-1.7366,-1.7652,-1.8119,-1.8702,-1.9346,-1.969,-1.969,-1.969,-1.9169,-1.8185,-1.8145,-1.7544,-1.6595,-1.6522,-1.6522,-1.6522,-1.6522,-1.6522,-1.6572,-1.7087,-1.7287,-1.735,-1.784,-1.8016,-1.794,-1.7463,-1.7287,-1.7287,-1.7287,-1.6936,-1.671,-1.7714,-1.7313,-1.6622,-1.7137,-1.6532,-1.5543,-1.4971,-1.4329,-1.3732,-1.3152,-1.2978,-1.2881,-1.2881,-1.2881,-1.2715,-1.203,-1.1864,-1.1416,-1.0115,-0.9865,-0.9614,-0.9008,-0.8857,-0.8804,-0.8804,-0.8804,-0.8804,-0.8804,-0.8804,-0.8533,-0.7883,-0.7074,-0.6367,-0.576,-0.5003,-0.4625,-0.4625,-0.4625,-0.457,-0.4519,-0.4519,-0.4522,-0.448,-0.4376,-0.2912,-0.0224,-0.0056,-0.0,0.0,0.0,-2.0241,-2.0241,-2.0757,0.0,-2.0403,-2.0625,-2.0595,-1.9231,-1.829,-1.7682,-1.7696,-1.6599,-1.6407,-1.8645,-1.7701,-1.7229,-1.881,-1.8852,-1.8664,-1.8577,-1.9146,-1.9398,-1.9035,-1.8949,-1.8769,-1.8437,-1.8034,-1.7766,-1.7704,-1.7785,-1.7773,-1.769,-1.8219,-1.8568,-1.8702,-1.9346,-1.969,-1.969,-1.969,-1.9369,-1.8727,-1.8302,-1.7747,-1.7105,-1.668,-1.6522,-1.6522,-1.6522,-1.6522,-1.6522,-1.6635,-1.6685,-1.6697,-1.681,-1.6848,-1.6835,-1.6722,-1.6685,-1.6685,-1.6685,-1.6609,-1.6559,-1.6773,-1.6697,-1.6547,-1.666,-1.651,-1.6194,-1.5588,-1.4971,-1.4376,-1.3779,-1.3238,-1.2881,-1.2881,-1.2881,-1.2881,-1.2715,-1.2187,-1.1566,-1.0762,-1.0167,-0.9762,-0.9614,-0.9159,-0.8804,-0.8804,-0.8804,-0.8804,-0.8804,-0.8804,-0.8752,-0.8593,-0.7343,-0.6804,-0.723,-0.6032,-0.5328,-0.5328,-0.5328,-0.5054,-0.4519,-0.4519,-0.4522,-0.448,-0.3685,-0.2788,-0.1729,-0.0543,-0.0,-2.1139,-2.1216,-2.1446,-2.1004,-2.1196,0.0,0.0,-2.0908,-2.0658,-1.9812,-1.8965,-1.835,-1.835,-1.733,-1.6916,-1.8197,-1.7708,-1.7271,-1.7612,-1.8229,-1.8617,-1.8553,-1.9164,-1.9513,-1.9323,-1.9119,-1.8628,-1.7731,-1.7727,-1.7642,-1.727,-1.7273,-1.729,-1.729,-1.7884,-1.8208,-1.8208,-1.9196,-1.969,-1.969,-1.969,-1.9406,-1.8893,-1.8341,-1.7827,-1.7271,-1.671,-1.6522,-1.6522,-1.6522,-1.6522,-1.6522,-1.6522,-1.6522,-1.6522,-1.6522,-1.6522,-1.6522,-1.6522,-1.6522,-1.6522,-1.6522,-1.6522,-1.6522,-1.6522,-1.6522,-1.6522,-1.6522,-1.6281,-1.5964,-1.5676,-1.4915,-1.419,-1.3862,-1.3334,-1.2881,-1.2881,-1.2881,-1.2881,-1.2881,-1.2608,-1.2138,-1.1416,-1.1015,-1.0559,-0.9917,-0.951,-0.9159,-0.8857,-0.8804,-0.8804,-0.8804,-0.8804,-0.8804,-0.8804,-0.7777,-0.7289,-0.767,-0.6686,-0.6036,-0.6036,-0.5706,-0.5164,-0.4519,-0.4519,-0.4522,-0.4525,-0.4015,-0.3627,-0.3355,-0.2585,-0.1429,-2.1985,-2.2254,-2.2581,-2.1716,-2.1639,-2.1677,0.0,0.0,0.0,-2.0331,-1.9612,-1.8996,-1.8996,-1.8332,0.0,-1.7799,0.0,0.0,0.0,-1.7727,0.0,-1.8544,-1.919,-1.9623,-1.9596,-1.9084,-1.8253,-1.7041,-1.7384,-1.7364,-1.6733,-1.6758,-1.6789,-1.6789,-1.7257,-1.7563,-1.7697,-1.8897,-1.9555,-1.969,-1.969,-1.9406,-1.8893,-1.8341,-1.7827,-1.7271,-1.671,-1.6522,-1.6522,-1.6522,-1.6522,-1.6522,-1.6522,-1.6522,-1.6522,-1.6522,-1.6522,-1.6522,-1.6522,-1.6522,-1.6522,-1.6522,-1.6522,-1.6522,-1.6522,-1.6522,-1.6522,-1.6522,-1.6139,-1.5764,-1.5764,-1.4949,-1.4133,-1.4003,-1.3505,-1.3065,-1.2929,-1.2881,-1.2881,-1.2881,-1.2881,-1.2715,-1.2129,-1.1873,-1.1416,-1.0372,-0.9969,-0.9614,-0.9061,-0.8857,-0.8804,-0.8804,-0.8804,-0.8804,-0.8804,-0.8103,-0.7777,-0.7883,-0.7235,-0.6804,-0.6804,-0.6091,-0.5382,-0.468,-0.4846,-0.4846,-0.4677,-0.4677,-0.4636,-0.449,-0.4504,-0.3028,-2.2889,-2.2716,-2.2581,-2.1716,-2.2081,-2.2254,-2.0773,0.0,-2.1158,-2.0446,0.0,-1.8992,-1.8992,0.0,0.0,0.0,-1.7202,-1.6681,-1.6522,-1.7324,-1.7851,-1.7676,-1.8901,-1.9726,-1.9609,-1.8535,-1.7444,-1.6463,-1.6827,-1.699,-1.6699,-1.6758,-1.6789,-1.6789,-1.6799,-1.71,-1.7682,-1.8448,-1.9106,-1.969,-1.969,-1.9406,-1.8893,-1.8341,-1.7827,-1.7271,-1.671,-1.6522,-1.6522,-1.6522,-1.6522,-1.6522,-1.6522,-1.6522,-1.6522,-1.6522,-1.6522,-1.6522,-1.6522,-1.6522,-1.6522,-1.6522,-1.6522,-1.6522,-1.6522,-1.6522,-1.6522,-1.6522,-1.6466,-1.638,-1.638,-1.592,-1.5276,-1.4744,-1.4143,-1.3552,-1.3017,-1.2881,-1.2881,-1.2881,-1.2881,-1.2881,-1.2774,-1.2236,-1.1774,-1.1592,-1.0584,-0.9762,-0.971,-0.9159,-0.8804,-0.8804,-0.8804,-0.8804,-0.8804,-0.8103,-0.799,-0.8646,-0.799,-0.7557,-0.7557,-0.6858,-0.6145,-0.5378,-0.6041,-0.6041,-0.5378,-0.5378,-0.5058,-0.4522,-0.4487,-0.3585,-2.3783,-2.3889,-2.4043,-2.3216,-2.3283,-2.3379,-2.2658,-2.1985,-2.1543,-2.1716,0.0,0.0,0.0,0.0,0.0,0.0,-1.7962,-1.7757,0.0,0.0,-1.8319,-1.7684,0.0,0.0,-1.8964,-1.8185,-1.712,-1.5713,-1.6063,-1.6083,-1.5462,-1.5903,-1.6166,-1.6166,-1.6523,-1.7025,-1.7682,-1.8373,-1.9031,-1.969,-1.969,-1.9566,-1.9332,-1.8496,-1.7987,-1.7679,-1.6532,-1.622,-1.6497,-1.617,-1.6233,-1.6522,-1.6522,-1.6522,-1.6522,-1.6522,-1.6522,-1.6522,-1.6522,-1.6522,-1.6522,-1.6522,-1.6522,-1.6522,-1.6522,-1.6522,-1.6522,-1.6522,-1.6522,-1.6522,-1.6522,-1.6051,-1.5454,-1.4835,-1.4236,-1.3637,-1.3017,-1.2881,-1.2881,-1.2881,-1.2881,-1.2881,-1.2881,-1.2657,-1.2295,-1.1882,-1.0973,-1.0269,-0.9865,-0.9211,-0.8804,-0.8804,-0.8804,-0.8804,-0.8804,-0.8533,-0.848,-0.8758,-0.8533,-0.8156,-0.7723,-0.7396,-0.6907,-0.6145,-0.6421,-0.6258,-0.5487,-0.5487,-0.5164,-0.4519,-0.4487,-0.3697,-2.4582,-2.487,-2.512,-2.4302,-2.411,-2.4033,-2.3802,-2.2754,-2.1966,-2.235,-2.1485,0.0,0.0,0.0,0.0,0.0,0.0,-1.8719,0.0,-1.8235,-1.8871,-1.8172,-1.9022,0.0,0.0,-1.7422,-1.657,-1.502,-1.5375,-1.5418,-1.491,-1.5403,-1.579,-1.5998,-1.6294,-1.6756,-1.7413,-1.7891,-1.8583,-1.9405,-1.9226,-1.9206,-1.9227,-1.8281,-1.7779,-1.7595,-1.6292,-1.6007,-1.6471,-1.5919,-1.6019,-1.6522,-1.6522,-1.6522,-1.6522,-1.6522,-1.6522,-1.6522,-1.6522,-1.6522,-1.6522,-1.6522,-1.6522,-1.6522,-1.6522,-1.6522,-1.6522,-1.6522,-1.6522,-1.6522,-1.6522,-1.6194,-1.5644,-1.488,-1.4376,-1.3826,-1.3065,-1.2881,-1.2881,-1.2881,-1.2881,-1.2881,-1.2881,-1.2881,-1.2725,-1.2187,-1.1375,-1.0712,-1.0364,-0.9614,-0.9061,-0.9061,-0.9061,-0.9008,-0.8804,-0.8804,-0.8804,-0.8804,-0.8804,-0.848,-0.7723,-0.7883,-0.767,-0.6912,-0.7074,-0.6745,-0.5819,-0.5819,-0.5332,-0.4519,-0.4487,-0.3697,-2.5264,-2.5284,-2.512,-2.4302,-2.411,-2.3879,-2.3024,-2.2793,-2.2524,-2.1716,-2.1504,-2.1235,-2.0485,0.0,0.0,0.0,0.0,0.0,0.0,-1.8633,-1.9152,-1.907,-1.8935,-1.8137,0.0,-1.6044,-1.5521,-1.4511,-1.4795,-1.5257,-1.5815,-1.5753,-1.6014,-1.6725,-1.6151,-1.6114,-1.6741,-1.6756,-1.7428,-1.8732,-1.8056,-1.7903,-1.8129,-1.7446,-1.6932,-1.652,-1.5964,-1.6007,-1.6471,-1.5919,-1.6019,-1.6522,-1.6522,-1.6522,-1.6522,-1.6522,-1.6522,-1.6522,-1.6522,-1.6522,-1.6522,-1.6522,-1.6522,-1.6522,-1.6522,-1.6522,-1.6522,-1.6522,-1.6522,-1.6522,-1.6522,-1.6479,-1.6151,-1.4971,-1.4709,-1.434,-1.3152,-1.2881,-1.2881,-1.2881,-1.2881,-1.2881,-1.2881,-1.2881,-1.2881,-1.2881,-1.1692,-1.1015,-1.1665,-1.0568,-0.9762,-0.9762,-0.9762,-0.9517,-0.8857,-0.8804,-0.8804,-0.8804,-0.8804,-0.848,-0.7723,-0.8374,-0.8427,-0.767,-0.8374,-0.799,-0.6588,-0.6588,-0.5828,-0.4519,-0.4487,-0.3697,-2.5303,-2.5303,-2.5226,-2.4966,-2.4889,-2.4812,-2.4524,-2.4043,-2.3417,-2.2543,-2.1908,-2.1254,-2.0446,0.0,0.0,0.0,0.0,0.0,0.0,-1.954,-1.9848,-1.9251,-1.896,-1.8116,-1.6398,-1.6185,-1.5659,-1.4485,-1.5022,-1.5335,-1.5176,-1.5716,-1.6023,-1.607,-1.6107,-1.6302,-1.6712,-1.6712,-1.716,-1.8059,-1.7802,-1.7736,-1.7796,-1.6973,-1.6491,-1.6322,-1.5518,-1.5467,-1.5957,-1.5768,-1.6019,-1.6522,-1.6522,-1.6522,-1.6522,-1.6522,-1.6522,-1.6522,-1.6522,-1.6522,-1.6522,-1.6522,-1.6522,-1.6522,-1.6522,-1.6522,-1.6522,-1.6522,-1.6522,-1.6522,-1.6522,-1.6194,-1.5688,-1.488,-1.4698,-1.4299,-1.2782,-1.2979,-1.3199,-1.2211,-1.2528,-1.2783,-1.25,-1.2686,-1.2881,-1.2881,-1.2089,-1.1566,-1.1765,-1.1015,-1.0312,-0.9865,-0.9814,-0.9517,-0.8857,-0.8804,-0.8804,-0.8804,-0.8804,-0.8699,-0.8427,-0.8646,-0.8699,-0.8427,-0.8699,-0.8049,-0.6588,-0.6588,-0.5878,-0.4519,-0.4487,-0.3697,-2.5303,-2.5303,-2.5303,-2.5303,-2.5303,-2.5303,-2.5303,-2.4909,-2.4293,-2.3437,-2.2812,-2.2081,-2.0946,0.0,0.0,0.0,0.0,0.0,0.0,-2.0188,-2.017,-1.9294,-1.8764,-1.8054,-1.6945,-1.6466,-1.6013,-1.5476,-1.5682,-1.5807,-1.5732,-1.6034,-1.6157,-1.6102,-1.6213,-1.6322,-1.6398,-1.6368,-1.6697,-1.7339,-1.6973,-1.6846,-1.6888,-1.6083,-1.5662,-1.5497,-1.4864,-1.5145,-1.5938,-1.556,-1.5954,-1.6752,-1.6552,-1.6522,-1.6522,-1.6522,-1.6522,-1.6522,-1.6522,-1.6522,-1.6522,-1.6522,-1.6522,-1.6522,-1.6522,-1.6522,-1.6522,-1.6522,-1.6522,-1.6522,-1.6522,-1.6194,-1.5776,-1.5152,-1.5017,-1.4609,-1.3111,-1.319,-1.3205,-1.2075,-1.2148,-1.2324,-1.2041,-1.2353,-1.2705,-1.2852,-1.2295,-1.1873,-1.2187,-1.1575,-1.1015,-1.0568,-1.0312,-0.9762,-0.8857,-0.8804,-0.8804,-0.8804,-0.8804,-0.8758,-0.8657,-0.8751,-0.8758,-0.8657,-0.8436,-0.7787,-0.6588,-0.6294,-0.5595,-0.4519,-0.448,-0.3694]},{"header":{"parameterUnit":"m.s-1","parameterCategory":1,"la1":30.6,"la2":29.2853,"lo1":-89.7004,"lo2":-87.6739,"dy":0.0162,"dx":0.0183,"nx":112,"ny":82,"refTime":"2023-11-06T06:00:00:Z","depth":0,"parameterNumber":3,"parameterNumberName":"V-component_of_WINDS"},"data":[0.0,0.0,0.0,0.0,0.0,0.0,0.0,0.0,0.0,0.0,0.0,0.0,0.0,0.0,0.0,0.0,0.0,0.0,0.0,0.0,0.0,0.0,0.0,0.0,0.0,0.0,0.0,0.0,0.0,0.0,0.0,0.0,0.0,0.0,0.0,0.0,0.0,0.0,0.0,0.0,0.0,0.0,0.0,0.0,0.0,0.0,0.0,0.0,0.0,0.0,0.0,0.0,0.0,0.0,0.0,0.0,0.0,0.0,0.0,0.0,0.0,0.0,0.0,0.0,0.0,0.0,0.0,0.0,0.0,0.0,0.0,0.0,0.0,0.0,0.0,0.0,0.0,0.0,0.0,0.0,0.0,0.0,0.0,0.0,0.0,0.0,0.0,0.0,0.0,0.0,-0.9082,-0.8276,-0.8315,-0.8203,-0.7724,-0.8485,-0.948,-1.0608,0.0,0.0,0.0,0.0,0.0,0.0,0.0,0.0,0.0,0.0,0.0,0.0,0.0,0.0,0.0,0.0,0.0,0.0,0.0,0.0,0.0,0.0,0.0,0.0,0.0,0.0,0.0,0.0,0.0,0.0,0.0,0.0,0.0,0.0,0.0,0.0,0.0,0.0,0.0,0.0,0.0,0.0,0.0,0.0,0.0,0.0,0.0,0.0,0.0,0.0,0.0,0.0,0.0,0.0,0.0,0.0,0.0,0.0,0.0,0.0,0.0,0.0,0.0,0.0,0.0,0.0,0.0,0.0,0.0,0.0,0.0,0.0,0.0,0.0,0.0,0.0,0.0,0.0,0.0,0.0,0.0,0.0,0.0,0.0,0.0,0.0,0.0,0.0,0.0,0.0,0.0,0.0,0.0,0.0,0.0,0.0,0.0,0.0,0.0,0.0,0.0,0.0,0.0,0.0,-0.9134,-0.8667,-0.8489,-0.8309,-0.8049,-0.8321,-0.9261,-1.0997,0.0,0.0,0.0,0.0,0.0,0.0,0.0,0.0,0.0,0.0,0.0,0.0,0.0,0.0,0.0,0.0,0.0,0.0,0.0,0.0,0.0,0.0,0.0,0.0,0.0,0.0,0.0,0.0,0.0,0.0,0.0,0.0,0.0,0.0,0.0,0.0,0.0,0.0,0.0,0.0,0.0,0.0,0.0,0.0,0.0,0.0,0.0,0.0,0.0,0.0,0.0,0.0,0.0,0.0,0.0,0.0,0.0,0.0,0.0,0.0,0.0,0.0,0.0,0.0,0.0,0.0,0.0,0.0,0.0,0.0,0.0,0.0,0.0,0.0,0.0,0.0,0.0,0.0,0.0,0.0,0.0,0.0,0.0,0.0,0.0,0.0,0.0,0.0,0.0,0.0,0.0,0.0,0.0,0.0,0.0,0.0,0.0,0.0,0.0,0.0,0.0,0.0,0.0,-0.8892,-0.7901,-0.7493,-0.7725,-0.7812,-0.7523,-0.815,-0.9313,-1.1089,-1.1843,0.0,0.0,0.0,0.0,0.0,0.0,0.0,0.0,0.0,0.0,0.0,0.0,0.0,0.0,0.0,0.0,0.0,0.0,0.0,0.0,0.0,0.0,0.0,0.0,0.0,0.0,0.0,0.0,0.0,0.0,0.0,0.0,0.0,0.0,0.0,0.0,0.0,0.0,0.0,0.0,0.0,0.0,0.0,0.0,0.0,0.0,0.0,0.0,0.0,0.0,0.0,0.0,0.0,0.0,0.0,0.0,0.0,0.0,0.0,0.0,0.0,0.0,0.0,0.0,0.0,0.0,0.0,0.0,0.0,0.0,0.0,0.0,0.0,0.0,0.0,0.0,0.0,0.0,0.0,0.0,0.0,0.0,0.0,0.0,0.0,0.0,0.0,0.0,0.0,0.0,0.0,0.0,0.0,0.0,0.0,0.0,0.0,0.0,0.0,0.0,0.0,0.0,-0.8001,-0.6877,-0.6509,-0.7096,-0.7416,-0.7132,-0.8072,-0.9417,-1.1127,-1.1757,0.0,0.0,0.0,0.0,0.0,0.0,0.0,0.0,0.0,0.0,0.0,0.0,0.0,0.0,0.0,0.0,0.0,0.0,0.0,0.0,0.0,0.0,0.0,0.0,0.0,0.0,0.0,0.0,0.0,0.0,0.0,0.0,0.0,0.0,0.0,0.0,0.0,0.0,0.0,0.0,0.0,0.0,0.0,0.0,0.0,0.0,0.0,0.0,0.0,0.0,0.0,0.0,0.0,0.0,0.0,0.0,0.0,0.0,0.0,0.0,0.0,0.0,0.0,0.0,0.0,0.0,0.0,0.0,0.0,0.0,0.0,0.0,0.0,0.0,0.0,0.0,0.0,0.0,0.0,0.0,0.0,0.0,0.0,0.0,0.0,0.0,0.0,0.0,0.0,0.0,0.0,0.0,0.0,0.0,0.0,0.0,0.0,0.0,0.0,0.0,0.0,0.0,-0.8057,-0.6981,-0.6707,-0.722,-0.7565,-0.7476,-0.8167,-0.94,-1.1274,-1.2121,0.0,0.0,0.0,0.0,0.0,0.0,0.0,0.0,0.0,0.0,0.0,0.0,0.0,0.0,0.0,0.0,0.0,0.0,0.0,0.0,0.0,0.0,0.0,0.0,0.0,0.0,0.0,0.0,0.0,0.0,0.0,0.0,0.0,0.0,0.0,0.0,0.0,0.0,0.0,0.0,0.0,0.0,0.0,0.0,0.0,0.0,0.0,0.0,0.0,0.0,0.0,0.0,0.0,0.0,0.0,0.0,0.0,0.0,0.0,0.0,0.0,0.0,0.0,0.0,0.0,0.0,0.0,0.0,0.0,0.0,0.0,0.0,0.0,0.0,0.0,0.0,0.0,0.0,0.0,0.0,0.0,0.0,0.0,0.0,0.0,0.0,0.0,0.0,0.0,0.0,0.0,0.0,0.0,0.0,0.0,0.0,0.0,0.0,0.0,0.0,0.0,0.0,-0.8269,-0.7257,-0.5574,-0.6945,-0.7717,-0.7061,-0.8254,-0.9756,-1.1417,0.0,0.0,0.0,0.0,0.0,0.0,0.0,0.0,0.0,0.0,0.0,0.0,0.0,0.0,0.0,0.0,0.0,0.0,0.0,0.0,0.0,0.0,0.0,0.0,0.0,0.0,0.0,0.0,0.0,0.0,0.0,0.0,0.0,0.0,0.0,0.0,0.0,0.0,0.0,0.0,0.0,0.0,0.0,0.0,0.0,0.0,0.0,0.0,0.0,0.0,0.0,0.0,0.0,0.0,0.0,0.0,0.0,0.0,0.0,0.0,0.0,0.0,0.0,0.0,0.0,0.0,0.0,0.0,0.0,0.0,0.0,0.0,0.0,0.0,0.0,0.0,0.0,0.0,0.0,0.0,0.0,0.0,0.0,0.0,0.0,0.0,0.0,0.0,0.0,0.0,0.0,0.0,0.0,0.0,0.0,0.0,0.0,0.0,0.0,0.0,0.0,0.0,-0.9456,-0.8543,-0.7372,-0.5579,-0.7101,-0.7936,-0.7246,-0.8479,-1.0,-1.1646,0.0,0.0,0.0,0.0,0.0,0.0,0.0,0.0,0.0,0.0,0.0,0.0,0.0,0.0,0.0,0.0,0.0,0.0,0.0,0.0,0.0,0.0,0.0,0.0,0.0,0.0,0.0,0.0,0.0,0.0,0.0,0.0,0.0,0.0,0.0,0.0,0.0,0.0,0.0,0.0,0.0,0.0,0.0,0.0,0.0,0.0,0.0,0.0,0.0,0.0,0.0,0.0,0.0,0.0,0.0,0.0,0.0,0.0,0.0,0.0,0.0,0.0,0.0,0.0,0.0,0.0,0.0,0.0,0.0,0.0,0.0,0.0,0.0,0.0,0.0,0.0,0.0,0.0,0.0,0.0,0.0,0.0,0.0,0.0,0.0,0.0,0.0,0.0,0.0,0.0,0.0,0.0,0.0,0.0,0.0,0.0,0.0,0.0,0.0,0.0,0.0,0.0,-1.1024,-0.8847,-0.7269,-0.7121,-0.7835,-0.828,-0.82,-0.8886,-1.0095,0.0,0.0,0.0,0.0,0.0,0.0,0.0,0.0,0.0,0.0,0.0,0.0,0.0,0.0,0.0,0.0,0.0,0.0,0.0,0.0,0.0,0.0,0.0,0.0,0.0,0.0,0.0,0.0,0.0,0.0,0.0,0.0,0.0,0.0,0.0,0.0,0.0,0.0,0.0,0.0,0.0,0.0,0.0,0.0,0.0,0.0,0.0,0.0,0.0,0.0,0.0,0.0,0.0,0.0,0.0,0.0,0.0,0.0,0.0,0.0,0.0,0.0,0.0,0.0,0.0,0.0,0.0,0.0,0.0,0.0,0.0,0.0,0.0,0.0,0.0,0.0,0.0,0.0,0.0,0.0,0.0,0.0,0.0,0.0,0.0,0.0,0.0,0.0,0.0,0.0,0.0,0.0,0.0,0.0,0.0,0.0,0.0,0.0,0.0,0.0,0.0,0.0,0.0,-1.1154,-0.9891,-0.8613,-0.7433,-0.8581,-0.9102,-0.8273,-0.9093,-0.9597,-0.9432,0.0,0.0,0.0,0.0,0.0,0.0,0.0,0.0,0.0,0.0,0.0,0.0,0.0,0.0,0.0,0.0,0.0,0.0,0.0,0.0,0.0,0.0,0.0,0.0,0.0,0.0,0.0,0.0,0.0,0.0,0.0,0.0,0.0,0.0,0.0,0.0,0.0,0.0,0.0,0.0,0.0,0.0,0.0,0.0,0.0,0.0,0.0,0.0,0.0,0.0,0.0,0.0,0.0,0.0,0.0,0.0,0.0,0.0,0.0,0.0,0.0,0.0,0.0,0.0,0.0,0.0,0.0,0.0,0.0,0.0,0.0,0.0,0.0,0.0,0.0,0.0,0.0,0.0,0.0,0.0,0.0,0.0,0.0,0.0,0.0,0.0,0.0,0.0,0.0,0.0,0.0,0.0,0.0,0.0,0.0,0.0,0.0,0.0,0.0,0.0,0.0,0.0,-1.178,-1.0583,-0.9476,-0.8505,-0.9298,-0.9623,-0.8948,-0.8224,-0.8325,-0.9581,0.0,0.0,0.0,0.0,0.0,0.0,0.0,0.0,0.0,0.0,0.0,0.0,0.0,0.0,0.0,0.0,0.0,0.0,0.0,0.0,0.0,0.0,0.0,0.0,0.0,0.0,0.0,0.0,0.0,0.0,0.0,0.0,0.0,0.0,0.0,0.0,0.0,0.0,0.0,0.0,0.0,0.0,0.0,0.0,0.0,0.0,0.0,0.0,0.0,0.0,0.0,0.0,0.0,0.0,0.0,0.0,0.0,0.0,0.0,0.0,0.0,0.0,0.0,0.0,0.0,0.0,0.0,0.0,0.0,0.0,0.0,0.0,0.0,0.0,0.0,0.0,0.0,0.0,0.0,0.0,0.0,0.0,0.0,0.0,0.0,0.0,0.0,0.0,0.0,0.0,0.0,0.0,0.0,0.0,0.0,0.0,0.0,0.0,0.0,0.0,0.0,0.0,-1.2603,-1.099,-0.9904,-0.9904,-0.991,-0.9916,-0.9916,-0.7074,-0.7153,-1.1525,0.0,0.0,0.0,0.0,0.0,0.0,0.0,0.0,0.0,0.0,0.0,0.0,0.0,0.0,0.0,0.0,0.0,0.0,0.0,0.0,0.0,0.0,0.0,0.0,0.0,0.0,0.0,0.0,0.0,0.0,0.0,0.0,0.0,0.0,0.0,0.0,0.0,0.0,0.0,0.0,0.0,0.0,0.0,0.0,0.0,0.0,0.0,0.0,0.0,0.0,0.0,0.0,0.0,0.0,0.0,0.0,0.0,0.0,0.0,0.0,-1.8063,0.0,0.0,0.0,0.0,0.0,0.0,0.0,0.0,0.0,0.0,0.0,0.0,0.0,0.0,0.0,0.0,0.0,0.0,0.0,0.0,0.0,0.0,0.0,0.0,0.0,0.0,0.0,0.0,0.0,0.0,0.0,0.0,0.0,0.0,0.0,0.0,0.0,0.0,0.0,0.0,0.0,-1.2527,-1.1016,-0.9972,-0.9972,-1.0034,-1.0057,-1.0057,-0.9386,-0.997,-1.2348,-1.2959,0.0,0.0,0.0,0.0,0.0,0.0,0.0,0.0,0.0,0.0,0.0,0.0,0.0,0.0,0.0,0.0,0.0,0.0,0.0,0.0,0.0,0.0,0.0,0.0,0.0,0.0,0.0,0.0,0.0,0.0,0.0,0.0,0.0,0.0,0.0,0.0,0.0,0.0,0.0,0.0,0.0,0.0,0.0,0.0,0.0,0.0,0.0,0.0,0.0,0.0,0.0,0.0,0.0,0.0,0.0,0.0,0.0,0.0,0.0,0.0,-1.8759,0.0,0.0,0.0,0.0,0.0,0.0,0.0,0.0,0.0,0.0,0.0,0.0,0.0,0.0,0.0,0.0,0.0,0.0,0.0,0.0,0.0,0.0,0.0,0.0,0.0,0.0,0.0,0.0,0.0,0.0,0.0,0.0,0.0,0.0,0.0,0.0,0.0,0.0,0.0,0.0,-1.3223,-1.134,-1.0057,-1.0057,-1.0078,-1.0094,-1.0094,-1.0094,-1.0483,-1.1387,-1.2278,0.0,0.0,0.0,0.0,0.0,0.0,0.0,0.0,0.0,0.0,0.0,0.0,0.0,0.0,0.0,0.0,0.0,0.0,0.0,0.0,0.0,0.0,0.0,0.0,0.0,0.0,0.0,0.0,0.0,0.0,0.0,0.0,0.0,0.0,0.0,0.0,0.0,0.0,0.0,0.0,0.0,0.0,0.0,0.0,0.0,0.0,0.0,0.0,0.0,0.0,0.0,0.0,0.0,-1.988,-2.0373,-2.1098,-2.0389,-2.0128,-2.0288,-2.0671,-2.0099,-1.8914,-1.9843,0.0,0.0,0.0,0.0,0.0,0.0,0.0,0.0,0.0,0.0,0.0,0.0,0.0,0.0,0.0,0.0,0.0,0.0,0.0,0.0,0.0,0.0,0.0,0.0,-2.1593,-2.167,-1.9753,0.0,0.0,0.0,0.0,0.0,0.0,0.0,0.0,0.0,0.0,0.0,-1.3824,-1.1728,-1.0267,-1.0113,-1.0094,-1.0094,-1.0094,-1.0094,-1.0094,-1.0094,-1.095,-0.8007,0.0,0.0,0.0,0.0,0.0,0.0,0.0,0.0,0.0,0.0,0.0,0.0,0.0,0.0,0.0,0.0,0.0,0.0,0.0,0.0,0.0,0.0,0.0,0.0,0.0,0.0,0.0,0.0,0.0,0.0,0.0,0.0,-1.7661,-1.7022,0.0,0.0,0.0,0.0,0.0,0.0,0.0,0.0,0.0,0.0,0.0,0.0,0.0,-1.9594,-1.9912,-2.0045,-1.9866,-1.9356,-1.9784,-1.987,-1.9623,-2.0125,-2.0697,-2.1332,-2.1943,0.0,-1.8659,-1.8968,0.0,0.0,0.0,0.0,0.0,0.0,0.0,0.0,0.0,0.0,0.0,0.0,0.0,0.0,0.0,0.0,0.0,0.0,0.0,0.0,0.0,0.0,-2.1667,-2.0927,-2.1485,-2.1926,0.0,-2.099,-2.1043,-2.0422,-2.0389,-2.0427,0.0,0.0,0.0,0.0,0.0,0.0,-1.3065,-1.1911,-1.0944,-1.0171,-1.0094,-1.0094,-1.0094,-1.0094,-1.0094,-1.0094,-0.7589,-0.4282,-0.0174,-0.1304,0.0,0.0,0.0,0.0,0.0,0.0,0.0,0.0,0.0,0.0,0.0,0.0,0.0,0.0,0.0,0.0,0.0,0.0,0.0,0.0,0.0,0.0,0.0,0.0,0.0,0.0,0.0,0.0,0.0,-1.9147,-1.8716,-1.7824,-1.93,-2.0073,0.0,0.0,0.0,0.0,0.0,0.0,0.0,0.0,0.0,-1.9087,-1.9339,-1.9512,-1.9559,-1.9962,-2.0235,-2.0379,-2.0993,-2.1179,-2.0986,-2.1327,-2.1873,-2.2566,-2.2427,-2.1908,-2.1131,-2.1185,-2.1442,-2.1839,0.0,0.0,0.0,0.0,-2.2189,-2.1766,-2.1473,-2.1382,-2.151,-2.2318,0.0,0.0,0.0,0.0,0.0,0.0,0.0,-2.1252,0.0,0.0,-2.2476,-2.209,-2.2674,-2.3126,-2.2383,-2.2285,-2.2022,-2.1004,-2.1299,-2.1408,-2.0465,-1.9581,0.0,0.0,0.0,-1.4926,-1.4195,-1.295,-1.1795,-1.0925,-1.0829,-1.0637,-1.0133,-1.0094,-1.0094,-1.0094,-0.7559,-0.5101,-0.2949,-0.5645,-0.9336,0.0,0.0,0.0,0.0,0.0,0.0,0.0,0.0,0.0,0.0,0.0,0.0,0.0,0.0,0.0,0.0,0.0,0.0,0.0,0.0,0.0,0.0,0.0,0.0,0.0,0.0,0.0,0.0,-1.9158,-1.9229,-1.8297,-1.9854,-2.067,0.0,0.0,0.0,0.0,0.0,0.0,-1.951,-2.0379,-2.0618,-2.0061,-2.0062,-2.0147,-2.0314,-2.0517,-2.0991,-2.1752,-2.2124,-2.2412,-2.2581,-2.2581,-2.2987,-2.3646,-2.3175,-2.3219,-2.353,-2.2983,-2.2611,-2.2464,-2.307,-2.3199,-2.3052,-2.3235,-2.3052,-2.2758,-2.2942,-2.2997,-2.3144,-2.3933,-2.419,-2.4153,-2.3951,0.0,0.0,0.0,0.0,-2.1858,-2.2042,-2.2556,-2.3052,-2.3272,-2.3768,-2.4062,-2.3544,-2.35,-2.3138,-2.1791,-2.199,-2.1999,-2.0804,-1.99,0.0,-1.8722,-1.7042,-1.5599,-1.4939,-1.3772,-1.2579,-1.1521,-1.1406,-1.1137,-1.0483,-1.0229,-1.0094,-1.0094,-0.8556,-0.7263,-0.6407,-1.0096,-1.2383,-1.2871,0.0,0.0,0.0,0.0,0.0,0.0,0.0,0.0,0.0,0.0,0.0,0.0,0.0,0.0,0.0,0.0,0.0,0.0,0.0,0.0,0.0,0.0,0.0,0.0,0.0,0.0,0.0,0.0,0.0,-1.7164,-1.9508,0.0,0.0,0.0,0.0,-2.1061,-2.1068,-2.1102,-2.1102,-2.1813,-2.2496,-2.3139,-2.2496,-2.2829,-2.4218,-2.2868,-2.2564,-2.3274,-2.2632,-2.2682,-2.3342,-2.3342,-2.3748,-2.4455,-2.4746,-2.4884,-2.4767,-2.2852,-2.2851,-2.408,-2.4116,-2.5052,-2.619,-2.4685,-2.4593,-2.5017,-2.3529,-2.2997,-2.3144,-2.3933,-2.419,-2.4061,-2.329,-2.3015,0.0,0.0,-2.1803,-2.1969,-2.274,-2.2978,-2.3199,-2.3951,-2.4171,-2.419,-2.4172,-2.4301,-2.403,0.0,-2.1801,-2.132,-2.1421,0.0,-1.9677,-1.8003,-1.7664,-1.6696,-1.4286,-1.3901,-1.3209,-1.156,-1.1406,-1.1387,-1.1329,-1.0579,-1.0094,-1.0094,-0.9998,-0.9906,-0.9852,-1.0217,-1.1172,-1.2773,-1.4512,0.0,0.0,0.0,0.0,0.0,0.0,0.0,0.0,0.0,0.0,0.0,0.0,0.0,0.0,0.0,0.0,0.0,0.0,0.0,0.0,0.0,0.0,0.0,0.0,0.0,0.0,0.0,0.0,-1.9682,-2.1417,0.0,-2.1539,-2.1752,-2.1904,-2.1904,-2.2344,-2.2615,-2.2615,-2.3308,-2.3833,-2.4086,-2.3849,-2.3951,-2.4506,-2.3968,-2.3833,-2.4086,-2.3833,-2.3849,-2.4103,-2.4103,-2.4509,-2.5186,-2.4832,-2.5065,-2.5616,-2.4423,-2.4355,-2.5058,-2.5272,-2.5724,-2.6182,-2.585,-2.5933,-2.6098,-2.5529,-2.4979,-2.4502,-2.4281,-2.4538,-2.4814,-2.4025,-2.4135,-2.4373,-2.3566,-2.3327,-2.34,-2.3694,-2.3768,-2.3841,-2.4135,-2.419,-2.419,-2.419,-2.4266,-2.419,-2.3836,-2.3284,-2.2539,-2.1492,-2.0753,-1.9908,-1.8703,-1.7626,-1.6599,-1.5695,-1.5074,-1.4286,-1.3132,-1.3017,-1.281,-1.2276,-1.1949,-1.1521,-1.0964,-1.0944,-1.0694,-1.0194,-1.018,-0.944,-0.7871,-0.9551,-0.9533,0.0,0.0,0.0,0.0,0.0,0.0,0.0,0.0,0.0,0.0,0.0,0.0,0.0,0.0,0.0,0.0,0.0,0.0,0.0,0.0,0.0,0.0,0.0,0.0,0.0,0.0,-2.1353,-2.2203,-2.3393,-2.4052,-2.3816,-2.3782,-2.3782,-2.3782,-2.4475,-2.4881,-2.4881,-2.5355,-2.5609,-2.5609,-2.5118,-2.4983,-2.522,-2.476,-2.4611,-2.4864,-2.4611,-2.4642,-2.4864,-2.4864,-2.527,-2.5947,-2.5439,-2.5666,-2.6247,-2.5781,-2.5708,-2.5935,-2.6161,-2.6394,-2.6641,-2.6645,-2.6877,-2.7191,-2.7046,-2.6649,-2.6082,-2.5273,-2.5364,-2.5695,-2.5162,-2.5383,-2.564,-2.4832,-2.4593,-2.4538,-2.4263,-2.419,-2.419,-2.419,-2.419,-2.419,-2.419,-2.419,-2.4247,-2.4375,-2.4024,-2.3353,-2.2258,-2.1311,-2.0504,-1.9935,-1.8427,-1.7234,-1.6946,-1.6157,-1.5189,-1.4017,-1.3896,-1.369,-1.3156,-1.3099,-1.2868,-1.2291,-1.2233,-1.1887,-1.1083,-1.0841,-0.93,-0.6301,-0.7206,-0.8547,-1.0294,0.0,0.0,0.0,0.0,0.0,0.0,0.0,0.0,0.0,0.0,0.0,0.0,0.0,0.0,0.0,0.0,0.0,0.0,0.0,0.0,0.0,0.0,0.0,-1.9976,-2.136,-2.289,-2.4377,-2.5205,-2.5915,-2.6657,-2.6725,-2.6725,-2.6725,-2.7401,-2.7823,-2.7823,-2.7823,-2.7823,-2.7823,-2.6437,-2.6015,-2.6725,-2.527,-2.4915,-2.5642,-2.4898,-2.4932,-2.5642,-2.5642,-2.6031,-2.6691,-2.6691,-2.6691,-2.6691,-2.6691,-2.6691,-2.6723,-2.6696,-2.7187,-2.778,-2.701,-2.7433,-2.8337,-2.7931,-2.7787,-2.7658,-2.6869,-2.6631,-2.6631,-2.6612,-2.6631,-2.6465,-2.5658,-2.5439,-2.5256,-2.4447,-2.4245,-2.4226,-2.4208,-2.419,-2.419,-2.419,-2.419,-2.419,-2.419,-2.3843,-2.3572,-2.375,-2.2537,-2.1515,-2.1496,-2.0073,0.0,-1.785,-1.7003,-1.5868,-1.4209,-1.3997,-1.3978,-1.3978,-1.3978,-1.3953,-1.3896,-1.3896,-1.3536,-1.2738,-1.2226,-1.0931,-0.8764,-0.8256,-1.0452,-1.5405,0.0,0.0,0.0,0.0,0.0,0.0,0.0,0.0,0.0,0.0,0.0,0.0,0.0,0.0,0.0,0.0,0.0,0.0,0.0,0.0,0.0,-2.0821,-2.1595,-2.1793,-2.2648,-2.3818,-2.5405,-2.6273,-2.6847,-2.7025,-2.7057,-2.7254,-2.7694,-2.7893,-2.8215,-2.867,-2.867,-2.867,-2.867,-2.7723,-2.7282,-2.752,-2.6556,-2.6201,-2.6387,-2.6184,-2.6201,-2.6404,-2.6404,-2.6505,-2.6691,-2.6691,-2.6691,-2.6691,-2.6691,-2.6691,-2.6741,-2.7016,-2.7265,-2.7482,-2.7536,-2.7924,-2.8294,-2.7616,-2.757,-2.7658,-2.6869,-2.6998,-2.7365,-2.6778,-2.7016,-2.7291,-2.6502,-2.6264,-2.608,-2.5273,-2.5072,-2.4905,-2.4337,-2.419,-2.419,-2.419,-2.419,-2.419,-2.419,-2.4225,-2.4051,-2.3465,-2.2729,-2.1998,-2.1387,-1.9969,0.0,-1.8669,-1.7388,-1.6542,-1.6638,-1.6138,-1.5792,-1.5792,-1.5792,-1.5247,-1.3978,-1.3896,-1.3536,-1.2738,-1.2969,-1.3254,-1.3493,-1.4609,-1.5233,0.0,0.0,0.0,0.0,0.0,0.0,0.0,0.0,0.0,0.0,0.0,0.0,0.0,0.0,0.0,0.0,0.0,0.0,0.0,0.0,0.0,0.0,-2.2165,-2.3337,-2.3994,-2.4409,-2.5207,-2.6796,-2.7615,-2.8076,-2.8104,-2.8375,-2.8554,-2.8647,-2.8878,-2.9178,-2.9527,-2.9488,-2.9357,-2.9097,-2.834,-2.7677,-2.7123,-2.6991,-2.6776,-2.6478,-2.6478,-2.677,-2.7286,-2.7021,-2.716,-2.7638,-2.7317,-2.7351,-2.7621,-2.73,-2.7351,0.0,0.0,0.0,0.0,0.0,-2.802,-2.8139,-2.7828,-2.7973,-2.8205,-2.7556,-2.7785,-2.8227,-2.775,-2.7934,-2.8136,-2.7328,-2.7108,-2.6833,-2.5715,-2.566,-2.5695,-2.4887,-2.4961,-2.5107,-2.4777,-2.4685,-2.4593,-2.4263,-2.4284,0.0,-2.371,-2.3228,-2.2778,-2.2353,-2.0929,-1.9835,-1.9585,-1.8381,-1.76,-1.7696,-1.7273,-1.7003,-1.7003,-1.7003,0.0,0.0,0.0,-1.4637,-1.3816,-1.4153,0.0,0.0,0.0,-1.498,-1.3965,-1.0474,0.0,0.0,-1.5542,-1.5963,0.0,0.0,0.0,0.0,0.0,0.0,0.0,0.0,0.0,0.0,0.0,0.0,0.0,0.0,0.0,0.0,-2.3459,-2.4876,-2.6243,-2.6349,-2.6783,-2.8056,-2.877,-2.915,-2.918,-2.9736,-2.9847,-2.9319,-2.9805,-3.0123,-3.0208,0.0,0.0,0.0,0.0,-2.7582,-2.6429,-2.6955,-2.6882,-2.6302,-2.6302,-2.6961,-2.8079,-2.7476,-2.7861,-2.8941,-2.8247,-2.8349,-2.8924,-2.823,-2.8366,-2.8876,-2.7486,-2.6962,-2.7046,-2.7762,-2.8047,-2.8116,-2.8488,0.0,0.0,-2.8692,-2.8755,-2.8929,-2.8994,-2.8994,-2.8847,-2.8136,-2.7934,-2.7585,-2.6064,-2.619,-2.6539,-2.5713,-2.608,-2.6374,-2.5586,-2.5403,-2.5164,-2.4355,-2.419,-2.419,-2.419,-2.3822,-2.3534,-2.3605,-2.2269,-2.1005,-2.0392,-1.9535,-1.8746,-1.8061,0.0,0.0,-1.7856,-1.7856,-1.7799,-1.7722,-1.7023,-1.6323,-1.5615,-1.5736,-1.6118,-1.6738,-1.4258,-1.2969,-1.2969,-1.1953,-1.1466,-1.1509,-1.3392,-1.4304,0.0,0.0,0.0,0.0,0.0,0.0,0.0,0.0,0.0,0.0,0.0,0.0,0.0,0.0,0.0,-2.5137,-2.6516,-2.7348,-2.7372,-2.778,-2.7981,-2.7777,-2.7868,-2.7944,-2.7944,-2.8065,-2.8262,-2.8654,-2.8779,-2.9042,-2.954,-2.9544,-2.9463,-2.9376,-2.864,-2.8164,-2.7908,-2.7434,-2.7121,-2.6993,0.0,0.0,-2.8112,-2.7964,-2.8306,-2.8975,-2.8822,-2.8839,-2.9011,-2.8822,-2.8839,-2.8994,-2.8689,-2.8535,-2.8571,-2.8731,-2.8956,-2.9236,-2.9677,-2.9496,-2.9086,-2.9671,-2.9234,-2.8565,-2.8905,-2.8994,0.0,-2.8815,-2.8778,-2.8558,-2.7585,-2.7438,-2.7365,-2.6557,-2.6502,-2.6374,-2.5586,-2.5403,-2.5164,-2.4355,-2.419,-2.419,-2.419,-2.3822,-2.3285,-2.262,-2.1909,-2.1163,-2.04,-1.9542,-1.9196,-1.9735,-1.9165,-1.8742,-1.8742,-1.8742,-1.8453,-1.7741,-1.7542,-1.7443,-1.7407,-1.8075,-1.8016,-1.7031,-1.8281,-1.8945,-1.8945,-1.8711,-1.8574,-1.8549,-1.8905,-1.9069,0.0,0.0,0.0,0.0,0.0,0.0,0.0,0.0,0.0,0.0,0.0,-2.1866,0.0,0.0,-2.5394,-2.6745,-2.7758,-2.8429,-2.8584,-2.8592,-2.8353,-2.77,-2.7874,-2.8083,-2.8083,-2.8083,-2.8237,-2.8525,-2.8535,-2.8654,-2.8904,-2.9225,-2.9271,-2.8966,-2.8573,-2.8091,-2.7473,-2.7442,-2.7226,-2.6886,-2.6886,-2.7373,-2.8307,-2.8278,-2.8779,-2.9638,-2.9572,-2.9753,-3.0091,-3.0091,-3.0091,-3.0091,-3.0091,-2.9634,-2.9011,-2.9193,-2.9351,-2.9522,-2.9787,-2.9734,-2.9584,-2.9775,-2.9583,-2.9247,-2.9282,-2.9319,-2.9253,-2.9057,-2.8994,-2.8815,-2.8007,-2.8099,-2.8209,-2.7383,-2.7512,-2.7585,-2.6759,-2.6282,-2.575,-2.4961,-2.4483,-2.419,-2.419,-2.4174,-2.3851,-2.2975,-2.2749,-2.224,-2.1054,-2.0523,-2.0254,-2.0312,-1.9908,-1.9638,-1.9638,-1.9638,-1.9081,-1.7779,-1.815,-1.8242,-1.7878,-1.8271,-1.8367,-1.8102,-1.9295,-2.0117,-2.0547,-2.0586,-2.0586,-2.0547,-2.0528,-2.0482,0.0,0.0,0.0,0.0,0.0,0.0,0.0,0.0,-2.0842,-2.1515,-2.2607,-2.3789,-2.4986,-2.6273,-2.738,-2.8038,-2.8607,-2.9116,-2.952,-2.9011,-2.8353,-2.77,-2.8068,-2.8412,-2.8412,-2.8412,-2.8412,-2.8412,-2.8362,-2.8334,-2.8334,-2.8779,-2.8826,-2.8319,-2.8334,-2.7832,-2.6782,-2.7355,-2.7355,-2.6782,-2.6782,-2.7379,-2.8496,-2.8442,-2.9021,-3.0133,-3.0139,-3.0516,-3.119,-3.119,-3.119,-3.119,-3.119,-3.0463,-2.9471,-2.9728,-2.9816,-2.9851,-2.9937,-3.0003,-3.0079,-2.9915,-2.9909,-2.9951,-2.9765,-2.9647,-2.9521,-2.9119,-2.8991,-2.8828,-2.8123,-2.8457,-2.8851,-2.8191,-2.8539,-2.8796,-2.797,-2.7291,-2.6557,-2.5605,-2.4869,-2.4393,-2.4284,-2.4561,-2.4507,-2.363,-2.3695,-2.3339,-2.1929,-2.1754,-2.1446,-2.0619,-2.0542,-2.0465,-2.0312,-2.0312,-1.9696,-1.8292,-1.8904,-1.9012,-1.8309,-1.8297,-1.8625,-1.9333,-1.9417,-1.9776,-2.0485,-2.0524,-2.0565,-2.0586,-2.0586,-2.056,-1.6308,-1.7179,-1.8277,-1.9387,-2.0592,-2.1724,0.0,0.0,-2.4253,-2.4926,-2.5644,-2.6378,-2.7111,-2.8338,-2.9445,-3.0073,-3.0238,-3.0133,-2.9639,-2.9011,-2.8353,-2.77,-2.7685,-2.7679,-2.7679,-2.7679,-2.7679,-2.7679,-2.7705,-2.771,-2.771,-2.776,-2.776,-2.771,-2.771,-2.763,-2.7505,-2.758,-2.758,-2.7505,-2.7505,-2.7834,-2.8511,-2.8481,-2.8841,-2.954,-3.0041,-3.0633,-3.119,-3.119,-3.119,-3.119,-3.119,-3.1089,-3.0937,-3.1014,-3.1014,-3.1074,-3.1418,-3.0932,-3.0199,-3.0867,-3.0394,-2.9638,-2.9937,-2.9851,-2.9521,-2.9098,-2.8997,-2.891,-2.8456,-2.8652,-2.8975,-2.8906,-2.892,-2.8796,-2.797,-2.7732,-2.7218,-2.5697,-2.5329,-2.5094,-2.4557,-2.4654,-2.4507,-2.363,-2.3809,-2.3726,-2.2774,-2.2639,-2.2312,-2.1466,-2.137,-2.1081,-2.0369,-2.0312,-2.0215,-2.0023,-2.0111,-2.0111,-2.0015,-2.0019,-2.0084,-2.0246,-2.0268,-2.0313,-2.0406,-2.0425,-2.0443,-2.0508,-2.0508,-2.0546,-1.6725,-1.78,-1.9053,-2.0683,-2.1584,-2.2543,-2.4357,-2.4882,-2.5336,-2.6504,-2.7203,-2.7842,-2.8629,-2.9148,-2.9557,0.0,-2.9968,-2.9739,-2.8987,-2.8076,-2.7181,-2.6469,-2.6123,-2.6509,-2.8053,-2.7814,-2.7739,-2.8143,-2.7799,-2.7625,-2.7625,-2.7625,-2.7625,-2.7625,-2.7625,-2.7625,-2.7625,-2.7625,-2.7625,-2.7625,-2.7625,-2.771,-2.7993,-2.8319,-2.9012,-2.9935,-3.0208,-3.0891,-3.1833,-3.1833,-3.2087,-3.2476,-3.2476,-3.2222,-3.1782,-3.136,-3.119,-3.123,-3.1372,-3.1147,-3.0811,-3.1119,-3.0896,-3.0516,-3.0756,-3.0497,-3.0145,-3.0071,-3.0044,-2.9997,-2.9828,-3.0101,-3.0283,-2.9824,-2.9714,-2.9494,-2.8668,-2.8136,-2.7603,-2.6924,-2.641,-2.6072,-2.5912,-2.5686,-2.5404,-2.5156,-2.4938,-2.4505,-2.3667,-2.3571,-2.3225,-2.235,-2.2254,-2.1927,-2.1081,-2.1004,-2.0812,-2.0331,-2.0312,-2.0312,-2.0312,-2.0312,-2.0312,-2.035,-2.035,-2.033,-2.0347,-2.092,-2.0956,-2.0458,-2.1007,-2.0993,-1.7235,-1.8393,-1.968,-2.1373,-2.2485,-2.3612,-2.5315,-2.5873,-2.6361,-2.755,-2.7905,-2.814,-2.8682,-2.8523,-2.8383,-2.8697,-2.8616,-2.8323,-2.7897,-2.668,-2.573,-2.5494,-2.4761,-2.5139,-2.7554,-2.7485,-2.7575,-2.8263,-2.7859,-2.7625,-2.7625,-2.7625,-2.7625,-2.7625,-2.7754,-2.7769,-2.7625,-2.7985,-2.7985,-2.7625,-2.7769,-2.7754,-2.761,-2.8042,-2.9014,-3.0359,-3.0359,-3.1215,-3.2611,-3.2797,-3.3085,-3.3423,-3.3626,-3.3119,-3.2263,-3.1681,-3.136,-3.1224,-3.1427,-3.1495,-3.1495,-3.1495,-3.1495,-3.1482,-3.1324,-3.1062,-3.08,-3.0769,-3.0887,-3.0921,-3.0856,-3.1128,-3.1237,-3.0668,-3.0522,-3.032,-2.9512,-2.9053,-2.8594,-2.7934,-2.7512,-2.7175,-2.6935,-2.657,-2.6325,-2.6275,-2.5929,-2.537,-2.4543,-2.4245,-2.386,-2.3225,-2.2928,-2.2543,-2.1908,-2.187,-2.162,-2.1023,-2.0985,-2.0985,-2.0985,-2.0985,-2.0985,-2.0985,-2.0985,-2.0985,-2.0985,-2.1713,-2.1737,-2.1104,-2.1795,-2.1648,-1.7852,-1.8973,-2.0044,-2.1222,-2.3286,-2.5188,-2.5819,-2.6992,-2.7994,-2.8144,-2.7732,-2.7148,-2.6678,-2.6148,-2.5952,-2.6525,-2.6064,-2.5841,-2.6354,-2.491,-2.4236,-2.5343,-2.4014,-2.3678,0.0,-2.6258,-2.6901,-2.761,-2.7625,-2.7625,-2.7625,-2.7625,-2.7625,-2.7625,-2.8218,-2.8248,-2.7625,-2.8876,-2.8861,-2.7625,-2.8248,-2.8218,-2.7625,-2.7625,-2.8658,-3.0491,-3.0491,-3.1593,-3.3423,-3.4134,-3.4032,-3.3474,-3.4184,-3.3575,-3.2313,-3.2256,-3.1799,-3.1292,-3.2002,-3.2297,-3.2297,-3.2297,-3.2297,-3.2144,-3.1416,-3.1234,-3.1203,-3.0802,-3.1023,-3.1309,-3.0966,-3.1154,-3.1384,-3.1366,-3.1347,-3.1127,-3.0338,-3.076,-3.0595,-2.8246,-2.8411,-2.8496,-2.7138,-2.7039,-2.6964,-2.6306,-2.6416,-2.6255,-2.538,-2.4582,-2.4091,-2.4052,-2.3302,-2.2793,-2.2754,-2.2754,-2.2754,-2.2735,-2.2716,-2.2716,-2.2716,-2.2716,-2.2716,-2.2716,-2.2716,-2.2716,-2.2716,-2.2754,-2.279,-2.2823,-2.2856,-2.2423,-1.8442,-1.9826,-2.1424,-2.3454,-2.4406,-2.5445,-2.7551,-2.7596,-2.7255,-2.71,-2.6161,-2.5129,-2.4337,-2.3595,-2.3319,-2.3979,-2.4239,-2.4238,-2.3906,-2.3649,-2.3204,-2.2336,-2.2463,0.0,0.0,0.0,0.0,-2.6871,-2.6916,-2.7111,-2.7595,-2.7625,-2.7784,-2.8233,-2.8472,-2.8697,-2.8906,-2.9355,-2.9355,-2.8906,-2.9146,-2.8906,-2.8248,-2.8248,-2.8834,-2.9845,-3.029,-3.1616,-3.3528,-3.4196,-3.4641,-3.4895,-3.5148,-3.4336,-3.3034,-3.3034,-3.2239,-3.1241,-3.1461,-3.1562,-3.1562,-3.1562,-3.1562,-3.1574,-3.1576,-3.1616,-3.1673,-3.1844,-3.225,-3.2563,-3.2466,-3.2693,-3.2852,-3.232,-3.221,-3.199,-3.1164,-3.1201,-3.0999,-2.9641,-2.9622,-2.9531,-2.87,-2.8258,-2.7657,-2.6634,-2.6041,-2.563,-2.5341,-2.5063,-2.4909,-2.4909,-2.4639,-2.4235,-2.3706,-2.3667,-2.3417,-2.2831,-2.2793,-2.2793,-2.2793,-2.2793,-2.2793,-2.2793,-2.2793,-2.2793,-2.2793,-2.3437,-2.3424,-2.2848,-2.3463,-2.3302,-1.9547,-2.1117,-2.2841,-2.4826,-2.5397,-2.5841,-2.7417,-2.6812,-2.5628,-2.4855,-2.3652,-2.243,-2.1453,-2.0718,-2.0522,-2.1363,-2.1614,-2.183,-2.215,-2.2161,-2.1953,-2.1629,-2.1719,-2.2205,0.0,0.0,0.0,-2.6479,-2.7036,-2.75,-2.7919,-2.8158,-2.8487,-2.8936,-2.916,-2.9385,-2.9579,-3.0043,-3.0163,-2.9909,-2.9684,-2.9355,-2.8951,-2.8951,-2.941,-3.0313,-3.0958,-3.227,-3.3964,-3.4594,-3.5182,-3.5622,-3.5622,-3.4878,-3.3795,-3.3795,-3.3034,-3.1985,-3.1985,-3.1799,-3.163,-3.1901,-3.1799,-3.1608,-3.1593,-3.1696,-3.188,-3.2384,-3.2858,-3.3243,-3.3379,-3.3606,-3.3678,-3.3146,-3.3036,-3.2816,-3.2008,-3.2045,-3.1935,-3.0834,-3.0632,-3.0446,-2.9798,-2.8913,-2.8091,-2.7484,-2.6335,-2.5493,-2.5312,-2.5243,-2.5214,-2.5284,-2.5303,-2.5101,-2.4562,-2.4524,-2.4293,-2.3735,-2.3697,-2.3697,-2.3697,-2.3697,-2.3697,-2.3697,-2.3697,-2.3697,-2.3697,-2.4293,-2.4274,-2.3716,-2.4312,-2.4139,-2.1167,-2.2824,-2.433,-2.5372,-2.6025,-2.6264,-2.5649,-2.4657,-2.3389,-2.1669,-2.0439,-1.9346,0.0,0.0,-1.7702,-1.8807,-1.8593,-1.9032,-2.1142,-2.0589,-2.0792,0.0,0.0,0.0,0.0,0.0,0.0,-2.653,0.0,-2.8577,-2.8652,-2.9235,-2.9594,-2.9624,-3.0193,-3.0253,-2.9729,-3.0971,-3.124,-3.0552,-2.9968,-2.9669,-2.9624,-2.9624,-3.0319,-3.1579,-3.2257,-3.3323,-3.4576,-3.5253,-3.5577,-3.5622,-3.5622,-3.5165,-3.4489,-3.4489,-3.4032,-3.3406,-3.344,-3.2949,-3.2432,-3.3119,-3.2831,-3.2087,-3.141,-3.147,-3.188,-3.235,-3.2809,-3.3302,-3.368,-3.3762,-3.3807,-3.3807,-3.3807,-3.3587,-3.2834,-3.3256,-3.333,-3.177,-3.1384,-3.1115,-3.0362,-2.9074,-2.8297,-2.8722,-2.7218,-2.5892,-2.5416,-2.5138,-2.5077,-2.5264,-2.5274,-2.5303,-2.5303,-2.5303,-2.5303,-2.5303,-2.5303,-2.5303,-2.5303,-2.5303,-2.5303,-2.5303,-2.5303,-2.5303,-2.5303,-2.5303,-2.5303,-2.5303,-2.5303,-2.4889,-2.2899,-2.4255,-2.536,-2.6063,-2.6025,-2.5573,-2.4619,-2.3226,-2.1543,-1.9472,-1.8493,-1.7652,-1.6534,-1.6559,-1.7099,-1.8229,-1.897,0.0,-2.074,-2.1694,0.0,-2.2515,0.0,-2.3416,-2.4099,-2.4874,0.0,0.0,-2.7861,-2.8278,-2.928,-2.949,-2.9789,-3.0253,-3.0417,-3.0911,-3.1764,-3.2093,-3.1928,-3.127,-3.1106,-3.0761,-3.0268,-3.0268,-3.0468,-3.0824,-3.1548,-3.2602,-3.3887,-3.4592,-3.5144,-3.5622,-3.5622,-3.5165,-3.4489,-3.4489,-3.4032,-3.3491,-3.4032,-3.3372,-3.2307,-3.251,-3.207,-3.1444,-3.1258,-3.147,-3.1808,-3.1951,-3.2565,-3.3214,-3.3332,-3.3578,-3.3807,-3.3807,-3.3807,-3.3733,-3.3532,-3.366,-3.3495,-3.2504,-3.1329,-3.0502,-3.0509,-2.9704,-2.8951,-2.856,-2.7464,-2.6521,-2.611,-2.5342,-2.4904,-2.5065,-2.5088,-2.5141,-2.5303,-2.5303,-2.5303,-2.5303,-2.5303,-2.5303,-2.5303,-2.5303,-2.5303,-2.5303,-2.5303,-2.5303,-2.5303,-2.5303,-2.5303,-2.5303,-2.5303,-2.5187,-2.4381,-2.5498,-2.6352,-2.644,-2.5622,-2.448,-2.3491,-2.1346,-1.9182,-1.7713,-1.6848,-1.6133,-1.5433,-1.5778,-1.6446,0.0,0.0,0.0,-2.0137,-2.1518,-2.2573,0.0,-2.3615,0.0,-2.4839,-2.57,-2.6881,0.0,-2.804,-2.8572,-3.0332,-3.0317,-3.0628,-3.1375,-3.1659,-3.2048,-3.2512,-3.2512,-3.2183,-3.1482,-3.1482,-3.133,-3.0956,-3.0956,-3.0956,-3.0956,-3.1704,-3.2498,-3.3251,-3.4186,-3.483,-3.5207,-3.547,-3.5368,-3.4979,-3.4979,-3.4726,-3.4387,-3.4472,-3.3947,-3.3203,-3.2882,-3.2273,-3.1613,-3.1292,-3.1351,-3.1565,-3.1752,-3.2196,-3.2752,-3.3538,-3.3633,-3.367,-3.4193,-3.4064,-3.3807,-3.3807,-3.3807,-3.3568,-3.2761,-3.188,-3.1195,-3.0974,-3.028,-2.9662,-2.9401,-2.8183,-2.7121,-2.6619,-2.5461,-2.4737,-2.4986,-2.501,-2.5088,-2.5274,-2.5303,-2.5303,-2.5303,-2.5303,-2.5303,-2.5303,-2.5303,-2.5303,-2.5303,-2.5303,-2.5303,-2.5303,-2.5303,-2.5303,-2.5303,-2.5303,-2.5303,-2.5515,-2.6458,-2.7143,-2.6521,-2.4927,-2.3192,-2.2154,-1.9359,-1.6818,-1.6291,-1.5441,-1.4755,-1.4712,-1.5102,-1.5728,-1.6392,0.0,-1.8006,-1.9685,-2.0828,-2.2146,-2.3904,-2.4104,-2.4608,-2.5944,-2.653,-2.7392,-2.8893,-2.8402,-2.9072,-3.1442,-3.1387,-3.1693,-3.2572,-3.3275,-3.3305,-3.2647,-3.2736,-3.2437,-3.1735,-3.1704,-3.1601,-3.1601,-3.1601,-3.1556,-3.1539,-3.2267,-3.257,-3.2695,-3.3937,-3.4528,-3.4688,-3.5362,-3.5622,-3.5622,-3.5622,-3.5622,-3.552,-3.4861,-3.4641,-3.4489,-3.3558,-3.2814,-3.2195,-3.1529,-3.1275,-3.1269,-3.1743,-3.1821,-3.2143,-3.3648,-3.3628,-3.3454,-3.4501,-3.4275,-3.3807,-3.3807,-3.3807,-3.3587,-3.2908,-3.2687,-3.2394,-3.1678,-3.0889,-3.0396,-3.0535,-2.9086,-2.769,-2.6953,-2.5558,-2.4701,-2.4956,-2.4974,-2.5065,-2.5274,-2.5303,-2.5303,-2.5303,-2.5303,-2.5303,-2.5303,-2.5303,-2.5303,-2.5303,-2.5303,-2.5303,-2.5303,-2.5303,-2.5303,-2.5303,-2.5303,-2.5303,-2.5729,-2.6513,-2.7001,-2.5703,-2.3941,-2.2018,-2.0313,-1.7792,0.0,-1.5195,-1.4224,-1.3602,-1.3978,-1.4241,-1.4844,-1.6178,-1.693,-1.8056,-2.0223,-2.1079,-2.2284,0.0,-2.4682,-2.5313,-2.6898,-2.7126,0.0,0.0,-2.8879,-2.9249,-3.1887,-3.1974,-3.2378,-3.332,-3.3963,-3.3978,-3.3335,-3.3858,-3.3799,-3.3155,-3.2602,-3.2347,-3.2347,-3.2347,-3.2048,-3.1569,-3.221,0.0,-3.2641,-3.3443,-3.4087,-3.4688,-3.5362,-3.5622,-3.5622,-3.5622,-3.5622,-3.5605,-3.547,-3.5419,-3.5098,-3.3119,-3.2391,-3.2256,-3.2138,-3.1664,-3.1348,-3.2021,-3.2008,-3.1878,-3.2161,-3.2737,-3.325,-3.3454,-3.366,-3.3807,-3.3807,-3.3807,-3.3752,-3.3623,-3.3054,-3.2577,-3.243,-3.1715,-3.0987,-3.0354,-2.9425,-2.8264,-2.6841,-2.5831,-2.5134,-2.4861,-2.4828,-2.4962,-2.5264,-2.5303,-2.5303,-2.5303,-2.5303,-2.5303,-2.5303,-2.5303,-2.5303,-2.5303,-2.5303,-2.5303,-2.5303,-2.5303,-2.5303,-2.5303,-2.5303,-2.5303,-2.6294,-2.6142,-2.5575,-2.4907,-2.2566,-2.0091,-1.877,0.0,0.0,-1.3884,-1.3354,-1.2956,-1.339,-1.3839,-1.4525,-1.5792,-1.6286,-1.7301,-1.9521,-2.0539,-2.1882,-2.413,-2.4644,-2.5473,-2.7118,-2.7544,-2.8265,-2.9507,-2.925,-2.9822,-3.1769,-3.2316,-3.2948,-3.3739,-3.456,-3.4681,-3.4008,-3.4322,-3.4143,-3.3499,-3.317,-3.3021,-3.3021,-3.3021,-3.2662,-3.2063,-3.2377,-3.2299,-3.2064,-3.2788,-3.3479,-3.4137,-3.48,-3.5299,-3.5622,-3.5622,-3.5622,-3.5571,-3.5165,-3.5301,-3.5318,-3.3474,-3.3119,-3.3355,-3.2983,-3.2357,-3.1833,-3.2188,-3.2185,-3.2214,-3.2896,-3.3351,-3.3913,-3.4807,-3.4732,-3.4321,-3.3899,-3.4137,-3.4302,-3.388,-3.3844,-3.3733,-3.3311,-3.2559,-3.1751,-3.0944,-3.0136,-2.9053,-2.7438,-2.6888,-2.617,-2.493,-2.4804,-2.4942,-2.5264,-2.5303,-2.5303,-2.5303,-2.5303,-2.5303,-2.5303,-2.5303,-2.5303,-2.5303,-2.5303,-2.5303,-2.5303,-2.5303,-2.5303,-2.5303,-2.5303,-2.5303,-2.5847,-2.5286,-2.4084,-2.37,-2.1039,-1.8312,-1.74,-1.4581,-1.2385,-1.3121,-1.2738,-1.2443,-1.2948,-1.3518,-1.4182,0.0,-1.5511,-1.6442,-1.8375,-1.9734,-2.1305,-2.3552,-2.4506,0.0,-2.7293,-2.7959,0.0,-2.9063,-2.9528,-3.0302,-3.1439,-3.2469,-3.3321,-3.4013,-3.4758,-3.5026,-3.4696,-3.4696,-3.4442,-3.3918,-3.3769,-3.3709,-3.3709,-3.3709,-3.3275,-3.2527,-3.2662,-3.2273,-3.1582,-3.2272,-3.3002,-3.3684,-3.4333,-3.5005,-3.5622,-3.5622,-3.5622,-3.5537,-3.4945,-3.5131,-3.5436,-3.4269,-3.4049,-3.415,-3.3592,-3.2763,-3.2121,-3.2442,-3.2408,-3.2564,-3.3739,-3.4047,-3.4443,-3.584,-3.5575,-3.4825,-3.4192,-3.4559,-3.4807,-3.4192,-3.4578,-3.4734,-3.3935,-3.3293,-3.2596,-3.177,-3.0962,-2.9903,-2.8334,-2.7941,-2.7113,-2.525,-2.5054,-2.5132,-2.5283,-2.5303,-2.5303,-2.5303,-2.5303,-2.5303,-2.5303,-2.5303,-2.5303,-2.5303,-2.5303,-2.5303,-2.5303,-2.5303,-2.5303,-2.5303,-2.5303,-2.5303,-2.3047,-2.3401,-2.3369,-2.1669,-1.9404,-1.7307,-1.6129,0.0,-1.2464,-1.3538,-1.2654,-1.195,-1.2752,-1.3068,-1.3358,-1.3882,0.0,-1.6071,-1.7291,-1.8882,-2.0715,-2.2949,0.0,0.0,-2.7858,-2.8524,-2.9089,-2.9666,-2.9767,-3.019,-3.1175,-3.2167,-3.3045,-3.3959,-3.4095,-3.4514,-3.5415,-3.5415,-3.5385,-3.531,-3.4681,-3.4382,-3.4382,-3.4382,-3.3709,-3.2542,-3.314,-3.2691,0.0,-3.2272,-3.3002,-3.3684,-3.4333,-3.5005,-3.5622,-3.5622,-3.5622,-3.5605,-3.5537,-3.5554,-3.5605,-3.5453,-3.4556,-3.3491,-3.3423,-3.2425,-3.1579,-3.2916,-3.2814,-3.25,-3.3287,-3.3785,-3.4164,-3.4429,-3.4775,-3.4972,-3.4899,-3.4935,-3.4972,-3.4899,-3.4935,-3.4734,-3.3935,-3.3733,-3.3421,-3.2614,-3.1806,-3.0783,-2.9423,-2.8402,-2.7317,-2.6023,-2.5887,-2.573,-2.534,-2.5303,-2.5303,-2.5303,-2.5303,-2.5303,-2.5303,-2.5303,-2.5303,-2.5303,-2.5303,-2.5303,-2.5303,-2.5303,-2.5303,-2.5303,-2.5303,-2.5303,-2.1348,-2.1749,-2.1571,-2.036,-1.8331,-1.6333,-1.5014,0.0,-1.1965,-1.2383,-1.2019,-1.1792,-1.2373,-1.252,-1.2843,-1.3648,0.0,0.0,-1.5982,-1.7098,-1.8851,-2.1734,-2.3617,-2.5548,0.0,0.0,-2.9164,-2.9741,-2.9792,-2.9934,-3.0343,-3.1254,-3.196,-3.2321,-3.289,-3.3602,-3.461,-3.461,-3.4905,-3.5504,-3.5235,-3.51,-3.51,-3.51,-3.4577,-3.3694,-3.3559,-3.32,0.0,-3.2128,-3.2803,-3.4174,-3.4048,-3.464,-3.5622,-3.5622,-3.5622,-3.5622,-3.5622,-3.5622,-3.5622,-3.5622,-3.4912,-3.4066,-3.4066,-3.3339,-3.2645,-3.3237,-3.3508,-3.3677,-3.3981,-3.4622,-3.5199,-3.5244,-3.5137,-3.5137,-3.5679,-3.5789,-3.5789,-3.5789,-3.5789,-3.5514,-3.4688,-3.4119,-3.3532,-3.2724,-3.1916,-3.1029,-3.0005,-2.9085,-2.8194,-2.7362,-2.6389,-2.5603,-2.5038,-2.5006,-2.5006,-2.5006,-2.5065,-2.5111,-2.5111,-2.5243,-2.5303,-2.5303,-2.5303,-2.5303,-2.5303,-2.5303,-2.5303,-2.5303,-2.5303,-2.5303,-1.9155,-1.9533,-1.9281,-1.864,-1.6991,-1.5186,-1.4023,0.0,-1.1489,-1.1699,-1.1694,-1.1699,-1.2148,-1.2355,-1.2675,0.0,0.0,-1.3335,-1.481,-1.5795,-1.7399,-2.0013,0.0,-2.4214,-2.7058,-2.8413,-2.9352,-2.9767,-2.9792,-2.9792,-2.9792,-3.0419,-3.0895,-3.118,-3.2105,-3.3031,-3.4027,-3.4312,-3.4839,-3.5504,-3.5504,-3.5504,-3.5504,-3.5504,-3.513,-3.4442,-3.3978,-3.3679,0.0,-3.2287,-3.289,-3.4524,-3.383,-3.4431,-3.5618,-3.5599,-3.5622,-3.5622,-3.5622,-3.5622,-3.5622,-3.5622,-3.5115,-3.4455,-3.4235,-3.366,-3.3119,-3.3339,-3.41,-3.4776,-3.4556,-3.5249,-3.6045,-3.5911,-3.5705,-3.5707,-3.6476,-3.6652,-3.6652,-3.6652,-3.645,-3.6028,-3.5137,-3.4339,-3.3605,-3.3054,-3.2063,-3.1232,-3.0733,-2.9687,-2.8758,-2.8161,-2.6822,-2.5761,-2.5194,-2.494,-2.4804,-2.4804,-2.493,-2.501,-2.501,-2.5184,-2.5303,-2.5303,-2.5303,-2.5303,-2.5303,-2.5303,-2.5303,-2.5303,-2.5303,-2.5303,-1.6105,-1.6618,-1.665,-1.6262,-1.5107,-1.3936,-1.3086,-1.1865,-1.1162,-1.2041,-1.1865,-1.1699,-1.2148,-1.2691,-1.2906,-1.2319,-1.3286,0.0,-1.3856,-1.5317,-1.6763,0.0,-1.9681,-2.2143,-2.5177,-2.8089,-2.9779,-2.9792,-2.9792,0.0,-2.9792,-2.9792,-3.0203,-3.118,-3.2105,-3.3031,-3.4027,-3.4986,-3.5504,-3.5504,-3.5504,-3.5504,-3.5504,-3.5504,-3.513,-3.4472,-3.4472,-3.4098,0.0,-3.2781,-3.3258,-3.4415,-3.381,-3.4424,-3.5597,-3.5585,-3.5622,-3.5622,-3.5622,-3.5622,-3.5622,-3.5622,-3.5115,-3.4353,-3.3643,-3.2899,-3.2442,-3.3186,-3.4472,-3.5436,-3.4692,-3.5446,-3.6313,-3.5978,-3.6309,-3.6837,-3.7351,-3.7477,-3.7477,-3.7477,-3.6835,-3.6028,-3.5137,-3.4339,-3.3807,-3.3788,-3.243,-3.1489,-3.1749,-3.0157,-2.878,-2.8164,-2.7184,-2.6429,-2.6029,-2.5261,-2.4804,-2.4804,-2.493,-2.501,-2.501,-2.5184,-2.5303,-2.5303,-2.5303,-2.5303,-2.5303,-2.5303,-2.5303,-2.5303,-2.5303,-2.5303,-1.3973,-1.493,-1.5546,-1.4577,-1.3799,-1.3047,-1.2224,-1.1426,-1.1074,-1.166,-1.1426,-1.1348,-1.2044,-1.2355,-1.2437,-1.2227,-1.2799,0.0,0.0,0.0,0.0,-1.8246,-2.1782,-2.491,0.0,0.0,-2.8937,-2.9714,-2.9792,-2.9792,-2.9792,-2.9792,-2.9934,-3.0203,-3.0495,-3.1415,-3.3031,-3.3394,-3.4192,-3.5504,-3.5504,-3.5504,-3.5504,-3.5504,-3.5385,-3.516,-3.4681,-3.4352,-3.4083,-3.2976,-3.3258,-3.4415,-3.381,-3.4441,-3.5613,-3.5602,-3.5622,-3.5622,-3.5622,-3.5622,-3.5622,-3.5622,-3.5115,-3.4353,-3.3626,-3.3592,-3.3846,-3.4083,-3.4134,-3.4167,-3.4421,-3.4651,-3.5065,-3.6006,-3.606,-3.6215,-3.7482,-3.7643,-3.7643,-3.8212,-3.7661,-3.6853,-3.6028,-3.5183,-3.4431,-3.388,-3.243,-3.1434,-3.1531,-3.0037,-2.8709,-2.7972,-2.7135,-2.6326,-2.5653,-2.4856,-2.4393,-2.4393,-2.4682,-2.485,-2.485,-2.5149,-2.5303,-2.5303,-2.5303,-2.5303,-2.5303,-2.5303,-2.5303,-2.5303,-2.5303,-2.5303,-1.2098,-1.3127,-1.3978,-1.3017,-1.2578,0.0,-1.1475,-1.0977,-1.0791,-1.1221,-1.1094,-1.1074,-1.1587,-1.1865,-1.1973,-1.1973,-1.2353,0.0,0.0,0.0,0.0,-1.8438,0.0,0.0,0.0,-2.7449,-2.8426,-2.9106,-2.9546,-2.9792,-2.9792,-2.9792,-2.9691,-2.9478,-3.0025,-3.1057,-3.2607,-3.2961,-3.3905,-3.5504,-3.5504,-3.5504,-3.5504,-3.5504,-3.5504,-3.5474,-3.4771,-3.4472,0.0,-3.3051,-3.3469,-3.4845,-3.3921,-3.4764,-3.6355,-3.5803,-3.5808,-3.6011,-3.5723,-3.5622,-3.5622,-3.5622,-3.5115,-3.4404,-3.3947,-3.3744,-3.366,-3.366,-3.3541,-3.3508,-3.3964,-3.4184,-3.461,-3.6039,-3.5917,-3.5864,-3.7554,-3.7548,-3.7546,-3.8511,-3.8046,-3.7221,-3.6431,-3.5587,-3.4715,-3.3917,-3.2687,-3.1733,-3.1439,-3.0265,-2.9145,-2.8338,-2.7273,-2.641,-2.5897,-2.4832,-2.419,-2.419,-2.4512,-2.4716,-2.4804,-2.5049,-2.5224,-2.5303,-2.5303,-2.5303,-2.5303,-2.5303,-2.5303,-2.5303,-2.5303,-2.5303,0.0,-1.1416,-1.1992,-1.1616,-1.1508,-1.14,-1.0957,0.0,0.0,-1.082,-1.0889,-1.0879,-1.0947,-1.1332,-1.1616,-1.1645,-1.2012,0.0,0.0,-1.4404,0.0,0.0,-2.1155,0.0,-2.3461,-2.6154,-2.7968,-2.8084,-2.9123,-2.9704,-2.9792,-2.9754,-2.9503,-2.9001,-3.0336,-3.1496,-3.2398,-3.3322,-3.4292,-3.5365,-3.532,-3.5385,-3.5429,-3.5385,-3.537,0.0,-3.4681,-3.4382,-3.4247,-3.3021,-3.3666,-3.5251,-3.3994,-3.5198,-3.739,-3.6041,-3.6016,-3.6586,-3.5876,-3.5622,-3.5605,-3.5554,-3.503,-3.4421,-3.4472,-3.3491,-3.2374,-3.2466,-3.2899,-3.3423,-3.3474,-3.3981,-3.4805,-3.6035,-3.5827,-3.5801,-3.7363,-3.7262,-3.7189,-3.8358,-3.7991,-3.7221,-3.6431,-3.5587,-3.4715,-3.3917,-3.3128,-3.232,-3.1494,-3.0705,-2.9879,-2.8994,-2.7585,-2.6649,-2.6521,-2.5089,-2.419,-2.419,-2.441,-2.4626,-2.479,-2.5013,-2.5168,-2.5303,-2.5303,-2.5303,-2.5303,-2.5303,-2.5303,-2.5303,-2.5303,-2.5303,-0.9395,0.0,-1.0713,-1.0645,-1.0626,-1.0596,0.0,0.0,0.0,0.0,0.0,0.0,0.0,-1.1538,-1.1714,-1.2021,-1.2705,-1.3281,-1.3477,-1.5947,0.0,-1.9463,-2.1668,-2.32,-2.3475,-2.5132,-2.6691,-2.798,-2.8332,-2.8875,-2.9741,-2.9365,-2.9277,-2.9578,-2.9935,-3.0144,-3.0214,-3.1089,-3.2288,-3.3733,-3.3921,-3.4233,-3.4696,-3.4203,-3.3963,-3.3963,-3.3799,-3.344,-3.2961,-3.2647,-3.2811,-3.3199,-3.2918,-3.3868,-3.5324,-3.4987,-3.5261,-3.5859,-3.569,-3.5622,-3.552,-3.4945,-3.4252,-3.3761,-3.432,-3.3863,-3.3254,-3.3812,-3.3694,-3.3541,-3.41,-3.437,-3.4718,-3.5596,-3.5751,-3.5817,-3.5896,-3.6644,-3.7314,-3.7257,-3.7387,-3.7221,-3.6431,-3.5587,-3.4715,-3.3917,-3.3128,-3.232,-3.1494,-3.0705,-2.9659,-2.8227,-2.7732,-2.7016,-2.5786,-2.4759,-2.419,-2.419,-2.4545,-2.4746,-2.4804,-2.5722,-2.5936,-2.5303,-2.5303,-2.5303,-2.5303,-2.5303,-2.5303,-2.5303,-2.5303,-2.5303,-0.9238,-0.9922,-1.0518,-1.0371,-1.043,-1.0566,-1.0566,0.0,0.0,0.0,0.0,0.0,0.0,0.0,0.0,-1.2112,-1.2949,0.0,0.0,0.0,-1.8887,-2.0352,-2.1553,-2.2478,0.0,-2.4417,-2.5735,-2.6642,-2.7797,-2.8637,-2.9001,-2.8963,-2.8837,-2.8649,-2.8637,-2.9193,-3.0243,-3.073,-3.1723,-3.3172,-3.3244,-3.3572,-3.4008,-3.3664,-3.3499,-3.3484,-3.317,-3.2841,-3.2497,-3.2183,-3.2447,-3.3035,-3.2699,-3.3653,-3.5096,-3.4726,-3.5046,-3.5613,-3.5588,-3.5402,-3.503,-3.4624,-3.4218,-3.3981,-3.437,-3.4455,-3.4438,-3.4472,-3.3964,-3.3575,-3.4303,-3.4489,-3.459,-3.5013,-3.4898,-3.4836,-3.5011,-3.5419,-3.605,-3.6939,-3.7046,-3.6798,-3.6376,-3.5587,-3.4715,-3.3917,-3.344,-3.2724,-3.1549,-3.1017,-3.0136,-2.8521,-2.8026,-2.7291,-2.6062,-2.5199,-2.4633,-2.4358,-2.4623,-2.4828,-2.4891,-2.5906,-2.6288,-2.5899,-2.5495,-2.5303,-2.5303,-2.5303,-2.5303,-2.5303,-2.5303,-2.5303,-0.9368,-1.0225,-1.0889,-1.04,-1.0596,-1.0908,-1.0908,0.0,0.0,0.0,0.0,0.0,0.0,-1.1416,0.0,0.0,0.0,0.0,-1.6816,-1.7803,-1.8975,-2.082,-2.1211,0.0,-2.2158,-2.3828,-2.4915,-2.4993,-2.7203,-2.8423,-2.8122,-2.8461,-2.8285,-2.7444,-2.7406,-2.8482,-3.0695,-3.0671,-3.1229,-3.2421,-3.26,-3.2859,-3.3136,-3.3169,-3.32,-3.3155,-3.2602,0.0,-3.2317,-3.1706,-3.2228,-3.3321,-3.2709,-3.3599,-3.5214,-3.4525,-3.4824,-3.5514,-3.5463,-3.4901,-3.4189,-3.4411,-3.4336,-3.4218,-3.4556,-3.503,-3.5351,-3.481,-3.4218,-3.3897,-3.4506,-3.4573,-3.4489,-3.4489,-3.3931,-3.3556,-3.4263,-3.411,-3.4413,-3.6448,-3.6424,-3.6072,-3.6025,-3.5329,-3.4596,-3.3899,-3.3807,-3.322,-3.1604,-3.1384,-3.0779,-2.9159,-2.8393,-2.7603,-2.6686,-2.5993,-2.53,-2.4551,-2.4685,-2.4996,-2.5416,-2.602,-2.65,-2.6794,-2.5947,-2.5418,-2.5303,-2.5303,-2.5303,-2.5303,-2.5303,-2.5303,-0.8848,-1.0198,-1.1312,-1.0518,-1.0596,-1.0908,0.0,0.0,0.0,0.0,0.0,0.0,0.0,-1.208,-1.2383,0.0,0.0,-1.6426,0.0,0.0,-1.9746,-2.0078,0.0,-2.1543,-2.0928,-2.2956,-2.4468,-2.4971,-2.6178,-2.7205,-2.8059,-2.7745,-2.767,-2.7971,-2.7984,-2.817,-2.8556,-2.8352,-2.8597,-2.9389,-3.0319,-3.104,-3.1555,-3.1753,-3.1839,-3.1824,0.0,-3.1616,-3.1616,-3.1511,-3.1642,-3.1832,-3.1727,-3.2242,-3.3084,-3.2973,-3.3713,-3.4754,-3.4673,-3.3801,-3.2928,-3.4095,-3.3643,-3.2966,-3.4878,-3.5081,-3.4776,-3.5301,-3.5368,-3.5301,-3.5419,-3.4979,-3.4489,-3.4489,-3.3738,-3.3003,-3.273,-3.3512,-3.4207,-3.3829,-3.4564,-3.5089,-3.4727,-3.4308,-3.3935,-3.3825,-3.3807,-3.322,-3.1604,-3.1384,-3.0779,-2.9159,-2.8906,-2.8227,-2.6741,-2.6631,-2.6061,-2.4588,-2.4685,-2.5614,-2.7377,-2.6877,-2.6927,-2.7678,-2.6832,-2.6043,-2.5303,-2.5303,-2.5303,-2.5303,-2.5303,-2.5303,-0.8495,-0.9715,-1.0812,-1.0381,-1.0957,-1.1562,0.0,0.0,0.0,0.0,0.0,0.0,0.0,0.0,-1.3086,-1.4639,0.0,-1.7012,-1.8701,-1.9102,-1.9482,0.0,0.0,-2.085,-2.0918,-2.269,-2.3951,-2.4175,-2.5901,-2.6992,-2.7205,-2.7256,-2.7118,-2.6753,-2.6753,-2.6615,-2.6339,-2.62,-2.7223,-2.9307,-2.9803,-3.0483,-3.1382,-3.147,-3.1482,-3.1482,0.0,-3.1482,-3.1482,-3.1482,-3.1482,-3.1482,-3.1482,-3.1697,-3.2018,-3.2075,-3.2918,-3.3974,-3.357,-3.2973,-3.2578,-3.3564,-3.3169,-3.2544,-3.3981,-3.4184,-3.3981,-3.4336,-3.5013,-3.5622,-3.5622,-3.5064,-3.4387,-3.3998,-3.3257,-3.2535,-3.2107,-3.2526,-3.3087,-3.3354,-3.3745,-3.4098,-3.4364,-3.4069,-3.3807,-3.3807,-3.344,-3.2724,-3.1549,-3.1017,-3.0301,-2.9122,-2.8994,-2.8333,-2.6741,-2.668,-2.6172,-2.4861,-2.4864,-2.5602,-2.7129,-2.637,-2.6313,-2.7178,-2.6351,-2.5687,-2.5303,-2.5303,-2.5303,-2.5303,-2.5303,-2.5303,-0.8236,-0.9291,-1.0283,-1.0283,0.0,0.0,0.0,0.0,0.0,0.0,0.0,0.0,0.0,-1.2681,0.0,-1.5336,-1.6294,-1.7283,-1.8538,-1.8938,-1.9453,-2.0449,-2.0273,-2.0332,-2.1006,-2.2239,-2.3054,-2.3274,-2.5206,-2.6308,-2.6101,-2.6477,-2.6302,-2.5435,-2.541,-2.5222,-2.482,-2.482,-2.6065,-2.8633,-2.9008,-2.9741,-3.0734,-3.1113,-3.1317,-3.1482,-3.1482,-3.1482,-3.1482,-3.1482,-3.1482,-3.1482,-3.1482,-3.1482,-3.1522,-3.1743,-3.2384,-3.3013,-3.2602,-3.2352,-3.2265,-3.2908,-3.2628,-3.2188,-3.3119,-3.3288,-3.3186,-3.3355,-3.4218,-3.5098,-3.5098,-3.4539,-3.3829,-3.3271,-3.2577,-3.197,-3.1723,-3.1716,-3.2089,-3.3055,-3.3219,-3.3412,-3.4026,-3.3923,-3.3807,-3.3807,-3.3128,-3.232,-3.1494,-3.0705,-2.9824,-2.8833,-2.8723,-2.8081,-2.6465,-2.6153,-2.5709,-2.4934,-2.4962,-2.5482,-2.6553,-2.5967,-2.5928,-2.6582,-2.5947,-2.5495,-2.5303,-2.5303,-2.5303,-2.5303,-2.5303,-2.5303,-0.8002,-0.923,-1.0283,-1.0283,-1.0645,0.0,-1.252,-1.2831,0.0,-1.3194,0.0,0.0,0.0,-1.3064,-1.3556,-1.4118,-1.5894,-1.7624,-1.8816,0.0,-2.0459,-2.0557,-2.0537,-2.0537,-2.0605,-2.1169,-2.1908,-2.27,-2.3362,-2.408,-2.4868,-2.4971,-2.4958,-2.4883,-2.487,-2.4858,-2.482,-2.482,-2.4935,-2.5178,-2.6674,-2.7783,-2.8465,-2.9913,-3.0926,-3.1482,-3.1482,-3.1482,-3.1482,-3.1482,-3.1482,-3.1482,-3.1482,-3.1482,-3.1567,-3.2266,-3.2121,-3.1628,-3.2189,-3.1933,-3.149,-3.2176,-3.1867,-3.1529,-3.2966,-3.2916,-3.251,-3.322,-3.3491,-3.3558,-3.3558,-3.3,-3.2425,-3.2374,-3.1799,-3.1258,-3.123,-3.1545,-3.1842,-3.193,-3.2601,-3.3232,-3.3286,-3.3559,-3.3807,-3.3807,-3.3128,-3.232,-3.1494,-3.0705,-2.9604,-2.8044,-2.7879,-2.7218,-2.5623,-2.4795,-2.4432,-2.4528,-2.4831,-2.5482,-2.6553,-2.6544,-2.6544,-2.6601,-2.6544,-2.612,-2.5303,-2.5303,-2.5303,-2.5303,-2.5303,-2.5303,-0.7423,-0.8894,-1.0342,-1.0605,-1.0996,0.0,0.0,-1.3086,-1.3503,-1.2968,-1.337,0.0,0.0,0.0,-1.3464,-1.4305,-1.5492,-1.682,-1.8127,-1.8828,-1.9354,-1.973,-1.9766,-1.9766,-1.9766,-2.0544,-2.115,-2.1495,-2.2239,-2.2948,-2.345,-2.3806,-2.3732,-2.3228,-2.359,-2.3615,-2.3263,-2.3263,-2.3669,-2.4499,-2.6316,-2.7809,-2.8995,-3.0011,-3.0881,-3.1482,-3.1482,-3.1482,-3.1482,-3.1482,-3.1482,-3.1437,-3.1061,-3.0896,-3.0791,-3.0295,-3.044,-3.0742,-3.0179,-3.0318,-3.0794,-3.0981,-3.0875,-3.0799,-3.177,-3.1833,-3.1664,-3.1952,-3.2036,-3.2239,-3.3169,-3.2848,-3.2313,-3.2313,-3.1732,-3.119,-3.119,-3.1507,-3.1789,-3.1789,-3.2565,-3.3124,-3.2809,-3.3361,-3.3542,-3.2793,-3.2227,-3.1549,-3.076,-2.9953,-2.9035,-2.7915,-2.6888,-2.6245,-2.6153,-2.4942,-2.4506,-2.5186,-2.5009,-2.5076,-2.5589,-2.5734,-2.5793,-2.5793,-2.5793,-2.563,-2.5303,-2.5303,-2.5303,-2.5303,-2.5303,-2.5303,-0.7232,-0.8666,-1.0215,-1.0771,0.0,0.0,-1.2111,-1.3096,-1.3645,-1.2737,-1.2941,-1.2992,-1.2282,0.0,0.0,0.0,-1.4577,-1.5823,-1.7182,-1.785,-1.846,-1.9243,-1.9287,-1.9287,-1.9287,-1.9667,-2.0045,-2.0323,-2.0907,-2.1438,-2.1937,-2.251,-2.2592,-2.2083,-2.2422,-2.2435,-2.2058,-2.2046,-2.2713,-2.4015,-2.5595,-2.72,-2.8828,-2.9533,-3.0372,-3.121,-3.121,-3.133,-3.1452,-3.13,-3.1091,-3.0866,-3.0402,-3.0223,-3.0103,-2.9471,-2.9638,-3.0092,-2.934,-2.9688,-3.0319,-3.0098,-3.0251,-3.0617,-3.0838,-3.1055,-3.119,-3.119,-3.119,-3.1427,-3.2442,-3.2324,-3.1935,-3.1935,-3.1562,-3.119,-3.119,-3.1411,-3.166,-3.1789,-3.2332,-3.2695,-3.2517,-3.3136,-3.3249,-3.2166,-3.1664,-3.1109,-3.0301,-2.9292,-2.8227,-2.7145,-2.5823,-2.5236,-2.5805,-2.4832,-2.4524,-2.5261,-2.5005,-2.4869,-2.4979,-2.5184,-2.5303,-2.5303,-2.5303,-2.5303,-2.5303,-2.5303,-2.5303,-2.5303,-2.5303,-2.5303,-0.7568,-0.8703,-0.9807,0.0,0.0,0.0,-1.212,-1.2848,-1.3254,-1.277,-1.2114,-1.1413,-1.0751,-1.117,0.0,-1.1391,-1.3086,-1.478,-1.601,-1.7142,-1.8221,-1.9195,-1.9268,-1.9268,-1.9268,-1.8496,-1.8317,-1.9222,-1.9168,-1.9467,-2.0354,-2.1075,-2.1481,-2.1468,-2.1481,-2.1481,-2.1481,-2.1481,-2.2125,-2.3437,-2.4136,-2.5542,-2.7501,-2.8261,-2.9295,-3.0492,-3.0492,-3.0881,-3.1407,-3.0776,-3.0133,-2.9579,-2.9564,-2.9564,-2.9672,-3.0232,-3.0057,-2.9568,-3.0164,-3.0344,-3.0166,-2.9585,-3.0208,-3.1055,-3.0477,-3.074,-3.119,-3.119,-3.119,-3.119,-3.1173,-3.1173,-3.1173,-3.119,-3.119,-3.119,-3.119,-3.119,-3.1312,-3.1716,-3.1808,-3.1951,-3.24,-3.2872,-3.2895,-3.2119,-3.1646,-3.1091,-3.0283,-2.8778,-2.7163,-2.5568,-2.4667,-2.419,-2.4208,-2.419,-2.4284,-2.4513,-2.4685,-2.4869,-2.4979,-2.5184,-2.5303,-2.5303,-2.5303,-2.5303,-2.5303,-2.5303,-2.5303,-2.5303,-2.5303,-2.5303,-0.7309,-0.8823,0.0,-1.0118,0.0,0.0,0.0,-1.1872,0.0,0.0,-1.1639,-1.0869,-1.0887,-1.088,0.0,-1.1329,-1.21,-1.3092,-1.4271,-1.5267,-1.6111,-1.6817,-1.7245,-1.749,-1.749,-1.7266,-1.7174,-1.7476,-1.7415,-1.7838,-1.885,-1.9518,-1.9951,-2.0273,-2.0702,-2.097,-2.097,-2.097,-2.2055,-2.4177,-2.4391,-2.5542,-2.7501,-2.8261,-2.9056,-2.9864,-2.9864,-2.9968,-3.0148,-2.9939,-2.9744,-2.9535,-2.9071,-2.8891,-2.8884,-2.858,-2.8599,-2.8773,-2.8529,-2.8714,-2.9088,-2.9316,-2.9629,-3.0081,-3.074,-3.1055,-3.1089,-3.0581,-3.0429,-3.0311,-2.977,-2.9634,-2.9905,-3.0937,-3.119,-3.119,-3.119,-3.1411,-3.166,-3.1789,-3.1655,-3.1555,-3.1653,-3.2097,-3.1949,-3.054,-3.0935,-3.0687,-2.876,-2.7603,-2.6557,-2.5513,-2.4667,-2.4428,-2.5017,-2.452,-2.4543,-2.5298,-2.5005,-2.4869,-2.4979,-2.5184,-2.5303,-2.5303,-2.5303,-2.5303,-2.5303,-2.5303,-2.5303,-2.5303,-2.5303,-2.5303,-0.7054,-0.8494,0.0,-0.9751,-1.0392,-1.0922,-1.0399,0.0,0.0,0.0,-1.1281,-1.0648,-1.0942,-1.0755,0.0,-1.1176,-1.1503,-1.2102,-1.3194,-1.4119,-1.4925,-1.5632,-1.6279,-1.6665,-1.6665,-1.6572,-1.6465,-1.6465,-1.6437,-1.6746,-1.7634,-1.8168,-1.8602,-1.9133,-1.9723,-2.0012,-2.0012,-2.0225,-2.1367,-2.3428,-2.3659,-2.4824,-2.6804,-2.7743,-2.8562,-2.9205,-2.946,-2.943,-2.919,-2.919,-2.9026,-2.8742,-2.8353,-2.8188,-2.8195,-2.8011,-2.8042,-2.814,-2.7993,-2.8005,-2.8186,-2.8495,-2.8946,-2.942,-2.9836,-3.0342,-3.0615,-2.9871,-2.9651,-2.955,-2.9146,-2.9011,-2.9194,-3.0108,-3.0311,-3.0311,-3.0311,-3.054,-3.0673,-3.0673,-3.0578,-3.0485,-3.0567,-3.1031,-3.089,-2.9561,-2.9835,-2.9515,-2.7563,-2.6906,-2.6172,-2.5034,-2.4483,-2.4392,-2.4869,-2.4542,-2.4614,-2.5305,-2.5035,-2.4956,-2.5111,-2.5243,-2.5303,-2.5303,-2.5303,-2.5303,-2.5303,-2.5303,-2.5303,-2.5303,-2.5303,-2.5303,-0.677,-0.7794,0.0,-0.942,-0.9923,0.0,-0.9826,-1.0341,-1.0989,-1.1249,0.0,-1.0675,-1.0909,-1.0735,-1.0719,-1.0949,-1.1209,-1.173,-1.2774,-1.3537,-1.436,-1.5331,-1.6097,-1.6592,-1.6562,-1.6191,-1.5988,-1.5949,-1.5808,-1.6031,-1.6721,-1.702,-1.7485,-1.8204,-1.8694,-1.8908,-1.8908,-1.9472,-2.0412,-2.1741,-2.2326,-2.3626,-2.5561,-2.6914,-2.7867,-2.8547,-2.9131,-2.9056,-2.8502,-2.8502,-2.8128,-2.7625,-2.7625,-2.7625,-2.7675,-2.8238,-2.8091,-2.7675,-2.8238,-2.7999,-2.7503,-2.7473,-2.8259,-2.9032,-2.8388,-2.9037,-2.9837,-2.9093,-2.8873,-2.8873,-2.8825,-2.8808,-2.8808,-2.8808,-2.8909,-2.9011,-2.9011,-2.9011,-2.9011,-2.9011,-2.8924,-2.9,-2.9334,-2.9747,-2.9796,-2.9077,-2.8586,-2.7919,-2.6643,-2.6502,-2.5897,-2.4355,-2.419,-2.4209,-2.4228,-2.4393,-2.4591,-2.4799,-2.4924,-2.5088,-2.5284,-2.5303,-2.5303,-2.5303,-2.5303,-2.5303,-2.5303,-2.5303,-2.5303,-2.5303,-2.5303,-2.5303,-0.6698,-0.7668,0.0,0.0,-0.9252,-0.9891,-1.0013,-1.0167,-1.0321,-1.0388,-1.0661,-1.0848,-1.0681,-1.0665,-1.0719,-1.0949,-1.1049,-1.1496,-1.2617,-1.3199,-1.3907,-1.4738,-1.5345,-1.5566,-1.5234,-1.5117,-1.4922,-1.457,-1.4474,-1.5048,-1.6283,-1.6395,-1.6985,-1.8157,-1.8317,-1.838,-1.838,-1.892,-1.9848,-2.1179,-2.2206,-2.3462,-2.4924,-2.6184,-2.7122,-2.7799,-2.7949,-2.797,-2.785,-2.785,-2.7709,-2.7625,-2.7625,-2.7625,-2.7625,-2.776,-2.771,-2.7625,-2.776,-2.7649,-2.7519,-2.7955,-2.8236,-2.8388,-2.8732,-2.9003,-2.9059,-2.8298,-2.8078,-2.7926,-2.7334,-2.7182,-2.7182,-2.7182,-2.8112,-2.9011,-2.9011,-2.9011,-2.9011,-2.9011,-2.8484,-2.8185,-2.8558,-2.8769,-2.8789,-2.8569,-2.8197,-2.7391,-2.5841,-2.5658,-2.5273,-2.43,-2.419,-2.4247,-2.4409,-2.4478,-2.4636,-2.4937,-2.4986,-2.5088,-2.5284,-2.5303,-2.5303,-2.5303,-2.5303,-2.5303,-2.5303,-2.5303,-2.5303,-2.5303,-2.5303,-2.5303,-0.6412,0.0,0.0,-0.8677,0.0,-0.9552,-0.984,-0.9913,-0.9913,-0.9913,-1.0154,-1.0321,-1.0167,-1.0254,-1.0394,-1.0548,-1.0575,-1.0755,-1.1354,-1.2135,-1.2872,-1.3287,-1.4174,-1.4717,-1.4492,-1.4473,-1.4375,-1.4097,-1.3945,-1.4379,-1.5719,-1.5605,-1.6056,-1.7355,-1.7664,-1.7815,-1.7815,-1.8355,-1.909,-2.007,-2.0904,-2.2328,-2.4212,-2.5487,-2.6273,-2.6632,-2.6632,-2.6811,-2.7081,-2.6752,-2.7006,-2.7595,-2.723,-2.734,-2.7625,-2.7625,-2.7625,-2.7565,-2.7215,-2.7278,-2.7456,-2.7311,-2.7656,-2.8136,-2.7936,-2.8146,-2.8264,-2.7503,-2.7283,-2.7182,-2.6793,-2.6691,-2.6691,-2.6691,-2.73,-2.7892,-2.7892,-2.7892,-2.7892,-2.7892,-2.7554,-2.7403,-2.7797,-2.7753,-2.7677,-2.7795,-2.7314,-2.6567,-2.5529,-2.5403,-2.509,-2.4281,-2.419,-2.4284,-2.4478,-2.4575,-2.4756,-2.4967,-2.5088,-2.5203,-2.5303,-2.5303,-2.5303,-2.5303,-2.5303,-2.5303,-2.5303,-2.5303,-2.5303,-2.5303,-2.5303,-2.5303,-0.6101,0.0,-0.7796,-0.8831,-0.907,0.0,-0.9539,-0.9606,-0.9593,-0.9539,-0.9613,-0.9686,-0.9686,-0.988,-1.004,-1.004,-1.004,-1.01,-1.0214,-1.118,-1.195,-1.2061,-1.3295,-1.4048,-1.398,-1.397,-1.3941,-1.3926,-1.3594,-1.3871,-1.4956,-1.4829,-1.5197,-1.6293,-1.6929,-1.7237,-1.7237,-1.779,-1.8292,-1.8744,-1.9597,-2.1139,-2.3334,-2.4666,-2.539,-2.5615,-2.5615,-2.5914,-2.6378,-2.5839,-2.6243,-2.7186,-2.6632,-2.6826,-2.738,-2.7275,-2.7355,-2.7305,-2.6647,-2.6731,-2.7005,-2.6392,-2.6935,-2.7677,-2.6926,-2.7131,-2.7503,-2.686,-2.6691,-2.6691,-2.6691,-2.6691,-2.6691,-2.6691,-2.6691,-2.6691,-2.6691,-2.6691,-2.6657,-2.6522,-2.6404,-2.6468,-2.6985,-2.6766,-2.6561,-2.6759,-2.6296,-2.5724,-2.5252,-2.5201,-2.4944,-2.4263,-2.4228,-2.4321,-2.4526,-2.4731,-2.491,-2.5034,-2.5214,-2.5303,-2.5303,-2.5303,-2.5303,-2.5303,-2.5303,-2.5303,-2.5303,-2.5303,-2.5303,-2.5303,-2.5303,-2.5322,0.0,0.0,-0.7969,0.0,-0.8677,-0.8938,0.0,0.0,-0.9225,0.0,-0.9332,-0.9686,-0.9686,-0.9713,-0.974,-0.974,-0.974,-1.0024,-1.0688,-1.1423,-1.2172,-1.2859,-1.3638,-1.3941,-1.3623,-1.3594,-1.3437,-1.3076,-1.2998,-1.328,-1.3958,-1.4455,-1.5017,-1.5688,-1.6312,-1.6635,-1.6635,-1.72,-1.7526,-1.766,-1.976,-2.1244,-2.2161,-2.3334,-2.4507,-2.5615,-2.5615,-2.5659,-2.5734,-2.5644,-2.5719,-2.5869,-2.5779,-2.6138,-2.6647,-2.6078,-2.6228,-2.6632,-2.5974,-2.5713,-2.5734,-2.6091,-2.6231,-2.6333,-2.6606,-2.6759,-2.6826,-2.6725,-2.6691,-2.6691,-2.6691,-2.6691,-2.6691,-2.6691,-2.6691,-2.6691,-2.6691,-2.6691,-2.6505,-2.5879,-2.522,-2.5091,-2.6109,-2.5943,-2.5532,-2.5165,-2.5336,-2.5214,-2.4465,-2.4355,-2.4318,-2.4208,-2.4357,-2.4545,-2.4746,-2.4891,-2.5053,-2.5253,-2.5293,-2.5303,-2.5303,-2.5303,-2.5303,-2.5303,-2.5303,-2.5303,-2.5303,-2.5303,-2.5303,-2.5303,-2.537,-2.539,-0.6456,-0.6888,-0.7288,0.0,-0.7963,-0.8183,-0.8651,-0.8758,-0.8764,-0.8798,-0.9011,-0.9192,-0.9192,-0.9325,-0.9439,-0.9439,-0.9439,-0.9545,-0.9925,-1.0414,-1.0982,-1.1721,-1.2398,-1.2916,-1.3124,-1.3154,-1.3076,-1.2891,-1.2881,-1.3152,-1.3779,-1.405,-1.4641,-1.5588,-1.5864,-1.6151,-1.6522,-1.6773,-1.7061,-1.7433,-1.9086,-2.0182,-2.0811,-2.1685,-2.2964,-2.4477,-2.4477,-2.4702,-2.5031,-2.4642,-2.4926,-2.557,-2.5211,-2.5465,-2.6004,-2.5719,-2.5794,-2.5944,-2.5285,-2.5484,-2.592,-2.5393,-2.5632,-2.6189,-2.6272,-2.6297,-2.6367,-2.6624,-2.6691,-2.6691,-2.6691,-2.6691,-2.6691,-2.6691,-2.6387,-2.6082,-2.6082,-2.6082,-2.5862,-2.5118,-2.488,-2.4923,-2.5397,-2.5271,-2.5052,-2.4828,-2.4756,-2.4593,-2.4245,-2.419,-2.4247,-2.4357,-2.4444,-2.4604,-2.4891,-2.4962,-2.5088,-2.5303,-2.5303,-2.5303,-2.5303,-2.5303,-2.5303,-2.5303,-2.5303,-2.5303,-2.5303,-2.5303,-2.5322,-2.537,-2.539,-2.5425,0.0,0.0,-0.6787,-0.7197,-0.7338,-0.7495,0.0,0.0,-0.8343,0.0,-0.8593,-0.8586,-0.8752,-0.8985,-0.9077,-0.9077,-0.9077,-0.9077,-0.9077,-0.9503,-1.0064,-1.0712,-1.1416,-1.208,-1.2832,-1.2881,-1.2881,-1.2881,-1.2881,-1.3113,-1.3552,-1.3873,-1.4457,-1.532,-1.5676,-1.6051,-1.6522,-1.6522,-1.6735,-1.7206,-1.8464,-1.932,-1.9723,-2.0694,-2.1845,-2.3116,-2.3116,-2.3505,-2.4088,-2.358,-2.4044,-2.5046,-2.4552,-2.4777,-2.5345,-2.5151,-2.5211,-2.527,-2.4597,-2.497,-2.5623,-2.4689,-2.5058,-2.5831,-2.5979,-2.6013,-2.6085,-2.659,-2.6691,-2.6657,-2.6471,-2.642,-2.637,-2.6184,-2.571,-2.5321,-2.5321,-2.5169,-2.4932,-2.456,-2.4394,-2.4419,-2.4743,-2.458,-2.4464,-2.4617,-2.4379,-2.419,-2.419,-2.419,-2.4266,-2.441,-2.4461,-2.462,-2.4924,-2.4986,-2.5088,-2.5303,-2.5303,-2.5303,-2.5303,-2.5303,-2.5303,-2.5303,-2.5303,-2.5303,-2.5303,-2.5303,-2.5322,-2.5409,-2.5416,-2.5461,0.0,-0.68,0.0,-0.6693,-0.684,0.0,0.0,0.0,-0.8036,-0.8337,-0.8086,-0.7996,-0.8646,-0.8818,-0.8831,-0.8831,-0.8831,-0.8831,-0.8831,-0.9375,-1.0064,-1.0712,-1.1416,-1.208,-1.2832,-1.2881,-1.2881,-1.2881,-1.2881,-1.2929,-1.2978,-1.4025,-1.4698,-1.4744,-1.5876,-1.6466,-1.6522,-1.6522,-1.6534,-1.6572,-1.8271,-1.9128,-1.9197,-2.0874,-2.1685,-2.1799,-2.1799,-2.2173,-2.2787,-2.2783,-2.3116,-2.3699,-2.367,-2.4073,-2.4597,-2.3939,-2.4118,-2.4537,-2.3879,-2.3713,-2.3814,-2.4256,-2.4446,-2.4679,-2.5705,-2.6013,-2.6085,-2.659,-2.6691,-2.6539,-2.5845,-2.5659,-2.549,-2.4794,-2.4608,-2.4574,-2.4574,-2.4002,-2.3697,-2.4388,-2.3388,-2.2822,-2.4102,-2.3749,-2.3508,-2.4147,-2.4226,-2.419,-2.419,-2.419,-2.419,-2.4209,-2.4393,-2.4575,-2.4804,-2.493,-2.5088,-2.5303,-2.5303,-2.5303,-2.5303,-2.5303,-2.5303,-2.5303,-2.5303,-2.5303,-2.5303,-2.5303,-2.5322,-2.539,-2.5467,-2.5518,0.0,0.0,0.0,-0.6055,-0.5976,-0.6037,-0.6563,-0.6743,-0.6898,-0.717,-0.6993,-0.6812,-0.7068,-0.7656,-0.8262,-0.8699,-0.8804,-0.8804,-0.8804,-0.9008,-0.9413,-1.0064,-1.0516,-1.1155,-1.211,-1.211,-1.2312,-1.2842,-1.2617,-1.2461,-1.2461,-1.3135,-1.3793,-1.4305,-1.4991,-1.57,-1.6479,-1.6522,-1.6522,-1.6522,-1.7115,-1.7615,-1.7989,-1.8941,-1.9584,-1.9909,-2.028,-2.1021,-2.2054,-2.2054,-2.2428,-2.3011,-2.3011,-2.34,-2.3939,-2.3684,-2.3759,-2.3924,-2.3684,-2.3595,-2.3578,-2.3368,-2.3546,-2.3956,-2.4256,-2.4852,-2.5524,-2.5672,-2.5861,-2.5864,-2.5246,-2.4977,-2.4695,-2.3968,-2.3782,-2.3646,-2.319,-2.3241,-2.3342,-2.3122,-2.2986,-2.3045,-2.3512,-2.3723,-2.3917,-2.417,-2.419,-2.419,-2.419,-2.419,-2.4247,-2.4375,-2.4461,-2.4575,-2.479,-2.4911,-2.5034,-2.5099,-2.5224,-2.5303,-2.5303,-2.5303,-2.5303,-2.5303,-2.5303,-2.5322,-2.537,-2.537,-2.5428,-2.5524,-2.5558,-2.5596,-0.6787,0.0,0.0,0.0,-0.5426,-0.5314,-0.589,-0.6049,-0.6149,-0.6535,-0.6272,-0.6022,-0.6192,-0.6566,-0.7091,-0.7825,-0.8088,-0.8248,-0.8248,-0.8408,-0.8758,-0.9435,-0.9681,-1.0194,-1.1352,-1.1378,-1.1676,-1.2607,-1.2256,-1.2139,-1.2432,-1.2806,-1.348,-1.4584,-1.4911,-1.5521,-1.6466,-1.6522,-1.6522,-1.6522,-1.668,-1.7034,-1.7585,-1.8145,-1.865,-1.9207,-1.9566,-2.0318,-2.1365,-2.1365,-2.1754,-2.2368,-2.2634,-2.2921,-2.331,-2.352,-2.3595,-2.3565,-2.3355,-2.3295,-2.3221,-2.2817,-2.2802,-2.3077,-2.3563,-2.3983,-2.4322,-2.4766,-2.4844,-2.4663,-2.4046,-2.3719,-2.3446,-2.311,-2.3038,-2.2902,-2.2412,-2.2682,-2.2897,-2.2528,-2.2755,-2.3093,-2.3346,-2.3753,-2.4074,-2.417,-2.419,-2.419,-2.419,-2.419,-2.4266,-2.4393,-2.441,-2.4512,-2.4775,-2.4877,-2.4974,-2.5088,-2.5224,-2.5303,-2.5303,-2.5303,-2.5303,-2.5303,-2.5303,-2.5322,-2.5409,-2.5409,-2.5466,-2.5601,-2.5601,-2.5641,0.0,0.0,0.0,0.0,-0.5268,-0.502,-0.555,-0.563,-0.5809,-0.6381,-0.5936,-0.5594,-0.6038,-0.5542,-0.5304,-0.5993,-0.669,-0.7098,-0.7098,-0.7583,-0.816,-0.8788,-0.8874,-0.9366,-1.0651,-1.0775,-1.1165,-1.2122,-1.1797,-1.1959,-1.2773,-1.3063,-1.3953,-1.5586,-1.5706,-1.5969,-1.6509,-1.6522,-1.6522,-1.6522,-1.7034,-1.7544,-1.8066,-1.8612,-1.9169,-1.9639,-1.969,-2.0064,-2.0677,-2.0677,-2.1081,-2.1739,-2.2368,-2.2664,-2.2727,-2.3325,-2.3535,-2.346,-2.2862,-2.2694,-2.2679,-2.2664,-2.2203,-2.2039,-2.3763,-2.3398,-2.2633,-2.3792,-2.367,-2.2999,-2.2276,-2.1842,-2.1718,-2.218,-2.231,-2.231,-2.231,-2.231,-2.2388,-2.266,-2.2721,-2.2923,-2.3588,-2.3714,-2.3816,-2.4151,-2.419,-2.419,-2.419,-2.419,-2.419,-2.419,-2.419,-2.4357,-2.4746,-2.479,-2.4942,-2.5264,-2.5284,-2.5303,-2.5303,-2.5303,-2.5303,-2.5303,-2.5303,-2.5322,-2.5409,-2.539,-2.5457,-2.5611,-2.5582,-2.5609,-0.5776,0.0,0.0,0.0,0.0,0.0,-0.4446,-0.4487,-0.4477,-0.4571,-0.4227,-0.3952,-0.4085,-0.3864,-0.3818,-0.4243,-0.5862,-0.7098,-0.7098,-0.7583,-0.7977,-0.8153,-0.8366,-0.8888,-0.9897,-0.9924,-1.0387,0.0,-1.1338,-1.1191,-1.1445,-1.2657,-1.3716,-1.453,-1.5691,-1.6358,-1.6522,-1.6522,-1.6522,-1.6522,-1.6637,-1.6795,-1.6951,-1.7907,-1.8419,-1.8574,-1.9369,-1.9794,-1.9974,-1.9974,-2.0363,-2.1006,-2.1186,-2.1545,-2.1994,-2.2158,-2.2218,-2.2203,-2.2024,-2.1964,-2.1889,-2.141,-2.1455,-2.1704,-2.1726,-2.2034,-2.2406,-2.2409,-2.2379,-2.2293,-2.1841,-2.1669,-2.1718,-2.218,-2.231,-2.231,-2.231,-2.231,-2.2388,-2.266,-2.2898,-2.3189,-2.3628,-2.3896,-2.4094,-2.419,-2.419,-2.419,-2.419,-2.419,-2.419,-2.419,-2.419,-2.4247,-2.4357,-2.4623,-2.4847,-2.4923,-2.5179,-2.5303,-2.5303,-2.5303,-2.5303,-2.5303,-2.5303,-2.5322,-2.5409,-2.5437,-2.5522,-2.5595,-2.5007,-2.5084,0.0,0.0,0.0,-0.4387,0.0,0.0,-0.4105,-0.409,-0.4012,-0.3953,-0.3719,-0.3454,-0.3253,-0.3142,-0.3198,-0.3442,-0.4792,-0.5841,-0.5943,-0.6671,-0.7192,-0.7192,-0.7528,-0.8084,-0.8885,-0.9089,-0.9658,-1.0889,-1.0765,-1.0725,-1.0915,-1.2251,-1.3225,-1.3737,-1.5122,-1.5944,-1.617,-1.6409,-1.6522,-1.6522,-1.6522,-1.671,-1.7188,-1.7827,-1.8341,-1.8817,-1.9442,-1.969,-1.969,-1.969,-1.9929,-2.0318,-2.0602,-2.0946,-2.1321,-2.1605,-2.1695,-2.1665,-2.138,-2.1291,-2.1216,-2.0842,-2.0782,-2.0887,-2.1066,-2.119,-2.1271,-2.1263,-2.1295,-2.1355,-2.1341,-2.146,-2.1718,-2.218,-2.231,-2.231,-2.231,-2.231,-2.2388,-2.266,-2.2873,-2.3141,-2.3628,-2.3858,-2.4036,-2.417,-2.419,-2.419,-2.419,-2.419,-2.419,-2.419,-2.419,-2.4228,-2.4321,-2.4607,-2.4814,-2.4877,-2.5149,-2.5303,-2.5303,-2.5303,-2.5303,-2.5303,-2.5303,-2.5322,-2.5409,-2.5472,-2.5541,-2.5625,-2.5156,-2.5215,0.0,0.0,0.0,-0.4303,-0.3976,0.0,-0.4224,-0.4154,-0.4007,-0.4094,-0.3906,-0.3586,-0.3159,-0.3093,-0.3095,-0.3279,-0.364,-0.3986,-0.435,-0.5353,-0.6095,-0.618,-0.6622,-0.7154,-0.7829,-0.8316,-0.9013,-0.9965,-1.021,-1.0467,-1.0905,-1.1877,-1.2657,-1.3205,-1.4358,-1.5203,-1.5693,-1.6233,-1.6522,-1.6522,-1.6522,-1.7034,-1.8027,-1.8066,-1.865,-1.9603,-1.969,-1.969,-1.969,-1.969,-1.969,-1.975,-2.0363,-2.0602,-2.0677,-2.1261,-2.147,-2.138,-2.0812,-2.0602,-2.0602,-2.0602,-2.0183,-1.9914,-2.1111,-2.0632,-1.9809,-2.0423,-2.0415,-2.0348,-2.0797,-2.1244,-2.1658,-2.2106,-2.2254,-2.231,-2.231,-2.231,-2.236,-2.2625,-2.2669,-2.2898,-2.3544,-2.3671,-2.3795,-2.4094,-2.417,-2.419,-2.419,-2.419,-2.419,-2.419,-2.419,-2.4266,-2.4444,-2.467,-2.4842,-2.4949,-2.5152,-2.5264,-2.5264,-2.5264,-2.5274,-2.5303,-2.5303,-2.5322,-2.5409,-2.5467,-2.5557,-2.5683,-2.5586,-2.5605,0.0,0.0,-0.3751,-0.3751,-0.3753,0.0,-0.3735,-0.3823,-0.3771,-0.3521,-0.3349,-0.3197,-0.312,-0.2927,-0.2893,-0.3246,-0.3201,-0.3388,-0.4127,-0.4876,-0.5484,-0.5902,-0.6175,-0.6774,-0.7787,-0.7995,-0.8504,-0.9546,-1.0048,-1.0361,-1.0428,-1.1772,-1.2619,-1.2735,-1.4557,-1.558,-1.5693,-1.6233,-1.6522,-1.6522,-1.6522,-1.6837,-1.7463,-1.7907,-1.8458,-1.908,-1.953,-1.969,-1.969,-1.969,-1.969,-1.969,-1.9824,-1.9884,-1.9899,-2.0034,-2.0079,-2.0064,-1.9929,-1.9884,-1.9884,-1.9884,-1.9794,-1.9735,-1.9989,-1.9899,-1.972,-1.9854,-1.9852,-1.9909,-2.0314,-2.0797,-2.1213,-2.1628,-2.2032,-2.231,-2.231,-2.231,-2.231,-2.236,-2.2563,-2.2822,-2.3212,-2.3522,-2.3714,-2.3795,-2.4016,-2.419,-2.419,-2.419,-2.419,-2.419,-2.419,-2.4209,-2.4266,-2.4591,-2.4746,-2.4604,-2.4885,-2.5065,-2.5065,-2.5065,-2.5122,-2.5303,-2.5303,-2.5322,-2.5409,-2.5418,-2.5453,-2.5527,-2.4877,-2.4941,-0.3727,-0.3741,-0.3782,-0.3704,-0.3737,0.0,0.0,-0.3687,-0.3643,-0.3493,-0.3344,-0.3236,-0.3236,-0.2822,-0.2566,-0.2842,-0.2686,-0.2697,-0.3145,-0.4041,-0.4771,-0.5015,-0.5722,-0.6435,-0.6985,-0.7579,-0.8245,-0.9083,-0.9877,-1.0186,-0.9971,-1.1378,-1.2219,-1.2219,-1.4225,-1.5279,-1.5279,-1.6107,-1.6522,-1.6522,-1.6522,-1.6795,-1.7312,-1.7867,-1.838,-1.893,-1.9479,-1.969,-1.969,-1.969,-1.969,-1.969,-1.969,-1.969,-1.969,-1.969,-1.969,-1.969,-1.969,-1.969,-1.969,-1.969,-1.969,-1.969,-1.969,-1.969,-1.969,-1.969,-1.9839,-2.007,-2.0246,-2.0813,-2.1337,-2.1552,-2.1974,-2.231,-2.231,-2.231,-2.231,-2.231,-2.2398,-2.259,-2.2898,-2.3093,-2.3305,-2.3649,-2.3837,-2.4016,-2.417,-2.419,-2.419,-2.419,-2.419,-2.419,-2.419,-2.4478,-2.4607,-2.4512,-2.4737,-2.4904,-2.4904,-2.4962,-2.5099,-2.5303,-2.5303,-2.5322,-2.5341,-2.5348,-2.5406,-2.5483,-2.5121,-2.5174,-0.3877,-0.3924,-0.3982,-0.3829,-0.3816,-0.3822,0.0,0.0,0.0,-0.3585,-0.3502,-0.3392,-0.3392,-0.274,0.0,-0.2462,0.0,0.0,0.0,-0.3166,0.0,-0.4154,-0.5277,-0.6093,-0.6179,-0.7183,-0.8031,-0.8543,-0.9488,-0.9924,-0.9612,-1.0987,-1.1811,-1.1811,-1.3727,-1.4802,-1.4916,-1.5856,-1.6409,-1.6522,-1.6522,-1.6795,-1.7312,-1.7867,-1.838,-1.893,-1.9479,-1.969,-1.969,-1.969,-1.969,-1.969,-1.969,-1.969,-1.969,-1.969,-1.969,-1.969,-1.969,-1.969,-1.969,-1.969,-1.969,-1.969,-1.969,-1.969,-1.969,-1.969,-1.9929,-2.0177,-2.0177,-2.0765,-2.1352,-2.146,-2.1823,-2.218,-2.2282,-2.231,-2.231,-2.231,-2.231,-2.236,-2.2573,-2.2686,-2.2898,-2.3432,-2.3628,-2.3795,-2.4074,-2.417,-2.419,-2.419,-2.419,-2.419,-2.419,-2.4393,-2.4478,-2.4444,-2.4623,-2.4746,-2.4746,-2.4891,-2.5053,-2.5253,-2.5222,-2.5222,-2.5234,-2.5234,-2.5321,-2.5466,-2.5543,-2.5583,-0.4036,-0.4005,-0.3982,-0.3829,-0.3894,-0.3924,-0.3663,0.0,-0.3731,-0.3605,0.0,-0.3306,-0.3306,0.0,0.0,0.0,-0.1884,-0.1606,-0.2139,-0.2473,-0.3027,-0.3919,-0.4844,-0.561,-0.6136,-0.6976,-0.754,-0.7721,-0.862,-0.9273,-0.9592,-1.0987,-1.1811,-1.1811,-1.3362,-1.4412,-1.4903,-1.548,-1.6032,-1.6522,-1.6522,-1.6795,-1.7312,-1.7867,-1.838,-1.893,-1.9479,-1.969,-1.969,-1.969,-1.969,-1.969,-1.969,-1.969,-1.969,-1.969,-1.969,-1.969,-1.969,-1.969,-1.969,-1.969,-1.969,-1.969,-1.969,-1.969,-1.969,-1.969,-1.9711,-1.9782,-1.9782,-2.0104,-2.055,-2.0959,-2.1368,-2.1794,-2.2209,-2.231,-2.231,-2.231,-2.231,-2.231,-2.2349,-2.2537,-2.2738,-2.2875,-2.3359,-2.3714,-2.3735,-2.4016,-2.419,-2.419,-2.419,-2.419,-2.419,-2.4393,-2.4409,-2.4247,-2.4409,-2.4526,-2.4526,-2.4731,-2.4877,-2.5034,-2.4923,-2.4923,-2.5034,-2.5034,-2.5141,-2.5322,-2.5447,-2.5511,-0.414,-0.4212,-0.4239,-0.4094,-0.4053,-0.407,-0.3995,-0.3877,-0.3799,-0.3829,0.0,0.0,0.0,0.0,0.0,0.0,-0.1532,-0.1125,0.0,0.0,-0.282,-0.3397,0.0,0.0,-0.5843,-0.6799,-0.7355,-0.7202,-0.8096,-0.8732,-0.8882,-1.0476,-1.1372,-1.1372,-1.3143,-1.4349,-1.4903,-1.5417,-1.5969,-1.6522,-1.6522,-1.6637,-1.6879,-1.7706,-1.8224,-1.8468,-1.8935,-1.9331,-1.966,-1.9271,-1.9346,-1.969,-1.969,-1.969,-1.969,-1.969,-1.969,-1.969,-1.969,-1.969,-1.969,-1.969,-1.969,-1.969,-1.969,-1.969,-1.969,-1.969,-1.969,-1.969,-1.969,-2.0,-2.0416,-2.0894,-2.1306,-2.1718,-2.2209,-2.231,-2.231,-2.231,-2.231,-2.231,-2.231,-2.2371,-2.2527,-2.2704,-2.3135,-2.3477,-2.3671,-2.3996,-2.419,-2.419,-2.419,-2.419,-2.419,-2.4266,-2.4284,-2.4227,-2.4266,-2.4375,-2.4495,-2.4575,-2.4697,-2.4877,-2.4828,-2.4869,-2.501,-2.501,-2.5099,-2.5303,-2.5447,-2.5495,-0.4334,-0.4385,-0.4429,-0.4231,-0.4197,-0.4184,-0.4143,-0.4012,-0.3873,-0.3941,-0.3788,0.0,0.0,0.0,0.0,0.0,0.0,-0.0654,0.0,-0.1555,-0.2401,-0.2878,-0.3784,0.0,0.0,-0.6212,-0.6695,-0.6453,-0.7416,-0.8155,-0.8393,-1.0098,-1.116,-1.1306,-1.2961,-1.4123,-1.4676,-1.5079,-1.5593,-1.6283,-1.6132,-1.6187,-1.6494,-1.7424,-1.7935,-1.8061,-1.8496,-1.9076,-1.963,-1.8972,-1.9091,-1.969,-1.969,-1.969,-1.969,-1.969,-1.969,-1.969,-1.969,-1.969,-1.969,-1.969,-1.969,-1.969,-1.969,-1.969,-1.969,-1.969,-1.969,-1.969,-1.969,-1.9909,-2.0296,-2.0862,-2.1213,-2.1598,-2.218,-2.231,-2.231,-2.231,-2.231,-2.231,-2.231,-2.231,-2.2377,-2.2563,-2.294,-2.3236,-2.3414,-2.3795,-2.4074,-2.4074,-2.4074,-2.4094,-2.419,-2.419,-2.419,-2.419,-2.419,-2.4284,-2.4495,-2.4444,-2.4512,-2.4716,-2.467,-2.4741,-2.4956,-2.4956,-2.5084,-2.5303,-2.5447,-2.5495,-0.4512,-0.4515,-0.4429,-0.4231,-0.4197,-0.4157,-0.406,-0.4019,-0.3972,-0.3829,-0.3792,-0.3744,-0.3612,0.0,0.0,0.0,0.0,0.0,0.0,-0.0854,-0.1339,-0.2384,-0.3509,-0.4271,0.0,-0.4905,-0.5193,-0.5246,-0.6433,-0.7524,-0.8365,-1.0133,-1.1317,-1.1766,-1.2733,-1.3521,-1.411,-1.4123,-1.4689,-1.5718,-1.5218,-1.5427,-1.6323,-1.6995,-1.7534,-1.7949,-1.8446,-1.9076,-1.963,-1.8972,-1.9091,-1.969,-1.969,-1.969,-1.969,-1.969,-1.969,-1.969,-1.969,-1.969,-1.969,-1.969,-1.969,-1.969,-1.969,-1.969,-1.969,-1.969,-1.969,-1.969,-1.969,-1.9726,-1.9945,-2.0797,-2.1007,-2.126,-2.2106,-2.231,-2.231,-2.231,-2.231,-2.231,-2.231,-2.231,-2.231,-2.231,-2.2824,-2.3093,-2.2772,-2.3323,-2.3714,-2.3714,-2.3714,-2.3855,-2.417,-2.419,-2.419,-2.419,-2.419,-2.4284,-2.4495,-2.4321,-2.4303,-2.4512,-2.4321,-2.4409,-2.4804,-2.4804,-2.4994,-2.5303,-2.5447,-2.5495,-0.4519,-0.4519,-0.4505,-0.4402,-0.4389,-0.4375,-0.4324,-0.4239,-0.4076,-0.3975,-0.3863,-0.3748,-0.3605,0.0,0.0,0.0,0.0,0.0,0.0,-0.064,-0.1171,-0.1811,-0.3258,-0.4099,-0.3899,-0.4565,-0.5088,-0.5201,-0.6299,-0.7273,-0.7985,-0.9678,-1.0858,-1.1305,-1.2248,-1.3201,-1.4085,-1.4085,-1.4462,-1.5153,-1.5004,-1.5081,-1.5402,-1.6248,-1.6709,-1.6902,-1.7695,-1.8433,-1.9016,-1.8792,-1.9091,-1.969,-1.969,-1.969,-1.969,-1.969,-1.969,-1.969,-1.969,-1.969,-1.969,-1.969,-1.969,-1.969,-1.969,-1.969,-1.969,-1.969,-1.969,-1.969,-1.969,-1.9909,-2.0261,-2.0862,-2.0991,-2.11,-2.1485,-2.1709,-2.1645,-2.0938,-2.1589,-2.2141,-2.1651,-2.1972,-2.231,-2.231,-2.2616,-2.2822,-2.2721,-2.3093,-2.3437,-2.3671,-2.3692,-2.3855,-2.417,-2.419,-2.419,-2.419,-2.419,-2.4228,-2.4303,-2.4247,-2.4228,-2.4303,-2.4228,-2.441,-2.4804,-2.4804,-2.4962,-2.5303,-2.5447,-2.5495,-0.4519,-0.4519,-0.4519,-0.4519,-0.4519,-0.4519,-0.4519,-0.4392,-0.4284,-0.408,-0.4022,-0.3894,-0.3693,0.0,0.0,0.0,0.0,0.0,0.0,-0.0529,-0.1013,-0.1265,-0.247,-0.3224,-0.3102,-0.3953,-0.4667,-0.4954,-0.6336,-0.7371,-0.7929,-0.9492,-1.0694,-1.1327,-1.2107,-1.2925,-1.376,-1.3795,-1.4072,-1.4614,-1.4561,-1.4708,-1.5073,-1.5874,-1.629,-1.6474,-1.7099,-1.7733,-1.8416,-1.838,-1.8763,-1.9442,-1.9639,-1.969,-1.969,-1.969,-1.969,-1.969,-1.969,-1.969,-1.969,-1.969,-1.969,-1.969,-1.969,-1.969,-1.969,-1.969,-1.969,-1.969,-1.969,-1.9909,-2.0193,-2.0665,-2.0764,-2.0767,-2.078,-2.1007,-2.0928,-1.9997,-2.0726,-2.1346,-2.0856,-2.1397,-2.2006,-2.226,-2.2527,-2.2686,-2.2563,-2.284,-2.3093,-2.3323,-2.3437,-2.3714,-2.417,-2.419,-2.419,-2.419,-2.419,-2.4061,-2.3786,-2.4043,-2.4061,-2.3786,-2.3824,-2.4146,-2.4804,-2.4558,-2.4726,-2.5303,-2.5409,-2.5476]}]]